[[{"header":{"parameterUnit":"m.s-1","parameterCategory":1,"la1":30.6,"la2":29.2853,"lo1":-89.7004,"lo2":-87.6739,"dy":0.0162,"dx":0.0183,"nx":112,"ny":82,"refTime":"2023-06-15T12:00:00:Z","depth":0,"parameterNumber":2,"parameterNumberName":"U-component_of_WINDS"},"data":[0.0,0.0,0.0,0.0,0.0,0.0,0.0,0.0,0.0,0.0,0.0,0.0,0.0,0.0,0.0,0.0,0.0,0.0,0.0,0.0,0.0,0.0,0.0,0.0,0.0,0.0,0.0,0.0,0.0,0.0,0.0,0.0,0.0,0.0,0.0,0.0,0.0,0.0,0.0,0.0,0.0,0.0,0.0,0.0,0.0,0.0,0.0,0.0,0.0,0.0,0.0,0.0,0.0,0.0,0.0,0.0,0.0,0.0,0.0,0.0,0.0,0.0,0.0,0.0,0.0,0.0,0.0,0.0,0.0,0.0,0.0,0.0,0.0,0.0,0.0,0.0,0.0,0.0,0.0,0.0,0.0,0.0,0.0,0.0,0.0,0.0,0.0,0.0,0.0,0.0,-4.1096,-4.2492,-4.4167,-4.5438,-4.6127,-4.569,-4.5484,-4.5685,0.0,0.0,0.0,0.0,0.0,0.0,0.0,0.0,0.0,0.0,0.0,0.0,0.0,0.0,0.0,0.0,0.0,0.0,0.0,0.0,0.0,0.0,0.0,0.0,0.0,0.0,0.0,0.0,0.0,0.0,0.0,0.0,0.0,0.0,0.0,0.0,0.0,0.0,0.0,0.0,0.0,0.0,0.0,0.0,0.0,0.0,0.0,0.0,0.0,0.0,0.0,0.0,0.0,0.0,0.0,0.0,0.0,0.0,0.0,0.0,0.0,0.0,0.0,0.0,0.0,0.0,0.0,0.0,0.0,0.0,0.0,0.0,0.0,0.0,0.0,0.0,0.0,0.0,0.0,0.0,0.0,0.0,0.0,0.0,0.0,0.0,0.0,0.0,0.0,0.0,0.0,0.0,0.0,0.0,0.0,0.0,0.0,0.0,0.0,0.0,0.0,0.0,0.0,0.0,-4.2098,-4.4771,-4.6036,-4.6712,-4.6793,-4.7411,-4.742,-4.6338,0.0,0.0,0.0,0.0,0.0,0.0,0.0,0.0,0.0,0.0,0.0,0.0,0.0,0.0,0.0,0.0,0.0,0.0,0.0,0.0,0.0,0.0,0.0,0.0,0.0,0.0,0.0,0.0,0.0,0.0,0.0,0.0,0.0,0.0,0.0,0.0,0.0,0.0,0.0,0.0,0.0,0.0,0.0,0.0,0.0,0.0,0.0,0.0,0.0,0.0,0.0,0.0,0.0,0.0,0.0,0.0,0.0,0.0,0.0,0.0,0.0,0.0,0.0,0.0,0.0,0.0,0.0,0.0,0.0,0.0,0.0,0.0,0.0,0.0,0.0,0.0,0.0,0.0,0.0,0.0,0.0,0.0,0.0,0.0,0.0,0.0,0.0,0.0,0.0,0.0,0.0,0.0,0.0,0.0,0.0,0.0,0.0,0.0,0.0,0.0,0.0,0.0,0.0,-4.2476,-4.4103,-4.657,-4.735,-4.8098,-4.876,-4.8809,-4.8588,-4.8252,-4.704,0.0,0.0,0.0,0.0,0.0,0.0,0.0,0.0,0.0,0.0,0.0,0.0,0.0,0.0,0.0,0.0,0.0,0.0,0.0,0.0,0.0,0.0,0.0,0.0,0.0,0.0,0.0,0.0,0.0,0.0,0.0,0.0,0.0,0.0,0.0,0.0,0.0,0.0,0.0,0.0,0.0,0.0,0.0,0.0,0.0,0.0,0.0,0.0,0.0,0.0,0.0,0.0,0.0,0.0,0.0,0.0,0.0,0.0,0.0,0.0,0.0,0.0,0.0,0.0,0.0,0.0,0.0,0.0,0.0,0.0,0.0,0.0,0.0,0.0,0.0,0.0,0.0,0.0,0.0,0.0,0.0,0.0,0.0,0.0,0.0,0.0,0.0,0.0,0.0,0.0,0.0,0.0,0.0,0.0,0.0,0.0,0.0,0.0,0.0,0.0,0.0,0.0,-4.5071,-4.6358,-4.824,-4.9003,-4.9735,-5.0606,-5.0367,-5.0101,-5.0049,-4.9487,0.0,0.0,0.0,0.0,0.0,0.0,0.0,0.0,0.0,0.0,0.0,0.0,0.0,0.0,0.0,0.0,0.0,0.0,0.0,0.0,0.0,0.0,0.0,0.0,0.0,0.0,0.0,0.0,0.0,0.0,0.0,0.0,0.0,0.0,0.0,0.0,0.0,0.0,0.0,0.0,0.0,0.0,0.0,0.0,0.0,0.0,0.0,0.0,0.0,0.0,0.0,0.0,0.0,0.0,0.0,0.0,0.0,0.0,0.0,0.0,0.0,0.0,0.0,0.0,0.0,0.0,0.0,0.0,0.0,0.0,0.0,0.0,0.0,0.0,0.0,0.0,0.0,0.0,0.0,0.0,0.0,0.0,0.0,0.0,0.0,0.0,0.0,0.0,0.0,0.0,0.0,0.0,0.0,0.0,0.0,0.0,0.0,0.0,0.0,0.0,0.0,0.0,-4.7233,-4.873,-4.9883,-5.1432,-5.2108,-5.1332,-5.2617,-5.2666,-5.072,-5.087,0.0,0.0,0.0,0.0,0.0,0.0,0.0,0.0,0.0,0.0,0.0,0.0,0.0,0.0,0.0,0.0,0.0,0.0,0.0,0.0,0.0,0.0,0.0,0.0,0.0,0.0,0.0,0.0,0.0,0.0,0.0,0.0,0.0,0.0,0.0,0.0,0.0,0.0,0.0,0.0,0.0,0.0,0.0,0.0,0.0,0.0,0.0,0.0,0.0,0.0,0.0,0.0,0.0,0.0,0.0,0.0,0.0,0.0,0.0,0.0,0.0,0.0,0.0,0.0,0.0,0.0,0.0,0.0,0.0,0.0,0.0,0.0,0.0,0.0,0.0,0.0,0.0,0.0,0.0,0.0,0.0,0.0,0.0,0.0,0.0,0.0,0.0,0.0,0.0,0.0,0.0,0.0,0.0,0.0,0.0,0.0,0.0,0.0,0.0,0.0,0.0,0.0,-4.8681,-5.0317,0.0,-5.2528,-5.3253,-5.3448,-5.3708,-5.3493,-5.2735,0.0,0.0,0.0,0.0,0.0,0.0,0.0,0.0,0.0,0.0,0.0,0.0,0.0,0.0,0.0,0.0,0.0,0.0,0.0,0.0,0.0,0.0,0.0,0.0,0.0,0.0,0.0,0.0,0.0,0.0,0.0,0.0,0.0,0.0,0.0,0.0,0.0,0.0,0.0,0.0,0.0,0.0,0.0,0.0,0.0,0.0,0.0,0.0,0.0,0.0,0.0,0.0,0.0,0.0,0.0,0.0,0.0,0.0,0.0,0.0,0.0,0.0,0.0,0.0,0.0,0.0,0.0,0.0,0.0,0.0,0.0,0.0,0.0,0.0,0.0,0.0,0.0,0.0,0.0,0.0,0.0,0.0,0.0,0.0,0.0,0.0,0.0,0.0,0.0,0.0,0.0,0.0,0.0,0.0,0.0,0.0,0.0,0.0,0.0,0.0,0.0,0.0,-4.8843,-5.0572,-5.2163,0.0,-5.4461,-5.5302,-5.5738,-5.5569,-5.5283,-5.4909,0.0,0.0,0.0,0.0,0.0,0.0,0.0,0.0,0.0,0.0,0.0,0.0,0.0,0.0,0.0,0.0,0.0,0.0,0.0,0.0,0.0,0.0,0.0,0.0,0.0,0.0,0.0,0.0,0.0,0.0,0.0,0.0,0.0,0.0,0.0,0.0,0.0,0.0,0.0,0.0,0.0,0.0,0.0,0.0,0.0,0.0,0.0,0.0,0.0,0.0,0.0,0.0,0.0,0.0,0.0,0.0,0.0,0.0,0.0,0.0,0.0,0.0,0.0,0.0,0.0,0.0,0.0,0.0,0.0,0.0,0.0,0.0,0.0,0.0,0.0,0.0,0.0,0.0,0.0,0.0,0.0,0.0,0.0,0.0,0.0,0.0,0.0,0.0,0.0,0.0,0.0,0.0,0.0,0.0,0.0,0.0,0.0,0.0,0.0,0.0,0.0,0.0,-5.1649,-5.2949,-5.4296,-5.6065,-5.7643,-5.8353,-5.7871,-5.8502,-5.8345,0.0,0.0,0.0,0.0,0.0,0.0,0.0,0.0,0.0,0.0,0.0,0.0,0.0,0.0,0.0,0.0,0.0,0.0,0.0,0.0,0.0,0.0,0.0,0.0,0.0,0.0,0.0,0.0,0.0,0.0,0.0,0.0,0.0,0.0,0.0,0.0,0.0,0.0,0.0,0.0,0.0,0.0,0.0,0.0,0.0,0.0,0.0,0.0,0.0,0.0,0.0,0.0,0.0,0.0,0.0,0.0,0.0,0.0,0.0,0.0,0.0,0.0,0.0,0.0,0.0,0.0,0.0,0.0,0.0,0.0,0.0,0.0,0.0,0.0,0.0,0.0,0.0,0.0,0.0,0.0,0.0,0.0,0.0,0.0,0.0,0.0,0.0,0.0,0.0,0.0,0.0,0.0,0.0,0.0,0.0,0.0,0.0,0.0,0.0,0.0,0.0,0.0,0.0,-5.2948,-5.4911,-5.669,-5.8069,-5.9323,-6.0188,-6.0416,-6.0496,-6.0136,-5.9212,0.0,0.0,0.0,0.0,0.0,0.0,0.0,0.0,0.0,0.0,0.0,0.0,0.0,0.0,0.0,0.0,0.0,0.0,0.0,0.0,0.0,0.0,0.0,0.0,0.0,0.0,0.0,0.0,0.0,0.0,0.0,0.0,0.0,0.0,0.0,0.0,0.0,0.0,0.0,0.0,0.0,0.0,0.0,0.0,0.0,0.0,0.0,0.0,0.0,0.0,0.0,0.0,0.0,0.0,0.0,0.0,0.0,0.0,0.0,0.0,0.0,0.0,0.0,0.0,0.0,0.0,0.0,0.0,0.0,0.0,0.0,0.0,0.0,0.0,0.0,0.0,0.0,0.0,0.0,0.0,0.0,0.0,0.0,0.0,0.0,0.0,0.0,0.0,0.0,0.0,0.0,0.0,0.0,0.0,0.0,0.0,0.0,0.0,0.0,0.0,0.0,0.0,-5.5446,-5.7323,-5.9018,-6.0422,-6.1786,-6.2605,-6.2729,-6.2954,-6.264,-6.1632,0.0,0.0,0.0,0.0,0.0,0.0,0.0,0.0,0.0,0.0,0.0,0.0,0.0,0.0,0.0,0.0,0.0,0.0,0.0,0.0,0.0,0.0,0.0,0.0,0.0,0.0,0.0,0.0,0.0,0.0,0.0,0.0,0.0,0.0,0.0,0.0,0.0,0.0,0.0,0.0,0.0,0.0,0.0,0.0,0.0,0.0,0.0,0.0,0.0,0.0,0.0,0.0,0.0,0.0,0.0,0.0,0.0,0.0,0.0,0.0,0.0,0.0,0.0,0.0,0.0,0.0,0.0,0.0,0.0,0.0,0.0,0.0,0.0,0.0,0.0,0.0,0.0,0.0,0.0,0.0,0.0,0.0,0.0,0.0,0.0,0.0,0.0,0.0,0.0,0.0,0.0,0.0,0.0,0.0,0.0,0.0,0.0,0.0,0.0,0.0,0.0,0.0,-5.8704,-5.9973,-6.127,-6.2954,-6.4672,-6.5453,-6.4974,-6.5735,-6.5651,-6.44,0.0,0.0,0.0,0.0,0.0,0.0,0.0,0.0,0.0,0.0,0.0,0.0,0.0,0.0,0.0,0.0,0.0,0.0,0.0,0.0,0.0,0.0,0.0,0.0,0.0,0.0,0.0,0.0,0.0,0.0,0.0,0.0,0.0,0.0,0.0,0.0,0.0,0.0,0.0,0.0,0.0,0.0,0.0,0.0,0.0,0.0,0.0,0.0,0.0,0.0,0.0,0.0,0.0,0.0,0.0,0.0,0.0,0.0,0.0,0.0,-4.0629,0.0,0.0,0.0,0.0,0.0,0.0,0.0,0.0,0.0,0.0,0.0,0.0,0.0,0.0,0.0,0.0,0.0,0.0,0.0,0.0,0.0,0.0,0.0,0.0,0.0,0.0,0.0,0.0,0.0,0.0,0.0,0.0,0.0,0.0,0.0,0.0,0.0,0.0,0.0,0.0,0.0,-6.049,-6.2328,-6.398,-6.5665,-6.6992,-6.786,-6.8192,-6.8296,-6.8002,-6.7168,-6.616,0.0,0.0,0.0,0.0,0.0,0.0,0.0,0.0,0.0,0.0,0.0,0.0,0.0,0.0,0.0,0.0,0.0,0.0,0.0,0.0,0.0,0.0,0.0,0.0,0.0,0.0,0.0,0.0,0.0,0.0,0.0,0.0,0.0,0.0,0.0,0.0,0.0,0.0,0.0,0.0,0.0,0.0,0.0,0.0,0.0,0.0,0.0,0.0,0.0,0.0,0.0,0.0,0.0,0.0,0.0,0.0,0.0,0.0,0.0,0.0,-4.4394,0.0,0.0,0.0,0.0,0.0,0.0,0.0,0.0,0.0,0.0,0.0,0.0,0.0,0.0,0.0,0.0,0.0,0.0,0.0,0.0,0.0,0.0,0.0,0.0,0.0,0.0,0.0,0.0,0.0,0.0,0.0,0.0,0.0,0.0,0.0,0.0,0.0,0.0,0.0,0.0,-6.2999,-6.4735,-6.6321,-6.8021,-6.9231,-7.003,-7.0339,-7.0663,-7.0527,-6.9627,-6.8731,0.0,0.0,0.0,0.0,0.0,0.0,0.0,0.0,0.0,0.0,0.0,0.0,0.0,0.0,0.0,0.0,0.0,0.0,0.0,0.0,0.0,0.0,0.0,0.0,0.0,0.0,0.0,0.0,0.0,0.0,0.0,0.0,0.0,0.0,0.0,0.0,0.0,0.0,0.0,0.0,0.0,0.0,0.0,0.0,0.0,0.0,0.0,0.0,0.0,0.0,0.0,0.0,0.0,0.0,-4.3055,-4.5634,-4.7661,-4.9316,-5.0505,-4.9255,-4.8618,-4.8489,0.0,0.0,0.0,0.0,0.0,0.0,0.0,0.0,0.0,0.0,0.0,0.0,0.0,0.0,0.0,0.0,0.0,0.0,0.0,0.0,0.0,0.0,0.0,0.0,0.0,-5.9896,-6.02,0.0,0.0,0.0,0.0,0.0,0.0,0.0,0.0,0.0,0.0,0.0,0.0,-6.558,-6.7108,-6.8572,-7.0101,-7.1293,-7.2056,-7.2144,-7.2822,-7.2871,-7.1878,-7.1005,-6.9965,0.0,0.0,0.0,0.0,0.0,0.0,0.0,0.0,0.0,0.0,0.0,0.0,0.0,0.0,0.0,0.0,0.0,0.0,0.0,0.0,0.0,0.0,0.0,0.0,0.0,0.0,0.0,0.0,0.0,0.0,0.0,0.0,-1.7885,-1.814,0.0,0.0,0.0,0.0,0.0,0.0,0.0,0.0,0.0,0.0,0.0,0.0,0.0,0.0,-3.3526,-3.6704,-3.9467,-4.1601,-4.3696,-4.6437,-4.9719,-5.0817,-5.2527,-5.4642,-5.5292,0.0,-5.1642,-5.2575,0.0,0.0,0.0,0.0,0.0,0.0,0.0,0.0,0.0,0.0,0.0,0.0,0.0,0.0,0.0,0.0,0.0,0.0,0.0,0.0,0.0,0.0,-6.1214,-6.2588,-6.3192,-6.3516,0.0,-6.2173,-6.058,-6.0616,-6.0616,0.0,0.0,0.0,0.0,0.0,0.0,0.0,-6.7488,-6.9495,-7.1165,-7.1896,-7.3019,-7.385,-7.4296,-7.4384,-7.4323,-7.3984,-7.3349,-7.2416,-7.1122,-6.9384,0.0,0.0,0.0,0.0,0.0,0.0,0.0,0.0,0.0,0.0,0.0,0.0,0.0,0.0,0.0,0.0,0.0,0.0,0.0,0.0,0.0,0.0,0.0,0.0,0.0,0.0,0.0,0.0,0.0,-1.93,-1.9628,-2.0126,-2.0327,-2.0638,0.0,0.0,0.0,0.0,0.0,0.0,0.0,0.0,0.0,-3.0695,-3.3431,-3.5485,-3.6742,-3.9722,-4.2274,-4.4392,-4.6744,-4.9401,-5.2226,-5.3468,-5.5239,-5.7472,-5.8265,-5.7939,-5.6995,-5.6734,-5.6915,-5.7439,0.0,0.0,0.0,0.0,0.0,-5.6954,-5.7354,-5.7369,0.0,0.0,0.0,0.0,0.0,0.0,0.0,0.0,0.0,0.0,0.0,0.0,0.0,-6.5065,-6.5725,-6.616,-6.6632,-6.6055,-6.516,0.0,-6.358,-6.358,-6.358,0.0,0.0,0.0,0.0,-6.8612,-6.9762,-7.133,-7.2716,-7.3656,-7.4205,-7.4804,-7.5661,-7.5639,-7.5552,-7.5423,-7.4738,-7.3667,-7.2044,-7.0904,-6.9018,0.0,0.0,0.0,0.0,0.0,0.0,0.0,0.0,0.0,0.0,0.0,0.0,0.0,0.0,0.0,0.0,0.0,0.0,0.0,0.0,0.0,0.0,0.0,0.0,0.0,0.0,0.0,0.0,-2.0924,-2.1549,-2.2145,-2.256,-2.2987,0.0,0.0,0.0,0.0,0.0,0.0,-2.9164,-3.123,-3.284,-3.3846,-3.6318,-3.8361,-3.9846,-4.2494,-4.4869,-4.6925,-4.943,-5.19,-5.4277,-5.5934,-5.7752,-5.9507,-6.0403,-6.1204,-6.1723,-6.0395,-6.0297,-6.108,-6.0839,-6.0988,-6.1248,-6.0924,-6.0812,-6.0903,-6.0882,-6.0794,-6.0661,-6.0661,0.0,-6.0375,-6.0375,0.0,0.0,0.0,0.0,-6.3143,-6.4652,-6.5678,-6.643,-6.7189,-6.7771,-6.8261,-6.8616,-6.9108,-6.8847,0.0,-6.6259,-6.6259,-6.6259,0.0,0.0,0.0,0.0,-7.0886,-7.1722,-7.2846,-7.3918,-7.4807,-7.5042,-7.555,-7.6608,-7.6598,-7.6539,-7.654,-7.5887,-7.4757,-7.3102,-7.2179,-7.0475,-6.7666,0.0,0.0,0.0,0.0,0.0,0.0,0.0,0.0,0.0,0.0,0.0,0.0,0.0,0.0,0.0,0.0,0.0,0.0,0.0,0.0,0.0,0.0,0.0,0.0,0.0,0.0,0.0,0.0,0.0,-2.3745,-2.4412,0.0,0.0,0.0,0.0,-2.7952,-2.9053,-3.0187,-3.1487,-3.3565,-3.5356,-3.6735,-3.8966,-4.0951,-4.2686,-4.4977,-4.7162,-4.9265,-5.1428,-5.3719,-5.6144,-5.8255,-5.9751,-6.0782,-6.2492,-6.3792,-6.456,-6.2753,-6.2316,-6.2809,-6.361,-6.4175,-6.4544,-6.4106,-6.4055,-6.4205,-6.3809,-6.3837,-6.4039,-6.4039,-6.4039,-6.4039,-6.4039,-6.4039,0.0,0.0,-6.5423,-6.6033,-6.6842,-6.7662,-6.8466,-6.9145,-6.9469,-6.9736,-7.0337,-7.0886,-7.0755,0.0,-6.8664,-6.8664,-6.8664,0.0,-7.0389,-7.0415,-7.1853,-7.2951,-7.3029,-7.4075,-7.4833,-7.4885,-7.5355,-7.6061,-7.7114,-7.7178,-7.727,-7.7627,-7.7091,-7.6195,-7.4947,-7.3237,-7.1582,-7.0066,-6.7853,0.0,0.0,0.0,0.0,0.0,0.0,0.0,0.0,0.0,0.0,0.0,0.0,0.0,0.0,0.0,0.0,0.0,0.0,0.0,0.0,0.0,0.0,0.0,0.0,0.0,0.0,0.0,0.0,-2.5691,-2.6222,0.0,0.0,-2.8163,-2.8956,-3.0296,-3.1532,-3.2564,-3.3538,-3.5654,-3.7266,-3.8173,-4.0761,-4.288,-4.4511,-4.7007,-4.9351,-5.1505,-5.3813,-5.6066,-5.8335,-5.9697,-6.1476,-6.3488,-6.4072,-6.5399,-6.7028,-6.6707,-6.6695,-6.6696,-6.699,-6.7613,-6.8265,-6.7904,-6.7797,-6.7773,-6.711,-6.695,-6.6992,-6.6692,-6.6617,-6.6617,-6.6617,-6.6617,-6.6752,-6.7322,-6.7946,-6.8628,-6.9715,-6.9991,-7.0222,-7.0854,-7.1189,-7.1435,-7.1644,-7.2428,-7.2898,-7.2297,-7.1565,-7.1069,-7.1069,-7.1696,-7.2219,-7.2219,-7.3683,-7.478,-7.478,-7.5826,-7.6558,-7.6558,-7.6401,-7.6639,-7.7646,-7.7417,-7.7297,-7.7681,-7.7172,-7.6277,-7.5055,-7.38,-7.2196,-7.028,-6.9075,-6.7368,0.0,0.0,0.0,0.0,0.0,0.0,0.0,0.0,0.0,0.0,0.0,0.0,0.0,0.0,0.0,0.0,0.0,0.0,0.0,0.0,0.0,0.0,0.0,0.0,0.0,0.0,-2.6711,-2.7691,-2.829,-2.9034,-2.9922,-3.0411,-3.1094,-3.2197,-3.3407,-3.4428,-3.5188,-3.7178,-3.8866,-4.0053,-4.2329,-4.4546,-4.6612,-4.9102,-5.1381,-5.3438,-5.6053,-5.8201,-5.9913,-6.1476,-6.3242,-6.5132,-6.5956,-6.7221,-6.8752,-6.9611,-7.006,-7.024,-6.9895,-7.0212,-7.0876,-7.0472,-7.0322,-7.0274,-6.9659,-6.9406,-6.9384,-6.9187,-6.9113,-6.9113,-6.9113,-6.9113,-6.9221,-6.9818,-7.028,-7.085,-7.1664,-7.1847,-7.1937,-7.2186,-7.2573,-7.2813,-7.282,-7.363,-7.431,-7.431,-7.3526,-7.2872,-7.2872,-7.3343,-7.3787,-7.397,-7.5146,-7.6087,-7.627,-7.6976,-7.7473,-7.7473,-7.7133,-7.7164,-7.7965,-7.7684,-7.7591,-7.7979,-7.7471,-7.6684,-7.568,-7.4442,-7.2969,-7.116,-6.9987,-6.8372,-6.6305,0.0,0.0,0.0,0.0,0.0,0.0,0.0,0.0,0.0,0.0,0.0,0.0,0.0,0.0,0.0,0.0,0.0,0.0,0.0,0.0,0.0,0.0,0.0,-2.5951,-2.7755,-2.9231,-2.9565,-3.0577,-3.1497,-3.2226,-3.2287,-3.2712,-3.3617,-3.475,-3.5694,-3.6526,-3.8204,-4.0185,-4.2333,-4.3772,-4.5998,-4.9137,-5.1165,-5.3231,-5.5218,-5.8079,-5.994,-6.1056,-6.3679,-6.5204,-6.5755,-6.8059,-6.9362,-6.9876,-7.1178,-7.2302,-7.3086,-7.2113,-7.1938,-7.2271,-7.1917,-7.1764,-7.1694,-7.1419,-7.1295,-7.1326,-7.1499,-7.1528,-7.1528,-7.1528,-7.1528,-7.1664,-7.2233,-7.2396,-7.2477,-7.2632,-7.3084,-7.3506,-7.3123,-7.3444,-7.3874,-7.4007,-7.4519,-7.4937,-7.4937,-7.4467,-7.4075,-7.4075,-7.4571,-7.5146,-7.5669,-7.627,0.0,-7.742,-7.7499,-7.7525,-7.7525,-7.7499,-7.7611,-7.8019,-7.803,-7.8154,-7.8548,-7.804,-7.7471,-7.6874,-7.5332,-7.3876,-7.2808,-7.0448,-6.8654,-6.7638,0.0,0.0,0.0,0.0,0.0,0.0,0.0,0.0,0.0,0.0,0.0,0.0,0.0,0.0,0.0,0.0,0.0,0.0,0.0,0.0,0.0,0.0,-2.8542,-2.8257,-2.9176,-3.0302,-3.1394,-3.2031,-3.2851,-3.3855,-3.4438,-3.4956,-3.5513,-3.6541,-3.7295,-3.7799,-3.9652,-4.1312,-4.2736,-4.5365,-4.7808,-5.0102,-5.2653,-5.5229,-5.7777,-5.9573,-6.16,-6.3832,-6.4874,-6.6502,-6.8586,-6.9253,-7.0537,-7.2231,-7.3352,-7.4261,-7.4847,-7.376,-7.3711,-7.4238,-7.4558,-7.4461,-7.4222,-7.415,-7.3724,-7.3185,-7.3186,-7.3022,-7.2803,-7.2803,-7.2803,-7.283,-7.2993,-7.3346,-7.3726,-7.3722,-7.4253,-7.4606,-7.4187,-7.4633,-7.498,-7.4714,-7.5094,-7.5486,-7.5486,-7.5721,-7.5748,-7.5329,-7.5748,-7.6192,-7.6349,-7.7211,0.0,-7.8074,-7.844,-7.8701,-7.8701,-7.8335,-7.8215,-7.8657,-7.8296,-7.8154,-7.8548,-7.804,-7.766,-7.7471,-7.5954,-7.4286,-7.2498,-7.1748,-7.0871,0.0,0.0,0.0,0.0,0.0,0.0,0.0,0.0,0.0,0.0,0.0,0.0,0.0,0.0,0.0,0.0,0.0,0.0,0.0,0.0,0.0,0.0,-2.9995,-3.0936,-3.0944,-3.1294,-3.2065,-3.3387,-3.3875,-3.4425,-3.5264,-3.5709,-3.6131,-3.6655,-3.736,-3.8167,-3.9065,-4.0659,-4.2449,-4.4337,-4.6975,-4.9537,-5.1981,-5.4744,-5.7425,-6.0043,-6.1705,-6.3657,-6.5805,-6.6985,-6.849,0.0,-7.155,-7.2772,-7.4076,-7.5214,-7.5938,0.0,0.0,0.0,0.0,0.0,-7.5736,-7.5495,-7.5585,-7.5429,-7.5186,-7.5047,-7.5071,-7.4983,-7.4543,-7.4377,-7.435,-7.4079,-7.4459,-7.4893,-7.4893,-7.5427,-7.5752,-7.5294,-7.5526,-7.583,-7.5695,-7.5878,-7.6166,-7.6401,0.0,0.0,-7.6505,-7.6741,-7.7054,-7.729,-7.7891,-7.8414,-7.8649,-7.8962,-7.9172,-7.9172,-7.9049,-7.9103,-7.9269,-7.896,0.0,0.0,0.0,-7.7898,-7.7451,-7.6093,0.0,0.0,0.0,-7.2581,0.0,0.0,0.0,0.0,-6.7719,-6.7317,0.0,0.0,0.0,0.0,0.0,0.0,0.0,0.0,0.0,0.0,0.0,0.0,0.0,0.0,0.0,0.0,-3.1927,-3.3296,-3.3847,-3.3965,-3.4314,-3.5228,-3.5715,-3.6127,-3.6514,-3.6619,-3.6985,-3.7567,-3.7996,-3.8938,-4.0563,0.0,0.0,0.0,0.0,-5.1339,-5.4389,-5.7187,-5.9681,-6.1992,-6.416,-6.6015,-6.7485,-6.9556,-7.0871,-7.1552,-7.4174,-7.5412,-7.5612,-7.6813,-7.7385,-7.742,-7.6883,-7.6725,-7.6731,-7.6417,-7.6285,0.0,0.0,0.0,0.0,-7.6976,-7.7158,-7.7315,-7.634,-7.6005,-7.5897,-7.5354,-7.5598,-7.6005,-7.6005,-7.6467,-7.6802,-7.6432,-7.6378,-7.6508,-7.656,-7.6662,-7.6871,-7.7368,-7.7525,-7.7551,-7.7551,-7.7551,-7.7734,-7.8231,-7.8387,0.0,-7.9093,-7.9172,-7.9172,-7.9172,0.0,0.0,-7.9775,-7.9771,-7.9612,-7.9533,-7.8936,-7.8189,-7.7117,-7.6165,-7.5313,-7.479,-7.4422,-7.4025,-7.3548,-7.3626,-7.347,-7.299,-7.1692,-7.1064,0.0,0.0,0.0,0.0,0.0,0.0,0.0,0.0,0.0,0.0,0.0,0.0,0.0,0.0,0.0,-3.3001,-3.3769,-3.4725,-3.6152,-3.6638,-3.6694,-3.6259,-3.6841,-3.7514,-3.7881,-3.8792,-3.9406,-3.9542,-4.0397,-4.1505,-4.2884,-4.4386,0.0,-4.9039,-5.0925,-5.3388,-5.6556,-5.8929,-6.138,-6.3938,0.0,0.0,-6.9798,-7.1012,-7.2602,-7.4459,-7.5021,-7.5898,-7.6792,-7.7957,-7.9034,-7.976,-7.8357,-7.8061,-7.8546,-7.8601,-7.8608,-7.8721,-7.8901,-7.8765,-7.8541,-7.8484,-7.8028,-7.7483,-7.7288,-7.6916,0.0,-7.6521,-7.6575,-7.6656,-7.6656,-7.7091,-7.7316,-7.6539,-7.6991,-7.749,-7.6743,-7.6976,-7.7342,-7.7446,-7.7839,-7.8152,-7.8152,-7.8152,-7.8178,-7.8309,-7.8701,-7.9041,-7.9145,-7.9172,-7.9172,-7.9172,-7.9624,-7.9861,-7.9775,-7.9771,-7.9612,-7.9533,-7.8936,-7.8378,-7.7735,-7.7181,-7.6349,-7.5423,-7.5419,-7.529,-7.5199,-7.5694,-7.5929,-7.5784,-7.3417,-7.2308,0.0,0.0,0.0,0.0,0.0,0.0,0.0,0.0,0.0,0.0,0.0,-3.1957,0.0,0.0,-3.3372,-3.4445,-3.5217,-3.6204,-3.7431,-3.8129,-3.8295,-3.7703,-3.8362,-3.9005,-3.9164,-4.0056,-4.0836,-4.1276,-4.2117,-4.3354,-4.5051,-4.6559,-4.8475,-5.1048,-5.3312,-5.5823,-5.8541,-6.1203,-6.3777,-6.6304,-6.827,-7.0023,-7.1634,-7.3168,-7.4486,-7.5688,-7.679,-7.7616,-7.8278,-7.9465,-8.0499,-8.1308,-8.0191,-7.9839,-7.991,-7.9814,-7.9763,-7.9737,-7.9632,-7.9689,-7.9604,-7.9151,-7.8859,-7.862,-7.7798,-7.7455,-7.7226,-7.6901,-7.7063,-7.7281,-7.7281,-7.7715,-7.7965,-7.7278,-7.7604,-7.7915,-7.7529,-7.7682,-7.7969,-7.8257,-7.8544,-7.8753,-7.8753,-7.8753,-7.8753,-7.8753,-7.8989,-7.9172,-7.9172,-7.9172,-7.9267,-7.9528,-8.0005,-8.0372,-8.0549,-8.0544,-8.0345,-7.9994,-7.9668,-7.9443,-7.9146,-7.8694,-7.8196,-7.763,-7.7165,-7.6954,-7.6954,-7.6991,-7.7028,-7.7028,-7.5677,-7.4766,0.0,0.0,0.0,0.0,0.0,0.0,0.0,0.0,-3.333,-3.3253,-3.3437,-3.3821,-3.4286,-3.4615,-3.4997,-3.558,-3.6609,-3.7579,-3.8345,-3.921,-3.966,-3.9286,-3.9914,-4.0399,-4.0425,-4.1233,-4.2062,-4.2936,-4.387,-4.5302,-4.742,-4.8815,-5.0811,-5.3412,-5.6008,-5.8466,-6.0837,-6.3641,-6.6203,-6.8484,-7.0194,-7.1803,-7.3387,-7.5211,-7.628,-7.6674,-7.8746,-7.9743,-7.9946,-8.1027,-8.173,-8.2222,-8.1849,-8.1578,-8.1249,-8.0609,-8.0358,-8.0303,-8.0054,-8.0251,-8.056,-7.9704,-7.9691,-7.9734,-7.8392,-7.7965,-7.7796,-7.7308,-7.7525,-7.7878,-7.7878,-7.8169,-7.8389,-7.8079,-7.8019,-7.8141,-7.8289,-7.8414,-7.8623,-7.9093,-7.9172,-7.9172,-7.9172,-7.9172,-7.9172,-7.9172,-7.9172,-7.9172,-7.9172,-7.9267,-7.9433,-7.9909,-8.0479,-8.0991,-8.1351,-8.1291,-8.1052,-8.0455,-8.0428,-8.0428,-8.0428,-7.9946,-7.9645,-7.9645,-7.8817,-7.8433,-7.8539,-7.8099,-7.7911,-7.7817,-7.7817,-7.7148,-3.6302,-3.5532,-3.504,-3.5363,-3.5188,-3.5053,0.0,0.0,-3.5252,-3.5603,-3.5476,-3.5556,-3.6348,-3.6257,-3.6333,-3.7133,-3.7999,-3.8699,-3.916,-4.0298,-4.1055,-4.1007,-4.1098,-4.1331,-4.164,-4.2849,-4.3925,-4.4671,-4.6195,-4.8006,-5.0241,-5.1922,-5.4205,-5.7274,-5.8993,-6.1212,-6.384,-6.6173,-6.8028,-6.9551,-7.2085,-7.388,-7.5049,-7.6148,-7.753,-7.8968,-8.041,-8.131,-8.192,-8.2239,-8.2421,-8.2454,-8.2614,-8.2675,-8.2422,-8.1404,-8.1009,-8.101,-8.1152,-8.1235,-8.1205,-8.0689,-8.0284,-7.9904,-7.9323,-7.8856,-7.8502,-7.842,-7.8447,-7.8502,-7.8502,-7.82,-7.7968,-7.7988,-7.8062,-7.818,-7.8273,-7.8727,-7.9093,-7.9172,-7.9172,-7.9172,-7.9172,-7.9172,-7.9172,-7.9172,-7.9172,-7.9172,-7.9172,-7.9528,-7.9814,-7.9909,-8.0762,-8.1297,-8.134,-8.1351,-8.1052,-8.0455,-8.0428,-8.0428,-8.0428,-7.9946,-7.9645,-7.9645,-7.9212,-7.911,-7.9615,-7.9522,-7.9361,-7.8892,-7.8892,-7.8361,-3.7555,-3.7237,0.0,0.0,-3.6706,-3.6499,-3.6708,-3.6498,-3.6287,-3.6473,-3.6387,-3.655,-3.7467,-3.748,-3.7682,0.0,-3.9119,-3.9715,-4.0383,-4.1156,-4.1913,-4.2631,-4.2966,-4.3145,-4.3049,-4.4324,-4.5746,-4.725,-4.878,-5.0717,-5.3052,-5.4766,-5.6892,-5.9581,-6.1391,-6.3626,-6.6302,-6.802,-6.9687,-7.1325,-7.3288,-7.478,-7.5898,-7.7288,-7.8673,-8.0101,-8.0968,-8.1556,-8.1944,-8.2037,-8.2298,-8.2671,-8.2424,-8.2369,-8.2312,-8.1887,-8.1689,-8.1633,-8.149,-8.1232,-8.0973,-8.0426,-7.9991,-7.9466,-7.9053,-7.8788,-7.8521,-7.8254,-7.8165,-7.8165,-7.7807,-7.7655,-7.7518,-7.7532,-7.7692,-7.7744,-7.8221,-7.8518,-7.8779,-7.9093,-7.9172,-7.9172,-7.9172,-7.9172,-7.9172,-7.9172,-7.9172,-7.9267,-7.9528,-7.9814,-8.01,-8.0762,-8.1419,-8.1898,-8.1839,-8.1812,-8.1731,-8.1459,-8.1459,-8.1459,-8.1459,-8.1248,-8.1156,-8.1156,-8.0693,-8.0522,-8.0763,-8.0509,-8.0227,-8.0039,-7.9756,-7.934,-3.8501,0.0,0.0,-3.8358,-3.8125,-3.7866,-3.7992,-3.7793,-3.755,-3.755,-3.755,-3.7757,-3.844,-3.8564,-3.8812,-3.9571,-4.009,-4.0658,-4.1391,-4.2111,-4.2948,-4.383,-4.4581,-4.4987,-4.4946,-4.602,-4.7465,-4.932,-5.1104,-5.3143,-5.5443,-5.7414,-5.9502,-6.1806,-6.3861,-6.5958,-6.8221,-6.9762,-7.129,-7.2902,-7.4268,-7.5441,-7.6579,-7.8229,-7.9673,-8.0737,-8.134,-8.1725,-8.2077,-8.191,-8.2195,-8.2538,-8.2086,-8.1831,-8.1745,-8.1745,-8.1745,-8.166,-8.1317,-8.0859,-8.0426,-7.9991,-7.9554,-7.9202,-7.861,-7.8432,-7.8343,-7.7807,-7.7718,-7.7655,-7.7294,-7.7114,-7.7066,-7.7283,-7.7231,-7.7336,-7.7959,-7.8074,-7.8257,-7.8832,-7.8936,-7.8989,-7.9145,-7.9172,-7.9172,-7.9172,-7.9041,-7.9127,-7.9577,-7.9729,-8.0188,-8.1028,-8.1654,-8.1948,-8.1948,-8.2083,-8.2192,-8.2192,-8.2192,-8.2192,-8.2192,-8.2192,-8.2192,-8.2192,-8.1793,-8.1606,-8.1606,-8.1232,-8.1044,-8.0856,-8.0384,-8.0005,-3.8775,0.0,-3.8884,-3.9406,-3.9347,-3.9229,-3.9696,-3.96,-3.9385,-3.9385,-3.9385,-3.9406,-3.9495,-3.9426,-3.9585,-4.0019,-4.0721,-4.1433,-4.1848,-4.3368,-4.4454,-4.4476,-4.5518,-4.6557,0.0,-4.8033,-4.8936,-5.0506,-5.2862,-5.5154,-5.7205,-5.97,-6.2079,-6.4229,-6.6583,-6.8393,-6.9606,-7.1492,-7.2951,-7.3985,-7.4967,-7.6164,-7.7411,-7.9064,-8.0249,-8.0877,-8.1506,-8.2163,-8.2763,-8.2227,-8.2086,-8.2086,-8.1575,-8.1146,-8.0686,-8.0686,-8.0686,-8.0686,-8.0686,-8.0426,-7.9904,-7.9466,-7.929,-7.9114,-7.8165,-7.7897,-7.7807,-7.7385,-7.7204,-7.7204,-7.7204,-7.6842,-7.6702,-7.7191,-7.6954,-7.6767,-7.7368,-7.7499,-7.7656,-7.8231,-7.8335,-7.8518,-7.9067,-7.9172,-7.9172,-7.9172,-7.8701,-7.8525,-7.8971,-7.9428,-7.9935,-8.0392,-8.0998,-8.1324,-8.1324,-8.1866,-8.2192,-8.2192,-8.2192,-8.2192,-8.2192,-8.2192,-8.2192,-8.2192,-8.2192,-8.2192,-8.2192,-8.2192,-8.1913,-8.1419,-8.0856,-8.0384,-4.0192,0.0,-4.0388,-4.0847,-4.0776,-4.0547,-4.0697,-4.0303,-3.9881,-3.9881,-3.9675,-3.964,-3.9951,-4.0201,-4.0515,-4.0948,-4.1954,-4.2748,-4.3149,-4.4211,-4.5128,-4.5624,-4.6555,0.0,0.0,0.0,0.0,-5.2356,-5.4615,-5.7102,-5.9679,-6.1774,-6.421,-6.7039,-6.8414,-7.0115,-7.2358,-7.3429,-7.4479,-7.5491,-7.67,-7.7708,-7.8714,-7.9946,-8.0741,-8.1118,-8.1744,-8.1972,-8.1831,-8.166,-8.1489,-8.1146,-8.0973,-8.06,-8.0253,-8.0253,-7.9991,-7.9817,-8.0078,-7.9904,-7.9466,-7.9378,-7.9114,-7.8699,-7.8076,-7.7897,-7.7718,-7.6906,-7.6751,-7.6634,-7.627,-7.6088,-7.6049,-7.6232,-7.6101,-7.6166,-7.6767,-7.6898,-7.7054,-7.7629,-7.776,-7.7812,-7.7995,-7.8048,-7.8048,-7.8048,-7.8771,-7.9188,-7.8977,-7.9595,-8.0246,-8.0428,-8.0591,-8.0862,-8.1269,-8.1486,-8.1758,-8.2165,-8.2192,-8.2192,-8.2192,-8.2192,-8.2192,-8.2192,-8.2192,-8.2192,-8.2192,-8.2192,-8.2099,-8.1913,-8.1419,-8.0856,-4.1308,-4.1396,-4.1328,-4.1612,-4.1559,-4.1438,-4.1438,-4.1087,-4.0778,-4.0778,-4.057,-4.0466,-4.0758,-4.1011,-4.1461,-4.2068,-4.2885,-4.3714,-4.4316,-4.5328,-4.6258,-4.6939,-4.8044,-4.9321,0.0,0.0,0.0,-5.4326,-5.6566,-5.9036,-6.1542,-6.3947,-6.6339,-6.8648,-7.0047,-7.1658,-7.378,-7.4585,-7.5555,-7.6614,-7.7509,-7.837,-7.9063,-8.0015,-8.0639,-8.0899,-8.1548,-8.166,-8.1403,-8.1232,-8.0973,-8.0686,-8.0513,-8.0166,-7.9729,-7.9729,-7.9466,-7.9114,-7.9554,-7.9466,-7.9053,-7.9053,-7.8699,-7.8254,-7.7807,-7.7538,-7.7268,-7.6452,-7.6179,-7.6179,-7.5813,-7.5721,-7.5721,-7.5721,-7.5721,-7.5826,-7.6218,-7.6296,-7.6453,-7.7054,-7.7159,-7.7237,-7.742,-7.7473,-7.7394,-7.7185,-7.8287,-7.9042,-7.8643,-7.9252,-7.9777,-7.9777,-7.9967,-8.032,-8.0944,-8.1188,-8.1568,-8.2138,-8.2192,-8.2192,-8.2192,-8.2192,-8.2192,-8.2192,-8.2192,-8.2192,-8.2192,-8.2192,-8.2192,-8.2192,-8.1606,-8.1232,-4.2236,-4.208,-4.1788,-4.1832,-4.1931,-4.2003,-4.2003,-4.1979,-4.2018,-4.2018,-4.2018,-4.2018,0.0,0.0,-4.233,-4.3228,-4.3763,-4.4316,-4.5207,-4.6702,-4.7921,0.0,0.0,0.0,0.0,0.0,0.0,-5.6589,0.0,-6.0875,-6.2672,-6.6061,-6.8351,-6.9247,-7.1422,-7.3063,-7.4069,-7.5186,-7.6277,-7.7468,-7.7686,-7.8059,-7.8678,-7.9324,-7.9942,-8.056,-8.115,-8.1403,-8.1317,-8.0859,-8.06,-8.06,-8.0166,-7.9641,-7.929,-7.929,-7.8965,-7.8699,-7.9053,-7.8965,-7.861,-7.861,-7.8254,-7.7807,-7.7294,-7.6842,-7.6361,-7.5813,-7.5721,-7.5721,-7.5721,-7.5721,-7.5721,-7.5721,-7.5721,-7.5721,-7.5721,-7.5721,-7.5878,-7.6453,-7.6558,-7.6741,-7.729,-7.7368,-7.7185,-7.6636,-7.7362,-7.7977,-7.7977,-7.8309,-7.861,-7.861,-7.9099,-7.9696,-8.0374,-8.0944,-8.1514,-8.2138,-8.2192,-8.2192,-8.2192,-8.2192,-8.2192,-8.2192,-8.2192,-8.2192,-8.2192,-8.2192,-8.2192,-8.2192,-8.17,-8.1419,-4.3085,-4.3107,-4.3128,-4.3507,-4.3432,-4.3244,-4.3244,-4.2844,-4.2441,-4.2441,-4.2229,-4.2018,0.0,0.0,0.0,-4.3698,-4.4882,0.0,-4.6891,-4.8026,0.0,-5.0145,0.0,-5.2671,-5.4695,-5.587,0.0,0.0,-6.1155,-6.258,-6.5113,-6.725,-6.9384,-7.1561,-7.2896,-7.4069,-7.513,-7.6628,-7.7674,-7.8148,-7.8608,-7.9065,-7.9352,-7.997,-8.0588,-8.1178,-8.0976,-8.0859,-8.0859,-8.034,-7.9991,-7.9641,-7.9554,-7.9202,-7.8788,-7.8788,-7.8699,-7.861,-7.8343,-7.8432,-7.8521,-7.8165,-7.7986,-7.7718,-7.6906,-7.6543,-7.6361,-7.5813,-7.5721,-7.5721,-7.5721,-7.5721,-7.5721,-7.5721,-7.5721,-7.5721,-7.5721,-7.5721,-7.5748,-7.5904,-7.593,-7.5983,-7.614,-7.6166,-7.6113,-7.5957,-7.6781,-7.7417,-7.7417,-7.8067,-7.861,-7.861,-7.8746,-7.9261,-8.032,-8.0564,-8.1079,-8.2111,-8.2192,-8.2192,-8.2192,-8.2192,-8.2192,-8.2192,-8.2192,-8.2192,-8.2192,-8.2192,-8.2192,-8.2192,-8.2099,-8.1793,-4.3962,-4.3961,-4.3892,-4.4206,-4.4135,-4.3974,-4.3974,-4.3628,-4.335,-4.335,-4.3141,0.0,-4.3001,0.0,0.0,0.0,0.0,0.0,-4.8039,-4.9334,-5.0597,0.0,-5.3108,0.0,-5.6642,-5.8203,-6.0085,0.0,-6.3015,-6.4363,-6.6779,-6.8831,-7.0876,-7.2829,-7.3863,-7.5014,-7.6362,-7.7326,-7.8087,-7.8403,-7.8752,-7.9208,-7.9577,-8.0026,-8.0557,-8.1059,0.0,-8.034,-8.034,-7.9904,-7.9554,-7.929,-7.9053,-7.8876,-7.861,-7.861,-7.8432,-7.8254,-7.7986,-7.7897,-7.7897,-7.7655,-7.7448,-7.7178,-7.6634,-7.6361,-7.6088,-7.5813,-7.5721,-7.5721,-7.5721,-7.5721,-7.5721,-7.5721,-7.5721,-7.5721,-7.5721,-7.5721,-7.5721,-7.5721,-7.5721,-7.5721,-7.5721,-7.5721,-7.5813,-7.5996,-7.6751,-7.7294,-7.7475,-7.8165,-7.861,-7.861,-7.861,-7.9099,-8.032,-8.0428,-8.0917,-8.2111,-8.2192,-8.2192,-8.2192,-8.2192,-8.2192,-8.2192,-8.2192,-8.2192,-8.2192,-8.2192,-8.2192,-8.2192,-8.2192,-8.2006,-4.48,-4.4663,-4.448,-4.448,-4.4411,-4.4411,-4.4388,-4.4319,-4.4273,-4.4273,0.0,-4.4273,-4.4273,-4.4838,-4.5495,-4.6229,0.0,-4.8231,-4.915,-5.0627,-5.2018,-5.313,-5.5181,-5.7058,-5.8426,-6.0723,-6.2577,-6.37,-6.4819,-6.6281,-6.8127,-7.0649,-7.26,-7.38,-7.4675,-7.5887,-7.7444,-7.7576,-7.7914,-7.8435,-7.8535,-7.8988,-7.9633,-7.9798,-8.0099,-8.06,0.0,0.0,-7.9904,-7.9378,-7.9202,-7.9114,-7.8788,-7.861,-7.861,-7.8521,-7.8254,-7.7897,-7.7718,-7.7475,-7.7114,-7.7114,-7.6842,-7.6452,-7.6452,-7.6088,-7.5721,-7.5721,-7.5721,-7.5721,-7.5721,-7.5721,-7.5721,-7.5721,-7.5721,-7.5721,-7.5721,-7.5721,-7.5721,-7.5721,-7.5721,-7.5721,-7.5721,-7.5721,-7.5905,-7.6452,-7.6933,-7.7385,-7.7807,-7.8343,-7.861,-7.861,-7.861,-7.9071,-8.0211,-8.0374,-8.089,-8.2002,-8.2138,-8.2192,-8.2192,-8.2192,-8.2192,-8.2192,-8.2192,-8.2192,-8.2192,-8.2192,-8.2192,-8.2192,-8.2192,-8.2192,-4.5278,-4.521,-4.5233,-4.5233,-4.4937,-4.4709,-4.4732,-4.4527,0.0,0.0,-4.4273,-4.4273,-4.4273,-4.5549,-4.663,-4.6792,0.0,0.0,0.0,0.0,-5.3154,0.0,0.0,-5.8309,-6.0371,0.0,0.0,0.0,0.0,0.0,-6.962,-7.1861,-7.4051,-7.6128,-7.6349,-7.6823,-7.7689,-7.772,-7.8029,-7.8535,-7.8765,-7.9212,-7.9741,-7.9923,-7.9996,-8.0078,0.0,0.0,-7.9378,-7.8965,-7.8699,-7.8699,-7.861,-7.861,-7.8521,-7.8165,-7.7986,-7.7807,-7.6997,-7.6725,-7.6634,-7.6634,-7.6543,-7.6452,-7.5996,-7.5813,-7.5721,-7.5721,-7.5721,-7.5721,-7.5721,-7.5721,-7.5721,-7.5721,-7.5721,-7.5721,-7.5721,-7.5721,-7.5721,-7.5721,-7.5721,-7.5721,-7.5721,-7.5721,-7.5905,-7.6452,-7.6933,-7.7385,-7.7807,-7.8343,-7.861,-7.861,-7.861,-7.8882,-7.9587,-8.013,-8.0727,-8.1405,-8.1921,-8.2192,-8.2192,-8.2192,-8.2192,-8.2192,-8.2192,-8.2192,-8.2192,-8.2192,-8.2192,-8.2192,-8.2192,-8.2192,-4.5438,-4.5551,-4.5642,-4.5643,-4.5665,-4.5595,-4.5663,0.0,0.0,0.0,-4.5415,-4.5484,-4.576,0.0,0.0,0.0,0.0,0.0,0.0,0.0,0.0,0.0,0.0,0.0,0.0,0.0,0.0,0.0,0.0,0.0,-7.1124,-7.3463,-7.5387,-7.6795,-7.7104,-7.7554,-7.8144,-7.8172,-7.8398,-7.8765,-7.9127,-7.9431,-7.9452,-7.9541,-7.9641,-7.9641,0.0,0.0,-7.8965,-7.8699,-7.861,-7.861,-7.8343,-7.8254,-7.8165,-7.7718,-7.7358,-7.7087,-7.6634,-7.6361,-7.6088,-7.6088,-7.6088,-7.5996,-7.5813,-7.5721,-7.5721,-7.5721,-7.5721,-7.5721,-7.5721,-7.5721,-7.5721,-7.5721,-7.5721,-7.5721,-7.5721,-7.5721,-7.5721,-7.5721,-7.5721,-7.5721,-7.5721,-7.5905,-7.627,-7.6842,-7.7294,-7.7718,-7.8165,-7.8432,-7.861,-7.861,-7.861,-7.8827,-7.9451,-8.0048,-8.0672,-8.1269,-8.1866,-8.2192,-8.2192,-8.2192,-8.2192,-8.2192,-8.2192,-8.2192,-8.2192,-8.2192,-8.2192,-8.2192,-8.2192,-8.2192,-4.5483,-4.5754,-4.6025,-4.5982,-4.6206,-4.6429,-4.6409,-4.6479,0.0,0.0,-4.6664,-4.6876,-4.7275,0.0,-4.8704,0.0,0.0,0.0,0.0,0.0,0.0,0.0,0.0,0.0,0.0,0.0,0.0,0.0,0.0,0.0,0.0,-7.4823,-7.6256,-7.6862,-7.7392,-7.7924,-7.8541,-7.8541,-7.8625,-7.8901,-7.9315,-7.9335,-7.9128,-7.9186,-7.9114,-7.9114,0.0,0.0,0.0,-7.8521,-7.8432,-7.8432,-7.7897,-7.7718,-7.7744,-7.7204,-7.6842,-7.6452,-7.6361,-7.6088,-7.5721,-7.5721,-7.5721,-7.5721,-7.5721,-7.5721,-7.5721,-7.5721,-7.5721,-7.5721,-7.5721,-7.5617,-7.5512,-7.5382,-7.5355,-7.5355,-7.5355,-7.5355,-7.5382,-7.5512,-7.5538,-7.5591,-7.5695,-7.6179,-7.6634,-7.7114,-7.7655,-7.8076,-7.8521,-7.861,-7.861,-7.861,-7.861,-7.88,-7.9261,-7.9858,-8.0428,-8.089,-8.1595,-8.2002,-8.2002,-8.2111,-8.2192,-8.2192,-8.2192,-8.2192,-8.2192,-8.2192,-8.2192,-8.2192,-8.2192,-8.2192,-4.589,-4.6092,-4.6338,-4.6311,-4.6358,-4.6382,-4.6378,0.0,0.0,-4.7111,-4.7487,-4.7885,-4.7956,-4.8937,-4.9736,0.0,0.0,-5.3296,0.0,0.0,0.0,0.0,0.0,0.0,0.0,0.0,0.0,0.0,0.0,0.0,0.0,-7.5406,-7.6069,-7.7175,-7.7258,-7.759,-7.8198,-7.8198,-7.8502,-7.9111,-7.8734,-7.8775,-7.9323,-7.8849,-7.8699,-7.8699,0.0,0.0,0.0,-7.8165,-7.7986,-7.7897,-7.7475,-7.7294,-7.7204,-7.6725,-7.6543,-7.6452,-7.5905,-7.5721,-7.5721,-7.5721,-7.5721,-7.5721,-7.5721,-7.5721,-7.5721,-7.5721,-7.5721,-7.5721,-7.5721,-7.5355,-7.4833,-7.4284,-7.4153,-7.4153,-7.4153,-7.4153,-7.4336,-7.4885,-7.499,-7.5146,-7.5643,-7.6179,-7.6634,-7.7114,-7.7655,-7.8076,-7.8521,-7.861,-7.861,-7.861,-7.861,-7.861,-7.8692,-7.9234,-7.9587,-7.9641,-8.0754,-8.1378,-8.1378,-8.1894,-8.2192,-8.2192,-8.2192,-8.2192,-8.2192,-8.2192,-8.2192,-8.2192,-8.2192,-8.2192,-4.6227,-4.6496,-4.6764,-4.6741,-4.7179,-4.7575,-4.7532,0.0,0.0,-4.8338,-4.8735,-4.9112,-4.9424,-5.0056,-5.0738,-5.1288,0.0,0.0,0.0,0.0,0.0,0.0,0.0,0.0,0.0,0.0,0.0,0.0,0.0,0.0,0.0,0.0,-7.615,-7.7257,-7.7312,-7.7754,-7.8721,-7.8748,-7.8879,-7.9197,-7.8759,-7.8454,-7.8432,-7.7986,-7.7718,-7.7718,0.0,0.0,0.0,-7.7565,-7.7475,-7.7475,-7.6906,-7.6751,-7.6725,-7.6179,-7.5996,-7.5996,-7.5813,-7.5721,-7.5721,-7.5721,-7.5721,-7.5721,-7.5721,-7.5721,-7.5721,-7.5721,-7.5486,-7.5225,-7.5225,-7.4807,-7.431,-7.4075,-7.3996,-7.3996,-7.3996,-7.3996,-7.4075,-7.431,-7.4362,-7.4635,-7.5484,-7.6015,-7.6688,-7.7484,-7.7986,-7.8432,-7.861,-7.861,-7.861,-7.861,-7.861,-7.861,-7.861,-7.9153,-7.9479,-7.9479,-8.0293,-8.0781,-8.0781,-8.0998,-8.1134,-8.1134,-8.1459,-8.1649,-8.1649,-8.2002,-8.2192,-8.2192,-8.1839,-8.1649,-4.6563,-4.695,-4.7404,-4.7361,-4.7945,-4.8555,0.0,0.0,0.0,-4.9438,-4.9927,-5.0445,-5.0742,-5.1137,-5.1748,-5.2665,0.0,-5.4562,0.0,0.0,0.0,0.0,0.0,0.0,0.0,0.0,0.0,0.0,0.0,0.0,0.0,0.0,-7.6166,-7.7109,-7.7329,-7.7906,-7.8922,-7.8922,-7.8967,-7.8876,-7.8521,-7.8165,-7.7655,-7.7385,-7.7204,0.0,0.0,0.0,0.0,-7.7023,-7.7023,-7.6933,-7.6452,-7.627,-7.6179,-7.5813,-7.5721,-7.5721,-7.5721,-7.5721,-7.5721,-7.5721,-7.5721,-7.5695,-7.5512,-7.5591,-7.5669,-7.5512,-7.5068,-7.4597,-7.4414,-7.4049,-7.3709,-7.3526,-7.35,-7.35,-7.35,-7.35,-7.3552,-7.3709,-7.3824,-7.4212,-7.5149,-7.6013,-7.6788,-7.7485,-7.8146,-7.861,-7.861,-7.861,-7.861,-7.861,-7.861,-7.861,-7.861,-7.899,-7.9234,-7.9234,-7.9804,-8.013,-8.013,-8.032,-8.0428,-8.0428,-8.0625,-8.0842,-8.0842,-8.1091,-8.128,-8.128,-8.0939,-8.0852,-4.6965,-4.7614,-4.8291,-4.8291,-4.8676,-4.906,0.0,0.0,0.0,-5.0409,-5.1125,-5.1796,-5.1796,-5.2074,-5.2665,-5.3632,-5.4536,0.0,0.0,0.0,0.0,0.0,0.0,0.0,0.0,0.0,0.0,0.0,0.0,0.0,0.0,0.0,-7.6168,-7.6819,-7.7389,-7.7986,-7.8583,-7.861,-7.8343,-7.7897,-7.7897,-7.7655,-7.7204,-7.7204,0.0,0.0,0.0,0.0,0.0,-7.6725,-7.6543,-7.6452,-7.5905,-7.5721,-7.5721,-7.5721,-7.5721,-7.5721,-7.5721,-7.5721,-7.5721,-7.5721,-7.5721,-7.5617,-7.5068,-7.5303,-7.5617,-7.5068,-7.4493,-7.3892,-7.3291,-7.3134,-7.2977,-7.2454,-7.2323,-7.2323,-7.2323,-7.2323,-7.248,-7.3003,-7.3487,-7.4024,-7.4631,-7.5925,-7.7036,-7.7036,-7.7876,-7.861,-7.861,-7.861,-7.861,-7.861,-7.861,-7.861,-7.861,-7.861,-7.861,-7.861,-7.918,-7.9506,-7.9506,-8.0103,-8.0428,-8.0428,-7.9946,-7.9763,-7.9763,-7.9239,-7.9055,-7.9055,-7.9488,-7.9622,-4.782,-4.8305,-4.8816,-4.9179,-4.9845,-5.0372,-5.0372,0.0,0.0,-5.1341,-5.1837,-5.2238,-5.2238,-5.2998,-5.3785,-5.41,-5.5829,0.0,0.0,0.0,0.0,0.0,0.0,0.0,0.0,0.0,0.0,0.0,0.0,0.0,0.0,0.0,0.0,-7.6819,-7.7416,-7.8013,-7.8583,-7.8254,-7.8076,-7.7897,-7.7268,-7.6816,-7.6725,-7.6022,0.0,0.0,0.0,0.0,0.0,-7.5564,-7.5472,-7.5472,-7.4866,-7.4681,-7.4681,-7.5077,-7.5195,-7.5288,-7.563,-7.5721,-7.5643,-7.5277,-7.5146,-7.5042,-7.4467,-7.4702,-7.4963,-7.3944,-7.3526,-7.3264,-7.2716,-7.2559,-7.2506,-7.235,-7.2297,-7.2297,-7.2297,-7.256,-7.2848,-7.3032,-7.3407,-7.4054,-7.4928,-7.584,-7.6613,-7.7397,-7.8142,-7.861,-7.861,-7.861,-7.861,-7.861,-7.861,-7.861,-7.861,-7.861,-7.861,-7.861,-7.8773,-7.8882,-7.8882,-7.8713,-7.8642,-7.8642,-7.8683,-7.8624,-7.8624,-7.8841,-7.8907,-7.8871,-7.9053,-7.9001,0.0,-4.9066,-4.9493,-5.0098,-5.0749,0.0,0.0,0.0,0.0,-5.203,-5.2308,-5.2704,-5.3042,-5.3759,-5.453,-5.5241,-5.6817,0.0,0.0,0.0,0.0,0.0,0.0,0.0,0.0,0.0,0.0,0.0,0.0,0.0,0.0,0.0,0.0,-7.6559,-7.7546,-7.8142,-7.8343,-7.8076,-7.7718,-7.7358,-7.6816,-7.627,-7.5905,0.0,0.0,0.0,0.0,0.0,0.0,-7.4707,-7.4707,-7.4614,-7.431,-7.4217,-7.4217,-7.4614,-7.467,-7.4674,-7.5016,-7.5068,-7.5016,-7.4676,-7.4414,-7.4153,-7.3787,-7.3918,-7.4075,-7.3317,-7.2951,-7.2716,-7.2402,-7.2297,-7.2297,-7.2297,-7.2297,-7.2385,-7.256,-7.2795,-7.3056,-7.3229,-7.3688,-7.4166,-7.4885,-7.5758,-7.6607,-7.7247,-7.8095,-7.861,-7.861,-7.861,-7.861,-7.861,-7.861,-7.861,-7.861,-7.861,-7.861,-7.861,-7.861,-7.861,-7.861,-7.8343,-7.8076,-7.7897,-7.7822,-7.7646,-7.7464,-7.7625,-7.79,-7.819,-7.819,-7.8336,0.0,-4.9872,0.0,0.0,0.0,0.0,0.0,0.0,0.0,0.0,-5.2679,-5.3199,-5.4094,-5.441,-5.5025,-5.6899,-5.774,0.0,0.0,0.0,0.0,0.0,0.0,0.0,0.0,0.0,0.0,0.0,0.0,0.0,0.0,0.0,0.0,0.0,-7.7579,-7.82,-7.7807,-7.7807,-7.7358,-7.6452,-7.6452,-7.5905,-7.501,0.0,0.0,0.0,0.0,0.0,0.0,-7.4123,-7.4123,-7.4123,-7.4123,-7.4123,-7.4123,-7.4098,-7.4017,-7.4039,-7.3987,-7.3989,-7.3907,-7.3944,-7.3526,-7.3055,-7.3055,-7.3055,-7.3055,-7.3055,-7.2689,-7.2297,-7.2297,-7.2297,-7.2297,-7.2297,-7.2385,-7.2472,-7.2969,-7.3056,-7.3229,-7.3688,-7.4118,-7.4487,-7.4541,-7.5828,-7.6846,-7.6901,-7.7878,-7.861,-7.861,-7.861,-7.861,-7.861,-7.861,-7.861,-7.861,-7.861,-7.861,-7.861,-7.861,-7.861,-7.861,-7.861,-7.8343,-7.7897,-7.7475,-7.6933,-7.6452,-7.5996,-7.627,-7.7204,-7.7204,-7.7718,-5.0531,0.0,-5.0801,-5.1861,-5.2347,-5.2654,0.0,0.0,0.0,0.0,0.0,-5.3696,-5.417,-5.5229,-5.6399,-5.7572,-5.8889,0.0,0.0,0.0,0.0,0.0,0.0,0.0,0.0,0.0,0.0,0.0,0.0,0.0,0.0,0.0,0.0,0.0,-7.6379,-7.6993,-7.7385,-7.6997,-7.6725,-7.6452,-7.5748,-7.5195,-7.501,0.0,0.0,0.0,0.0,0.0,0.0,-7.3707,-7.3707,-7.3613,-7.3212,-7.2998,-7.3042,-7.3012,-7.3062,-7.3069,-7.3366,-7.347,-7.3469,-7.3384,-7.2951,-7.248,-7.248,-7.248,-7.248,-7.248,-7.2402,-7.2297,-7.2297,-7.2297,-7.2385,-7.2708,-7.2795,-7.2969,-7.3402,-7.386,-7.4118,-7.423,-7.4545,-7.4994,-7.5454,-7.6245,-7.6982,-7.7443,-7.8122,-7.861,-7.861,-7.861,-7.861,-7.861,-7.861,-7.861,-7.861,-7.861,-7.861,-7.861,-7.861,-7.861,-7.861,-7.8254,-7.7986,-7.7897,-7.7475,-7.6933,-7.6452,-7.6725,-7.6933,-7.7204,-7.7565,-7.8076,-5.0905,-5.1139,-5.1255,-5.2379,-5.2792,-5.2929,-5.2929,0.0,0.0,0.0,0.0,0.0,-5.5134,-5.6303,-5.7526,-5.8453,-5.9945,0.0,0.0,0.0,0.0,0.0,0.0,0.0,0.0,0.0,0.0,0.0,0.0,0.0,0.0,0.0,0.0,0.0,0.0,-7.5676,-7.6906,-7.6634,-7.6361,-7.6088,-7.538,-7.4918,-7.4614,0.0,0.0,0.0,0.0,0.0,-7.3118,-7.2929,-7.2835,-7.274,-7.2241,-7.1902,-7.1653,-7.1944,-7.1771,-7.1661,-7.2087,-7.2348,-7.2537,-7.267,-7.2533,-7.2297,-7.256,-7.2647,-7.256,-7.2385,-7.2297,-7.2385,-7.256,-7.2647,-7.2734,-7.3229,-7.3316,-7.3402,-7.3946,-7.423,-7.4487,-7.463,-7.5075,-7.5517,-7.5842,-7.6656,-7.7335,-7.766,-7.823,-7.861,-7.861,-7.861,-7.861,-7.861,-7.861,-7.8699,-7.8876,-7.8965,-7.8876,-7.861,-7.861,-7.861,-7.861,-7.8343,-7.8076,-7.7897,-7.7475,-7.7114,-7.6816,-7.7114,-7.7294,-7.7565,-7.7807,-7.8165,-5.0946,-5.1272,-5.1548,-5.2653,-5.2929,-5.2955,-5.2986,0.0,0.0,0.0,0.0,0.0,0.0,-5.7481,0.0,0.0,0.0,0.0,0.0,0.0,0.0,0.0,0.0,0.0,0.0,0.0,0.0,0.0,0.0,0.0,0.0,0.0,0.0,0.0,0.0,0.0,-7.6098,-7.6098,-7.5916,-7.546,-7.4936,-7.4408,-7.4088,-7.3461,0.0,0.0,0.0,0.0,-7.2551,-7.2076,-7.1886,-7.1766,-7.1285,-7.0774,-7.0451,-7.0774,-7.0595,-7.0204,-7.079,-7.1269,-7.1682,-7.2122,-7.2297,-7.2385,-7.2882,-7.2969,-7.2969,-7.2647,-7.2472,-7.2647,-7.2969,-7.3142,-7.3229,-7.3688,-7.3774,-7.3946,-7.4374,-7.446,-7.4657,-7.5052,-7.5571,-7.5951,-7.6141,-7.7036,-7.7742,-7.785,-7.8285,-7.861,-7.861,-7.861,-7.861,-7.8699,-7.8699,-7.8876,-7.9378,-7.9378,-7.9202,-7.8876,-7.8788,-7.8788,-7.8699,-7.8699,-7.8521,-7.7986,-7.7655,-7.7385,-7.7294,-7.7385,-7.7565,-7.7897,-7.7986,-7.8254,-5.0531,-5.1039,-5.1548,-5.2653,-5.2929,-5.3011,-5.3493,0.0,0.0,0.0,0.0,0.0,0.0,0.0,0.0,0.0,0.0,0.0,0.0,0.0,0.0,0.0,0.0,0.0,0.0,0.0,0.0,0.0,0.0,0.0,0.0,0.0,0.0,0.0,0.0,0.0,0.0,-7.4348,-7.4348,-7.4258,-7.3379,-7.3181,-7.3499,-7.2598,-7.2382,0.0,0.0,0.0,-7.2076,-7.1575,-7.1288,-7.1238,-7.0675,-7.0454,-7.0352,-6.9907,-6.9738,-6.9697,-7.0604,-7.1203,-7.1682,-7.2122,-7.2297,-7.2385,-7.2882,-7.2969,-7.3056,-7.3429,-7.3515,-7.3515,-7.3601,-7.3601,-7.3688,-7.423,-7.4316,-7.4401,-7.4774,-7.4944,-7.5079,-7.568,-7.5842,-7.6222,-7.7253,-7.7606,-7.7878,-7.8393,-7.8556,-7.861,-7.861,-7.861,-7.8788,-7.9114,-7.9202,-7.9378,-7.9817,-7.9904,-7.9817,-7.9817,-7.9817,-7.9641,-7.9202,-7.9202,-7.8965,-7.8521,-7.8432,-7.8165,-7.7807,-7.8165,-7.8254,-7.7897,-7.8343,-7.8521,-5.0448,-5.0997,-5.1548,-5.2653,-5.2929,-5.3011,-5.3588,0.0,0.0,0.0,0.0,0.0,0.0,0.0,0.0,0.0,0.0,0.0,0.0,0.0,0.0,0.0,0.0,0.0,0.0,0.0,0.0,0.0,0.0,0.0,0.0,0.0,0.0,0.0,0.0,0.0,-7.3526,-7.3238,-7.3395,-7.3996,-7.3302,-7.2978,-7.2961,-7.22,-7.2041,0.0,0.0,-7.1708,-7.1981,-7.112,-7.0661,-7.0392,-6.9837,-6.9279,-6.8765,-6.8703,-6.8983,-6.9596,-7.0605,-7.1037,-7.1303,-7.2034,-7.2297,-7.2472,-7.3142,-7.3429,-7.3488,-7.4176,-7.4091,-7.3774,-7.4032,-7.4058,-7.4203,-7.463,-7.4716,-7.4774,-7.4944,-7.5273,-7.5571,-7.5842,-7.6439,-7.7063,-7.7633,-7.7986,-7.8285,-7.8556,-7.861,-7.861,-7.861,-7.8788,-7.9053,-7.929,-7.9554,-7.9904,-8.034,-8.034,-8.0253,-7.9991,-7.9991,-7.9904,-7.9641,-7.9378,-7.9202,-7.8965,-7.8699,-7.8521,-7.8254,-7.8521,-7.8521,-7.8254,-7.8521,-7.8447,-5.0506,-5.1072,-5.1548,-5.2653,-5.303,-5.3256,-5.3783,-5.4009,-5.4386,-5.5512,0.0,0.0,0.0,0.0,0.0,0.0,0.0,0.0,0.0,0.0,0.0,0.0,0.0,0.0,0.0,0.0,0.0,0.0,0.0,0.0,0.0,0.0,0.0,0.0,0.0,0.0,-7.2925,-7.2506,-7.2742,-7.3604,-7.2978,-7.2605,-7.2371,-7.1734,-7.1553,-7.1711,-7.1056,-7.1022,-7.1394,-7.0273,-6.9646,-6.9283,-6.878,-6.8129,-6.7516,-6.7843,-6.861,-6.9541,-7.0414,-7.077,-7.1037,-7.1858,-7.221,-7.2472,-7.3429,-7.3688,-7.386,-7.4774,-7.4518,-7.4118,-7.446,-7.4545,-7.463,-7.4944,-7.5028,-7.5055,-7.5191,-7.5571,-7.5978,-7.6277,-7.7091,-7.7769,-7.7905,-7.8312,-7.861,-7.861,-7.861,-7.861,-7.8788,-7.8917,-7.9186,-7.9362,-7.9573,-7.9979,-8.055,-8.0775,-8.0686,-8.034,-8.034,-8.0253,-8.0166,-7.9591,-7.9186,-7.9099,-7.8522,-7.8203,-7.8203,-7.8203,-7.8203,-7.8203,-7.8203,-7.7959,-5.0714,-5.1189,-5.1548,-5.2653,-5.3281,-5.3808,-5.4386,-5.4888,-5.5566,-5.6671,-5.7232,0.0,0.0,0.0,0.0,0.0,0.0,0.0,0.0,0.0,0.0,0.0,0.0,0.0,0.0,0.0,0.0,0.0,0.0,0.0,0.0,0.0,0.0,0.0,0.0,0.0,-7.2376,-7.2323,-7.235,-7.2428,-7.152,-7.1359,-7.1782,-7.0786,-7.0723,-7.1133,-7.0111,-6.9761,-6.9692,-6.8679,-6.8204,-6.8131,-6.7602,-6.7609,-6.7929,-6.7971,-6.861,-6.9451,-7.0056,-7.0503,-7.0948,-7.1506,-7.1946,-7.2472,-7.3429,-7.3688,-7.386,-7.4774,-7.4944,-7.4944,-7.4944,-7.4944,-7.4944,-7.5028,-7.5028,-7.5164,-7.5707,-7.587,-7.6222,-7.7362,-7.766,-7.7905,-7.8447,-7.8583,-7.861,-7.861,-7.861,-7.8788,-7.9202,-7.8825,-7.8816,-7.9679,-7.9264,-7.9407,-8.0419,-8.1066,-8.1317,-8.1317,-8.1317,-8.1146,-8.0686,-7.964,-7.8903,-7.8469,-7.7401,-7.6955,-7.6955,-7.6955,-7.6955,-7.6955,-7.6955,-7.6955,-5.0804,-5.1447,-5.2051,-5.313,-5.3833,-5.4285,-5.4511,-5.5265,-5.6143,-5.6873,-5.7926,-5.9338,0.0,0.0,0.0,0.0,0.0,0.0,0.0,0.0,0.0,0.0,0.0,0.0,0.0,0.0,0.0,0.0,0.0,0.0,0.0,0.0,0.0,0.0,0.0,0.0,0.0,-7.1417,-7.1417,-7.1417,-7.1417,-7.1254,-7.1192,-7.0565,-7.0417,-7.0581,-6.9567,-6.9274,-6.9475,-6.8487,-6.7915,-6.753,-6.735,-6.7591,-6.8063,-6.8337,-6.8792,-6.9451,-6.9966,-7.0503,-7.0948,-7.1417,-7.1946,-7.2472,-7.3429,-7.3688,-7.386,-7.4774,-7.5028,-7.5028,-7.5028,-7.5028,-7.5028,-7.5028,-7.5028,-7.5191,-7.5761,-7.6195,-7.6738,-7.7552,-7.8013,-7.8339,-7.8556,-7.861,-7.861,-7.861,-7.8876,-7.9005,-7.8797,-7.9072,-7.9285,-7.9265,-7.9268,-7.9493,-7.9886,-8.0139,-8.0251,-8.0251,-8.0616,-8.0728,-8.0557,-7.9288,-7.8442,-7.827,-7.7302,-7.6846,-7.6846,-7.6846,-7.6846,-7.6846,-7.6846,-7.6629,-5.056,-5.1437,-5.2377,-5.3432,0.0,0.0,-5.5013,-5.5817,-5.6622,-5.735,-5.8854,-6.0594,-6.2273,0.0,0.0,0.0,0.0,0.0,0.0,0.0,0.0,0.0,0.0,0.0,0.0,0.0,0.0,0.0,0.0,0.0,0.0,0.0,0.0,0.0,0.0,0.0,0.0,-7.0859,-7.0859,-7.0859,-7.1063,-7.0948,-7.0681,-7.0145,-7.0013,-7.0003,-6.8997,-6.8758,-6.8984,-6.7979,-6.7386,-6.7095,-6.7173,-6.7488,-6.8063,-6.8544,-6.8999,-6.9451,-6.9966,-7.0503,-7.0948,-7.1417,-7.1946,-7.2472,-7.3256,-7.3601,-7.386,-7.4603,-7.4944,-7.5028,-7.5028,-7.5028,-7.5028,-7.5028,-7.5164,-7.5463,-7.6059,-7.6684,-7.7281,-7.7878,-7.8339,-7.861,-7.861,-7.861,-7.861,-7.861,-7.9053,-7.9186,-7.867,-7.9114,-7.9267,-7.8542,-7.896,-7.9268,-7.9268,-7.9436,-7.9577,-7.9577,-7.9773,-7.997,-8.0195,-7.8762,-7.792,-7.792,-7.6788,-7.6249,-7.6249,-7.6249,-7.6249,-7.6249,-7.6249,-7.6032,-5.0069,-5.1135,-5.2377,0.0,0.0,0.0,-5.5968,-5.6646,-5.7374,-5.8504,-6.0035,-6.1471,-6.2416,-6.3508,0.0,0.0,0.0,0.0,0.0,0.0,0.0,0.0,0.0,0.0,0.0,0.0,0.0,0.0,0.0,0.0,0.0,0.0,0.0,0.0,0.0,0.0,0.0,-7.0859,-7.0859,-7.0859,-7.0414,-7.0235,-7.0145,-6.9631,-6.9361,-6.9361,-6.8428,-6.7971,-6.7971,-6.6959,-6.6496,-6.6589,-6.7027,-6.7488,-6.8063,-6.8544,-6.8999,-6.9451,-6.9966,-7.0503,-7.0948,-7.1417,-7.1946,-7.2385,-7.2882,-7.3316,-7.3774,-7.4316,-7.4716,-7.5028,-7.5028,-7.5028,-7.5028,-7.5028,-7.549,-7.6087,-7.6711,-7.7308,-7.7905,-7.8475,-7.861,-7.861,-7.861,-7.861,-7.861,-7.861,-7.9026,-7.9247,-7.9076,-7.8982,-7.857,-7.7807,-7.8228,-7.8593,-7.8593,-7.9183,-7.9549,-7.9549,-7.8931,-7.8874,-7.9521,-7.8122,-7.7284,-7.7284,-7.5751,-7.5028,-7.5028,-7.5028,-7.5028,-7.5028,-7.5028,-7.5028,-5.0075,-5.1774,0.0,-5.4205,0.0,0.0,0.0,-5.7524,0.0,0.0,-6.1169,-6.2074,-6.313,0.0,0.0,0.0,0.0,0.0,0.0,0.0,0.0,0.0,0.0,0.0,0.0,0.0,0.0,0.0,0.0,0.0,0.0,0.0,0.0,0.0,0.0,0.0,0.0,0.0,-6.9786,-6.9812,-6.9722,-6.9786,-7.0145,-6.9631,-6.9361,-6.9361,-6.8428,-6.7971,-6.7971,-6.6959,-6.6496,-6.6589,-6.7027,-6.7488,-6.8063,-6.8544,-6.8999,-6.9451,-6.9966,-7.0503,-7.0948,-7.1417,-7.1946,-7.2385,-7.2882,-7.3316,-7.3774,-7.4316,-7.4716,-7.5028,-7.5028,-7.5327,-7.5625,-7.5625,-7.5761,-7.6195,-7.7226,-7.7579,-7.7905,-7.8475,-7.861,-7.861,-7.861,-7.861,-7.861,-7.861,-7.8934,-7.9083,-7.8793,-7.8373,-7.7923,-7.7722,-7.7835,-7.7947,-7.7947,-7.8144,-7.8228,-7.8228,-7.8059,-7.8228,-7.8846,-7.7705,-7.6983,-7.6677,-7.587,-7.5339,-7.5028,-7.5028,-7.5028,-7.5028,-7.5339,-7.5508,-5.0506,0.0,0.0,0.0,0.0,-5.662,-5.8177,0.0,0.0,0.0,0.0,-6.2376,-6.3525,0.0,0.0,0.0,0.0,0.0,0.0,0.0,0.0,0.0,0.0,0.0,0.0,0.0,0.0,0.0,0.0,0.0,0.0,0.0,0.0,0.0,0.0,0.0,0.0,0.0,0.0,-6.9361,-6.9361,-6.9541,-6.9901,-6.9541,-6.9361,-6.9361,-6.8428,-6.7788,-6.7328,-6.6774,-6.6496,-6.6589,-6.7027,-6.7488,-6.8063,-6.8544,-6.8999,-6.9541,-7.0235,-7.0681,-7.1063,-7.1682,-7.2034,-7.2385,-7.2647,-7.3056,-7.3515,-7.3946,-7.446,-7.4774,-7.4944,-7.5463,-7.5897,-7.5897,-7.6277,-7.6819,-7.7552,-7.7905,-7.8176,-7.8529,-7.861,-7.861,-7.861,-7.842,-7.8257,-7.8257,-7.8309,-7.8453,-7.8623,-7.8059,-7.7694,-7.7694,-7.7694,-7.7694,-7.7694,-7.7694,-7.7694,-7.7694,-7.7694,-7.7835,-7.8228,-7.7451,-7.6871,-7.6622,-7.6039,-7.5592,-7.5255,-7.5255,-7.5255,-7.5255,-7.5787,-7.5955,0.0,0.0,0.0,0.0,0.0,0.0,0.0,0.0,-6.0563,-6.114,0.0,0.0,0.0,0.0,0.0,0.0,0.0,0.0,0.0,0.0,0.0,0.0,0.0,0.0,0.0,0.0,0.0,0.0,0.0,0.0,0.0,0.0,0.0,0.0,0.0,0.0,0.0,0.0,0.0,0.0,-6.9311,-6.9376,-6.9376,-6.9426,-6.9361,-6.927,-6.8428,-6.7421,-6.6589,-6.6496,-6.6496,-6.6589,-6.6935,-6.7488,-6.8063,-6.8453,-6.8999,-6.9541,-7.0503,-7.0859,-7.1037,-7.1946,-7.2297,-7.2297,-7.2297,-7.2647,-7.3056,-7.3601,-7.4032,-7.4487,-7.4913,-7.5544,-7.6005,-7.6059,-7.6901,-7.7742,-7.7796,-7.823,-7.861,-7.861,-7.861,-7.8583,-7.8529,-7.8067,-7.7688,-7.7667,-7.749,-7.7593,-7.8454,-7.8031,-7.7694,-7.7694,-7.7694,-7.7694,-7.7694,-7.7694,-7.7694,-7.7694,-7.7694,-7.7694,-7.7694,-7.7256,-7.7009,-7.7009,-7.6179,-7.576,-7.576,-7.576,-7.576,-7.576,-7.6206,-7.6484,0.0,0.0,0.0,0.0,0.0,0.0,0.0,0.0,0.0,0.0,0.0,0.0,0.0,0.0,0.0,0.0,0.0,0.0,0.0,0.0,0.0,0.0,0.0,0.0,0.0,0.0,0.0,0.0,0.0,0.0,0.0,0.0,0.0,0.0,0.0,0.0,-6.9361,-6.9361,-6.9361,0.0,-6.8999,-6.8798,-6.8823,-6.925,-6.918,-6.8817,-6.8246,-6.7672,-6.7027,-6.6682,-6.6496,-6.6496,-6.6589,-6.7212,-6.8063,-6.8154,-6.8701,-6.9541,-7.0145,-7.0592,-7.0948,-7.1594,-7.2034,-7.2297,-7.2297,-7.2647,-7.3056,-7.3601,-7.4032,-7.4568,-7.5513,-7.6168,-7.6765,-7.7226,-7.7525,-7.785,-7.8312,-7.8502,-7.861,-7.861,-7.861,-7.8447,-7.7986,-7.7796,-7.7651,-7.7411,-7.7309,-7.7454,-7.7865,-7.775,-7.7694,-7.7694,-7.7694,-7.7694,-7.7694,-7.7694,-7.7694,-7.7694,-7.7694,-7.7694,-7.7694,-7.7612,-7.7338,-7.7009,-7.6843,-7.6539,-7.6234,-7.6234,-7.6234,-7.6234,-7.6705,-7.7119,0.0,0.0,0.0,0.0,0.0,0.0,0.0,0.0,0.0,0.0,0.0,0.0,0.0,0.0,0.0,0.0,0.0,0.0,0.0,0.0,0.0,0.0,0.0,0.0,0.0,0.0,0.0,0.0,0.0,0.0,0.0,0.0,0.0,0.0,0.0,0.0,-6.8648,-6.8648,-6.8648,-6.8648,-6.8371,-6.8221,-6.8246,-6.8522,-6.853,-6.8238,-6.7785,-6.7451,-6.712,-6.6658,-6.6496,-6.6496,-6.6496,-6.6959,-6.7672,-6.788,-6.8428,-6.918,-6.9966,-7.0324,-7.0681,-7.1391,-7.177,-7.2034,-7.221,-7.2472,-7.2708,-7.3229,-7.3874,-7.4713,-7.5413,-7.6429,-7.7335,-7.766,-7.7932,-7.823,-7.8529,-7.861,-7.861,-7.861,-7.8366,-7.8095,-7.7769,-7.7226,-7.6893,-7.684,-7.687,-7.7066,-7.764,-7.7694,-7.7694,-7.7694,-7.7694,-7.7694,-7.7694,-7.7694,-7.7694,-7.7694,-7.7694,-7.7694,-7.7694,-7.7694,-7.7612,-7.7338,-7.7091,-7.6871,-7.6705,-7.6705,-7.6788,-7.7036,-7.7448,-7.7858,0.0,0.0,0.0,0.0,0.0,0.0,0.0,0.0,0.0,0.0,0.0,0.0,0.0,0.0,0.0,0.0,0.0,0.0,0.0,0.0,0.0,0.0,0.0,0.0,0.0,0.0,0.0,0.0,0.0,0.0,0.0,0.0,0.0,0.0,0.0,-6.7794,-6.7794,-6.7794,-6.7794,-6.7794,-6.7693,-6.7618,-6.7518,-6.7518,-6.7604,-6.7872,-6.7423,-6.7175,-6.7182,-6.6629,-6.6493,-6.6496,-6.6496,-6.675,-6.7304,-6.7764,-6.8246,-6.8817,-6.9722,-7.0145,-7.0324,-7.1214,-7.1506,-7.1682,-7.2122,-7.2297,-7.2385,-7.2882,-7.374,-7.4741,-7.5309,-7.6552,-7.7742,-7.785,-7.8257,-7.861,-7.861,-7.861,-7.8583,-7.8475,-7.7878,-7.7416,-7.7416,-7.6494,-7.5854,-7.6205,-7.6317,-7.6622,-7.7448,-7.7612,-7.7612,-7.7694,-7.7694,-7.7694,-7.7694,-7.7694,-7.7694,-7.7694,-7.7694,-7.7694,-7.7694,-7.7694,-7.7776,-7.7858,-7.7366,-7.7174,-7.7284,-7.7284,-7.753,-7.7939,-7.8293,-7.8698,0.0,0.0,0.0,0.0,0.0,0.0,0.0,0.0,0.0,0.0,0.0,0.0,0.0,0.0,0.0,0.0,0.0,0.0,0.0,0.0,0.0,0.0,0.0,0.0,0.0,0.0,0.0,0.0,0.0,0.0,0.0,0.0,-6.7794,-6.7794,-6.7794,0.0,-6.7794,-6.7794,-6.7794,-6.7794,-6.7317,-6.6815,-6.6338,-6.6338,-6.6915,-6.7831,-6.7299,-6.7175,-6.7126,-6.6647,-6.6456,-6.6496,-6.6496,-6.675,-6.7304,-6.7764,-6.8246,-6.8817,-6.9361,-6.9786,-7.0324,-7.077,-7.1214,-7.1682,-7.2122,-7.2297,-7.2385,-7.2882,-7.374,-7.4848,-7.5766,-7.685,-7.785,-7.8366,-7.8556,-7.861,-7.861,-7.861,-7.8447,-7.7932,-7.6928,-7.6141,-7.6141,-7.5571,-7.5279,-7.5704,-7.576,-7.6095,-7.7009,-7.7091,-7.7256,-7.7694,-7.7694,-7.7694,-7.7694,-7.7694,-7.7694,-7.7694,-7.7694,-7.7694,-7.7694,-7.7694,-7.7858,-7.8321,-7.7858,-7.7776,-7.8212,-7.8212,-7.8455,-7.8859,-7.8859,-7.9181,0.0,0.0,0.0,0.0,0.0,0.0,0.0,0.0,0.0,0.0,0.0,0.0,0.0,0.0,0.0,0.0,0.0,0.0,0.0,0.0,0.0,0.0,0.0,0.0,0.0,0.0,0.0,0.0,0.0,0.0,0.0,-6.6429,-6.6604,-6.6865,-6.6865,0.0,-6.6865,-6.6865,-6.6865,-6.684,-6.6614,-6.6363,-6.6112,-6.6112,-6.6564,-6.7342,-6.6815,-6.6671,-6.6718,-6.6177,-6.5845,-6.5606,-6.5606,-6.5698,-6.5972,-6.6518,-6.7168,-6.7892,-6.8434,-6.9085,-6.9812,-7.0324,-7.0859,-7.1329,-7.177,-7.2122,-7.2297,-7.256,-7.3629,-7.4836,-7.5603,-7.6794,-7.793,-7.844,-7.8339,-7.8122,-7.8122,-7.8122,-7.7823,-7.6874,-7.6277,-7.5788,-7.5463,-7.5191,-7.5198,-7.5592,-7.5676,-7.6011,-7.6843,-7.7009,-7.7174,-7.7694,-7.7694,-7.7694,-7.7694,-7.7694,-7.7694,-7.7694,-7.7694,-7.7694,-7.7694,-7.7939,-7.8212,-7.8403,-7.8212,-7.8293,-7.8698,-7.8698,-7.894,-7.9312,-7.9312,-7.9552,0.0,0.0,0.0,0.0,0.0,0.0,0.0,0.0,0.0,0.0,0.0,0.0,0.0,0.0,0.0,0.0,0.0,0.0,0.0,0.0,0.0,0.0,0.0,0.0,0.0,0.0,0.0,0.0,0.0,0.0,-6.5161,-6.5248,-6.5421,-6.5767,-6.5853,-6.594,-6.594,-6.6026,-6.6112,-6.6112,-6.6112,-6.6112,-6.6112,-6.6112,-6.6338,-6.6764,-6.6392,-6.6165,-6.6152,-6.5795,-6.533,-6.4909,-6.4909,-6.4909,-6.4999,-6.5475,-6.6358,-6.7251,-6.7791,-6.859,-6.9541,-7.0056,-7.0503,-7.0948,-7.1506,-7.1946,-7.2297,-7.2297,-7.3356,-7.465,-7.5118,-7.6307,-7.7529,-7.8061,-7.7823,-7.7498,-7.7498,-7.7362,-7.6982,-7.6087,-7.5788,-7.5544,-7.5083,-7.5028,-7.5113,-7.5424,-7.5508,-7.576,-7.6595,-7.6761,-7.7036,-7.742,-7.7612,-7.7694,-7.7694,-7.7694,-7.7694,-7.7694,-7.7776,-7.7858,-7.7858,-7.8293,-7.8646,-7.8698,-7.8698,-7.8859,-7.9181,-7.9181,-7.9392,-7.9791,-7.9791,-7.9978,0.0,0.0,0.0,0.0,0.0,0.0,0.0,0.0,0.0,0.0,0.0,0.0,0.0,0.0,0.0,0.0,0.0,0.0,0.0,0.0,0.0,0.0,0.0,0.0,0.0,0.0,0.0,0.0,0.0,0.0,-6.4702,-6.4702,-6.4789,-6.4789,-6.5248,-6.5421,-6.5421,-6.5853,-6.6112,-6.6112,-6.6112,-6.6112,-6.6112,-6.6112,-6.6137,-6.6162,-6.6162,-6.5856,-6.5498,-6.5498,-6.5283,-6.4909,-6.4909,-6.4909,-6.4999,-6.5475,-6.6358,-6.7251,-6.7791,-6.859,-6.9541,-7.0056,-7.0503,-7.0948,-7.1506,-7.1946,-7.2297,-7.2297,-7.3093,-7.4095,-7.4506,-7.5397,-7.629,-7.6754,-7.6901,-7.6874,-7.6874,-7.6412,-7.5978,-7.5924,-7.5463,-7.5055,-7.5028,-7.5028,-7.5028,-7.5028,-7.5028,-7.517,-7.5676,-7.6123,-7.6539,-7.7009,-7.742,-7.7694,-7.7694,-7.7694,-7.7694,-7.7694,-7.813,-7.8403,-7.8403,-7.8779,-7.9181,-7.9552,-7.9552,-7.9552,-7.9552,-7.9552,-7.9791,-8.0294,-8.0294,-8.0294,0.0,0.0,0.0,0.0,0.0,0.0,0.0,0.0,0.0,0.0,0.0,0.0,0.0,0.0,0.0,0.0,0.0,0.0,0.0,0.0,0.0,0.0,0.0,0.0,0.0,0.0,0.0,0.0,0.0,0.0,-6.3264,-6.3264,-6.3436,-6.3694,-6.3865,-6.4295,-6.49,-6.5328,-6.576,-6.6112,-6.6112,-6.6112,-6.6112,-6.6112,-6.6112,-6.6112,-6.6112,-6.5694,-6.4997,-6.4997,-6.4528,-6.3899,-6.3899,-6.3899,-6.3899,-6.4433,-6.5526,-6.6734,-6.7181,-6.8225,-6.9451,-6.9606,-7.0235,-7.0948,-7.1126,-7.1682,-7.2297,-7.2297,-7.2777,-7.3576,-7.4366,-7.5142,-7.5752,-7.6158,-7.6222,-7.6141,-7.5761,-7.5788,-7.5788,-7.5408,-7.5164,-7.5028,-7.5028,-7.473,-7.4486,-7.4486,-7.416,-7.4083,-7.4471,-7.5324,-7.5986,-7.6479,-7.7196,-7.7694,-7.7694,-7.7694,-7.7858,-7.813,-7.8321,-7.8565,-7.8779,-7.9181,-7.9472,-7.9632,-7.987,-8.0057,-8.0057,-8.0057,-8.0136,-8.0294,-8.0294,-8.0294,-5.4353,0.0,0.0,0.0,0.0,0.0,0.0,0.0,0.0,0.0,0.0,0.0,0.0,0.0,0.0,0.0,0.0,0.0,0.0,0.0,0.0,0.0,0.0,0.0,0.0,0.0,0.0,0.0,0.0,0.0,-6.2213,-6.2299,-6.247,-6.2958,-6.3129,-6.3531,-6.4328,-6.4953,-6.5484,-6.5835,-6.6011,-6.6112,-6.6112,-6.6112,-6.6112,-6.6112,-6.6112,-6.5594,-6.4702,-6.4876,-6.4377,-6.3498,-6.3675,-6.3763,-6.3851,-6.4114,-6.5238,-6.673,-6.6997,-6.8076,-6.9361,-6.9361,-6.9966,-7.0681,-7.0859,-7.1417,-7.2122,-7.2297,-7.2559,-7.3023,-7.3812,-7.454,-7.5163,-7.5536,-7.5598,-7.549,-7.511,-7.5327,-7.549,-7.5083,-7.4866,-7.473,-7.473,-7.4269,-7.3889,-7.3889,-7.3563,-7.3374,-7.3677,-7.4609,-7.5295,-7.5622,-7.6694,-7.7385,-7.7385,-7.7582,-7.7858,-7.813,-7.8293,-7.8565,-7.902,-7.9392,-7.9632,-7.9791,-8.0136,-8.0294,-8.0294,-8.0294,-8.0294,-8.0294,-8.0294,-8.0294,0.0,0.0,0.0,0.0,0.0,0.0,0.0,0.0,0.0,0.0,0.0,0.0,0.0,0.0,0.0,0.0,0.0,0.0,0.0,0.0,0.0,0.0,0.0,0.0,0.0,0.0,0.0,0.0,0.0,-6.1758,-6.1758,-6.1758,-6.1993,-6.2422,-6.28,-6.3309,-6.3782,-6.4728,-6.5258,-6.5283,-6.5835,-6.6086,-6.6086,-6.6112,-6.6112,-6.6112,-6.6112,-6.5594,-6.4789,-6.5248,-6.4814,-6.4114,-6.4527,-6.4702,-6.4702,-6.4702,-6.5767,-6.7086,-6.7086,-6.8076,-6.9426,-6.9336,-6.9786,-7.0235,-7.077,-7.124,-7.1682,-7.2122,-7.2297,-7.2385,-7.2882,-7.3688,-7.4487,-7.4859,-7.5028,-7.5028,-7.5001,-7.5001,-7.5001,-7.5001,-7.4567,-7.416,-7.416,-7.3672,-7.3265,-7.3265,-7.3265,-7.3237,-7.3237,-7.3978,-7.4577,-7.4577,-7.5917,-7.6795,-7.6823,-7.7329,-7.7666,-7.7694,-7.813,-7.8565,-7.902,-7.9392,-7.9791,-8.0215,-8.0294,-8.0294,-8.0294,-8.0294,-8.0294,-8.0294,-8.0294,-8.0294,-5.504,0.0,0.0,0.0,0.0,0.0,0.0,0.0,0.0,0.0,0.0,0.0,0.0,0.0,0.0,0.0,0.0,0.0,0.0,0.0,0.0,0.0,0.0,0.0,0.0,0.0,0.0,0.0,0.0,-6.0628,-6.0628,-6.0628,-6.0882,-6.1279,-6.1698,-6.2313,-6.321,-6.3802,-6.4329,-6.4705,-6.5258,-6.5509,-6.5534,-6.5936,-6.6112,-6.6112,-6.6112,-6.5767,-6.5248,-6.5335,-6.5075,-6.4527,-6.4615,-6.4702,-6.4702,-6.5075,-6.5782,-6.6652,-6.7316,-6.8182,-6.8924,-6.93,-6.9786,-7.0235,-7.0324,-7.0681,-7.1214,-7.1682,-7.177,-7.1946,-7.2795,-7.3688,-7.4401,-7.4545,-7.4774,-7.4893,-7.4513,-7.4404,-7.4404,-7.4404,-7.4296,-7.4051,-7.3617,-7.302,-7.2613,-7.2613,-7.2261,-7.1989,-7.1989,-7.3155,-7.3915,-7.3915,-7.5275,-7.6345,-7.6767,-7.6964,-7.7407,-7.8184,-7.8321,-7.8565,-7.902,-7.9101,-7.9261,-7.9341,-7.9341,-7.9341,-7.9341,-7.9978,-8.0294,-8.0294,-8.0294,-8.0294,-5.5384,-5.5878,-5.6546,-5.7875,0.0,0.0,0.0,0.0,0.0,0.0,0.0,0.0,0.0,0.0,0.0,0.0,0.0,0.0,0.0,0.0,0.0,0.0,0.0,0.0,0.0,0.0,0.0,0.0,-6.0171,-6.0255,-6.0423,-6.0423,-6.0674,-6.1066,-6.1589,-6.2068,-6.2639,-6.3327,-6.3852,-6.4153,-6.468,-6.4957,-6.4957,-6.5283,-6.5559,-6.576,-6.576,-6.5739,-6.5681,-6.5681,-6.5421,-6.4963,-6.5223,-6.531,-6.531,-6.5594,-6.6055,-6.6666,-6.7254,-6.797,-6.8673,-6.8999,-6.943,-6.9901,-7.0145,-7.0414,-7.0681,-7.1126,-7.1417,-7.1858,-7.2795,-7.3402,-7.386,-7.4032,-7.4271,-7.4314,-7.3989,-7.3886,-7.3807,-7.3807,-7.359,-7.3319,-7.2966,-7.2396,-7.1989,-7.1989,-7.1718,-7.1474,-7.1474,-7.2579,-7.3252,-7.3252,-7.4633,-7.5643,-7.6008,-7.6514,-7.7045,-7.7654,-7.7989,-7.8293,-7.8698,-7.8779,-7.8859,-7.902,-7.902,-7.8877,-7.862,-7.9357,-7.9819,-8.0057,-8.0057,-8.0136,-5.5724,-5.6319,-5.7013,-5.8274,-5.8678,0.0,-5.9382,-5.9483,0.0,0.0,0.0,0.0,0.0,0.0,0.0,0.0,0.0,0.0,0.0,0.0,0.0,0.0,0.0,0.0,0.0,0.0,0.0,-6.0087,-6.017,-6.0362,-6.0744,-6.0827,-6.1018,-6.1564,-6.2002,-6.2249,-6.2249,-6.3185,-6.3601,-6.3601,-6.4128,-6.4379,-6.4379,-6.4429,-6.4731,-6.5208,-6.5258,-6.5559,-6.6036,-6.6086,-6.5853,-6.5508,-6.594,-6.6112,-6.6112,-6.6197,-6.6524,-6.6977,-6.7139,-6.7794,-6.8536,-6.8675,-6.8938,-6.934,-6.9878,-6.9968,-7.0057,-7.0591,-7.1034,-7.165,-7.2524,-7.2784,-7.2957,-7.3302,-7.3416,-7.3353,-7.3272,-7.323,-7.31,-7.3102,-7.2695,-7.2342,-7.2288,-7.1826,-7.1474,-7.1474,-7.1474,-7.1474,-7.1474,-7.2169,-7.262,-7.2699,-7.3939,-7.4777,-7.4861,-7.6036,-7.6739,-7.6823,-7.7357,-7.7829,-7.8208,-7.8208,-7.8342,-7.866,-7.866,-7.8375,-7.7833,-7.854,-7.9038,-7.935,-7.9408,-7.9704,-5.588,-5.6654,-5.7481,-5.8067,-5.88,0.0,-5.9483,-5.9483,0.0,0.0,0.0,0.0,0.0,0.0,0.0,0.0,0.0,0.0,0.0,0.0,0.0,0.0,0.0,0.0,0.0,0.0,0.0,-5.9389,-5.9715,-6.0155,-6.0678,-6.0703,-6.1146,-6.2059,-6.2167,-6.2331,-6.2659,-6.2866,-6.2998,-6.2998,-6.3576,-6.3852,-6.3852,-6.4279,-6.453,-6.4655,-6.5107,-6.5358,-6.5484,-6.5936,-6.6026,-6.594,-6.6026,-6.6112,-6.6112,-6.654,-6.6787,-6.6939,-6.774,-6.8218,-6.8473,-6.882,-6.89,-6.8738,-6.8826,-6.8562,-6.8474,-6.9265,-6.9875,-7.0395,-7.0912,-7.134,-7.1655,-7.1767,-7.2,-7.2181,-7.2033,-7.201,-7.1959,-7.1854,-7.2125,-7.2206,-7.1745,-7.1555,-7.1474,-7.1474,-7.1474,-7.1474,-7.1474,-7.1957,-7.2329,-7.2699,-7.3313,-7.3986,-7.4805,-7.5643,-7.6289,-7.6795,-7.7357,-7.7551,-7.7101,-7.7073,-7.6928,-7.6502,-7.6502,-7.6445,-7.6304,-7.7645,-7.8071,-7.7556,-7.8179,-7.8646,-5.626,-5.714,-5.8024,-5.8412,-5.8998,0.0,0.0,-5.9483,0.0,0.0,0.0,0.0,0.0,0.0,0.0,0.0,0.0,0.0,0.0,0.0,0.0,0.0,0.0,0.0,0.0,0.0,-5.9317,-5.9479,-5.9722,-6.0007,-6.0601,-6.0626,-6.1035,-6.207,-6.2095,-6.2302,-6.2822,-6.2822,-6.2822,-6.2822,-6.3124,-6.3249,-6.3274,-6.3525,-6.3802,-6.4103,-6.4379,-6.4806,-6.5308,-6.5584,-6.586,-6.6112,-6.6112,-6.6197,-6.6455,-6.6711,-6.6967,-6.7248,-6.7725,-6.8092,-6.8288,-6.831,-6.8417,-6.8496,-6.8234,-6.797,-6.797,-6.8933,-6.9367,-6.9713,-7.0427,-7.0769,-7.0914,-7.0914,-7.1016,-7.1229,-7.1326,-7.1279,-7.1311,-7.1447,-7.1718,-7.1826,-7.1528,-7.1474,-7.1474,-7.1474,-7.1474,-7.1474,-7.1474,-7.1876,-7.2197,-7.2409,-7.2964,-7.3577,-7.412,-7.4895,-7.5559,-7.5868,-7.6458,-7.6654,-7.6373,-7.6373,-7.6205,-7.5924,-7.5896,-7.5755,-7.5418,-7.6125,-7.6583,-7.682,-7.7133,-7.7513,-5.6716,-5.755,0.0,0.0,0.0,-5.9483,0.0,0.0,0.0,0.0,0.0,0.0,0.0,0.0,0.0,0.0,0.0,0.0,0.0,0.0,0.0,0.0,0.0,0.0,0.0,0.0,0.0,-5.9497,-5.9675,-5.9934,-6.0433,-6.0433,-6.0921,-6.1818,-6.1943,-6.222,-6.2672,-6.2772,-6.2822,-6.2822,-6.2822,-6.2822,-6.2822,-6.2822,-6.3099,-6.3525,-6.3651,-6.4178,-6.5007,-6.5208,-6.5559,-6.5961,-6.6061,-6.6369,-6.6711,-6.6882,-6.7137,-6.7561,-6.773,-6.7954,-6.8254,-6.7826,-6.7959,-6.8079,-6.7643,-6.7467,-6.7643,-6.8514,-6.8774,-6.9033,-6.9917,-7.0173,-7.0259,-7.0259,-7.0146,-7.0224,-7.0698,-7.0738,-7.088,-7.1393,-7.1474,-7.1474,-7.1474,-7.1474,-7.1474,-7.1474,-7.1474,-7.1474,-7.1474,-7.1796,-7.2037,-7.2117,-7.2754,-7.3229,-7.3387,-7.426,-7.4861,-7.494,-7.5559,-7.584,-7.5727,-7.5615,-7.5531,-7.5531,-7.5531,-7.5278,-7.4772,-7.4772,-7.5183,-7.5978,-7.6119,-7.6385,0.0,0.0,0.0,0.0,-5.8965,0.0,0.0,0.0,0.0,0.0,0.0,0.0,0.0,0.0,0.0,0.0,0.0,0.0,0.0,0.0,0.0,0.0,0.0,0.0,0.0,0.0,0.0,0.0,-5.9045,-5.9729,-6.0308,-6.0333,-6.0609,-6.1266,-6.1743,-6.2044,-6.2094,-6.2571,-6.2822,-6.2822,-6.2822,-6.2822,-6.2822,-6.2822,-6.2873,-6.2948,-6.3475,-6.3751,-6.3952,-6.4906,-6.5333,-6.5434,-6.5911,-6.6112,-6.6283,-6.7137,-6.7477,-6.7646,-6.8403,-6.8481,-6.8222,-6.8138,-6.763,-6.6914,-6.6485,-6.6312,-6.6399,-6.6914,-6.7401,-6.7851,-6.83,-6.8721,-6.8973,-6.8973,-6.8978,-6.9176,-7.0086,-7.028,-7.0499,-7.1312,-7.1474,-7.1474,-7.1474,-7.1474,-7.1474,-7.1474,-7.1474,-7.1474,-7.1474,-7.1554,-7.1715,-7.2037,-7.2197,-7.2596,-7.3308,-7.4023,-7.4545,-7.4861,-7.5559,-7.5643,-7.5081,-7.4519,-7.4238,-7.4238,-7.4238,-7.421,-7.4126,-7.4126,-7.4154,-7.4316,-7.4851,-7.5368,0.0,0.0,0.0,0.0,0.0,0.0,-5.9483,0.0,-5.9483,0.0,0.0,0.0,0.0,0.0,0.0,0.0,0.0,0.0,0.0,0.0,0.0,0.0,0.0,0.0,0.0,0.0,0.0,0.0,0.0,-5.8805,-5.9357,-5.9382,-5.9784,-6.0663,-6.0914,-6.1341,-6.1994,-6.2245,-6.2521,-6.2822,-6.2822,-6.2822,-6.2822,-6.2822,-6.2822,-6.2847,-6.3099,-6.3375,-6.3726,-6.4178,-6.4731,-6.5308,-6.5534,-6.6006,-6.654,-6.6967,-6.7307,-6.7561,-6.7899,-6.7925,-6.7756,-6.7502,-6.6967,-6.6369,-6.6197,-6.6112,-6.6197,-6.6711,-6.7137,-6.7561,-6.8119,-6.8513,-6.8764,-6.8764,-6.9014,-6.9403,-7.0089,-7.039,-7.0717,-7.1393,-7.1474,-7.1474,-7.1474,-7.1474,-7.1474,-7.1474,-7.1474,-7.1474,-7.1474,-7.1474,-7.169,-7.2206,-7.2476,-7.2879,-7.3439,-7.398,-7.4298,-7.4356,-7.4659,-7.4688,-7.4407,-7.4154,-7.4013,-7.4013,-7.4013,-7.4013,-7.4013,-7.4013,-7.4013,-7.4041,-7.4294,-7.4682,-5.567,0.0,0.0,0.0,0.0,0.0,0.0,0.0,0.0,0.0,0.0,0.0,0.0,0.0,-5.9481,-5.9433,0.0,0.0,0.0,0.0,0.0,0.0,0.0,0.0,0.0,0.0,0.0,0.0,-5.7951,0.0,-5.8478,-5.8629,-5.9081,-5.9859,-6.0161,-6.0713,-6.1542,-6.1843,-6.2195,-6.2596,-6.2747,-6.2822,-6.2822,-6.2822,-6.2822,-6.2822,-6.2822,-6.3073,-6.3475,-6.3626,-6.4228,-6.5082,-6.5233,-6.589,-6.6626,-6.6797,-6.7052,-6.7307,-6.7477,-6.7392,-6.7222,-6.6797,-6.6369,-6.6112,-6.6112,-6.6112,-6.6197,-6.654,-6.7052,-6.7561,-6.7925,-6.8429,-6.8764,-6.8764,-6.9154,-6.9651,-7.0089,-7.0554,-7.0961,-7.1393,-7.1474,-7.1474,-7.1474,-7.1474,-7.1474,-7.1474,-7.1474,-7.1474,-7.1474,-7.1474,-7.1718,-7.2315,-7.2532,-7.2829,-7.3558,-7.374,-7.3911,-7.3963,-7.4013,-7.4013,-7.4013,-7.4013,-7.4013,-7.4013,-7.4013,-7.4013,-7.4013,-7.4013,-7.4013,-7.4013,-7.4013,-7.435,0.0,0.0,0.0,-5.7196,0.0,0.0,0.0,0.0,-5.9357,0.0,0.0,0.0,0.0,-5.855,-5.8595,-5.8812,-5.8225,0.0,0.0,0.0,0.0,0.0,0.0,0.0,0.0,0.0,0.0,0.0,-5.8071,0.0,-5.7926,-5.8428,-5.873,-5.878,-5.9784,-6.0337,-6.0362,-6.1466,-6.2019,-6.2044,-6.2571,-6.2822,-6.2822,-6.2822,-6.2822,-6.2822,-6.2822,-6.2847,-6.2898,-6.345,-6.4002,-6.4555,-6.5082,-6.5634,-6.6197,-6.6626,-6.6797,-6.6882,-6.7307,-6.7222,-6.6711,-6.6283,-6.6112,-6.6112,-6.6112,-6.6112,-6.6112,-6.6112,-6.6797,-6.7477,-6.7477,-6.8151,-6.8764,-6.8764,-6.9154,-6.9651,-7.0089,-7.0554,-7.0961,-7.1393,-7.1474,-7.1474,-7.1474,-7.1474,-7.1474,-7.1474,-7.1474,-7.1474,-7.1474,-7.1474,-7.1718,-7.2315,-7.1854,-7.2149,-7.353,-7.3086,-7.3122,-7.3935,-7.4013,-7.4013,-7.4013,-7.4013,-7.4013,-7.4013,-7.4013,-7.4013,-7.4013,-7.4013,-7.4013,-7.4013,-7.4013,-7.435,0.0,0.0,-5.665,-5.665,0.0,0.0,0.0,0.0,0.0,0.0,0.0,0.0,0.0,-5.7744,-5.7788,-5.7521,-5.7516,-5.7367,0.0,0.0,0.0,0.0,0.0,0.0,0.0,0.0,0.0,-5.6831,-5.6819,-5.7033,0.0,-5.7649,-5.7951,-5.8704,-5.9081,-5.9608,-6.0311,-6.0688,-6.109,-6.1466,-6.2019,-6.2295,-6.2295,-6.2672,-6.2822,-6.2822,-6.2822,-6.2822,-6.2847,-6.3048,-6.345,-6.4002,-6.453,-6.5082,-6.5609,-6.6157,-6.6369,-6.6369,-6.654,-6.6455,-6.6283,-6.6112,-6.6112,-6.6112,-6.6112,-6.6112,-6.6112,-6.6112,-6.6797,-6.7477,-6.7477,-6.8151,-6.8764,-6.8764,-6.9429,-6.998,-7.0171,-7.0744,-7.1312,-7.1474,-7.1474,-7.1474,-7.1474,-7.1474,-7.1474,-7.1474,-7.1474,-7.1474,-7.1474,-7.1474,-7.1718,-7.2315,-7.2179,-7.245,-7.3558,-7.3563,-7.3701,-7.3935,-7.4013,-7.4013,-7.4013,-7.4013,-7.4013,-7.4013,-7.4013,-7.4013,-7.4013,-7.4013,-7.4013,-7.4041,-7.4435,-7.4969,-5.5411,-5.588,0.0,-5.6302,-5.695,0.0,-5.76,0.0,0.0,0.0,0.0,0.0,0.0,-5.6967,-5.7061,-5.6852,-5.6874,-5.687,0.0,-5.63,0.0,0.0,0.0,0.0,0.0,0.0,-5.6096,-5.6386,-5.6309,-5.653,0.0,0.0,-5.7598,-5.8403,-5.8629,-5.9131,-6.001,-6.0211,-6.0512,-6.0889,-6.1642,-6.1994,-6.2019,-6.2571,-6.2822,-6.2822,-6.2822,-6.2822,-6.2822,-6.2822,-6.3174,-6.3751,-6.4254,-6.4806,-6.5358,-6.5911,-6.6112,-6.6112,-6.6112,-6.6112,-6.6112,-6.6112,-6.6112,-6.6112,-6.6112,-6.6112,-6.6112,-6.6283,-6.6882,-6.7561,-6.7756,-6.8261,-6.8764,-6.8764,-6.9512,-7.0171,-7.0171,-7.0906,-7.1474,-7.1474,-7.1474,-7.1474,-7.1474,-7.1474,-7.1474,-7.1474,-7.1474,-7.1474,-7.1474,-7.1474,-7.1718,-7.2315,-7.2179,-7.2449,-7.3227,-7.3688,-7.4013,-7.4013,-7.4013,-7.4013,-7.4013,-7.4013,-7.4013,-7.4013,-7.4013,-7.4013,-7.4013,-7.4013,-7.4013,-7.4041,-7.4884,-7.5502]},{"header":{"parameterUnit":"m.s-1","parameterCategory":1,"la1":30.6,"la2":29.2853,"lo1":-89.7004,"lo2":-87.6739,"dy":0.0162,"dx":0.0183,"nx":112,"ny":82,"refTime":"2023-06-15T12:00:00:Z","depth":0,"parameterNumber":3,"parameterNumberName":"V-component_of_WINDS"},"data":[0.0,0.0,0.0,0.0,0.0,0.0,0.0,0.0,0.0,0.0,0.0,0.0,0.0,0.0,0.0,0.0,0.0,0.0,0.0,0.0,0.0,0.0,0.0,0.0,0.0,0.0,0.0,0.0,0.0,0.0,0.0,0.0,0.0,0.0,0.0,0.0,0.0,0.0,0.0,0.0,0.0,0.0,0.0,0.0,0.0,0.0,0.0,0.0,0.0,0.0,0.0,0.0,0.0,0.0,0.0,0.0,0.0,0.0,0.0,0.0,0.0,0.0,0.0,0.0,0.0,0.0,0.0,0.0,0.0,0.0,0.0,0.0,0.0,0.0,0.0,0.0,0.0,0.0,0.0,0.0,0.0,0.0,0.0,0.0,0.0,0.0,0.0,0.0,0.0,0.0,-5.1664,-5.5627,-6.0374,-6.3408,-6.3634,-6.3467,-6.2604,-6.0902,0.0,0.0,0.0,0.0,0.0,0.0,0.0,0.0,0.0,0.0,0.0,0.0,0.0,0.0,0.0,0.0,0.0,0.0,0.0,0.0,0.0,0.0,0.0,0.0,0.0,0.0,0.0,0.0,0.0,0.0,0.0,0.0,0.0,0.0,0.0,0.0,0.0,0.0,0.0,0.0,0.0,0.0,0.0,0.0,0.0,0.0,0.0,0.0,0.0,0.0,0.0,0.0,0.0,0.0,0.0,0.0,0.0,0.0,0.0,0.0,0.0,0.0,0.0,0.0,0.0,0.0,0.0,0.0,0.0,0.0,0.0,0.0,0.0,0.0,0.0,0.0,0.0,0.0,0.0,0.0,0.0,0.0,0.0,0.0,0.0,0.0,0.0,0.0,0.0,0.0,0.0,0.0,0.0,0.0,0.0,0.0,0.0,0.0,0.0,0.0,0.0,0.0,0.0,0.0,-5.3162,-5.9145,-6.3217,-6.5186,-6.4405,-6.5405,-6.4673,-6.1633,0.0,0.0,0.0,0.0,0.0,0.0,0.0,0.0,0.0,0.0,0.0,0.0,0.0,0.0,0.0,0.0,0.0,0.0,0.0,0.0,0.0,0.0,0.0,0.0,0.0,0.0,0.0,0.0,0.0,0.0,0.0,0.0,0.0,0.0,0.0,0.0,0.0,0.0,0.0,0.0,0.0,0.0,0.0,0.0,0.0,0.0,0.0,0.0,0.0,0.0,0.0,0.0,0.0,0.0,0.0,0.0,0.0,0.0,0.0,0.0,0.0,0.0,0.0,0.0,0.0,0.0,0.0,0.0,0.0,0.0,0.0,0.0,0.0,0.0,0.0,0.0,0.0,0.0,0.0,0.0,0.0,0.0,0.0,0.0,0.0,0.0,0.0,0.0,0.0,0.0,0.0,0.0,0.0,0.0,0.0,0.0,0.0,0.0,0.0,0.0,0.0,0.0,0.0,-5.376,-5.7346,-6.1801,-6.4725,-6.6354,-6.65,-6.6415,-6.5364,-6.3025,-6.0209,0.0,0.0,0.0,0.0,0.0,0.0,0.0,0.0,0.0,0.0,0.0,0.0,0.0,0.0,0.0,0.0,0.0,0.0,0.0,0.0,0.0,0.0,0.0,0.0,0.0,0.0,0.0,0.0,0.0,0.0,0.0,0.0,0.0,0.0,0.0,0.0,0.0,0.0,0.0,0.0,0.0,0.0,0.0,0.0,0.0,0.0,0.0,0.0,0.0,0.0,0.0,0.0,0.0,0.0,0.0,0.0,0.0,0.0,0.0,0.0,0.0,0.0,0.0,0.0,0.0,0.0,0.0,0.0,0.0,0.0,0.0,0.0,0.0,0.0,0.0,0.0,0.0,0.0,0.0,0.0,0.0,0.0,0.0,0.0,0.0,0.0,0.0,0.0,0.0,0.0,0.0,0.0,0.0,0.0,0.0,0.0,0.0,0.0,0.0,0.0,0.0,0.0,-5.8079,-6.152,-6.4162,-6.6224,-6.7674,-6.839,-6.7449,-6.6036,-6.4203,-6.1659,0.0,0.0,0.0,0.0,0.0,0.0,0.0,0.0,0.0,0.0,0.0,0.0,0.0,0.0,0.0,0.0,0.0,0.0,0.0,0.0,0.0,0.0,0.0,0.0,0.0,0.0,0.0,0.0,0.0,0.0,0.0,0.0,0.0,0.0,0.0,0.0,0.0,0.0,0.0,0.0,0.0,0.0,0.0,0.0,0.0,0.0,0.0,0.0,0.0,0.0,0.0,0.0,0.0,0.0,0.0,0.0,0.0,0.0,0.0,0.0,0.0,0.0,0.0,0.0,0.0,0.0,0.0,0.0,0.0,0.0,0.0,0.0,0.0,0.0,0.0,0.0,0.0,0.0,0.0,0.0,0.0,0.0,0.0,0.0,0.0,0.0,0.0,0.0,0.0,0.0,0.0,0.0,0.0,0.0,0.0,0.0,0.0,0.0,0.0,0.0,0.0,0.0,-6.0455,-6.3938,-6.6347,-6.8408,-6.9464,-6.9214,-6.8882,-6.7562,-6.4918,-6.24,0.0,0.0,0.0,0.0,0.0,0.0,0.0,0.0,0.0,0.0,0.0,0.0,0.0,0.0,0.0,0.0,0.0,0.0,0.0,0.0,0.0,0.0,0.0,0.0,0.0,0.0,0.0,0.0,0.0,0.0,0.0,0.0,0.0,0.0,0.0,0.0,0.0,0.0,0.0,0.0,0.0,0.0,0.0,0.0,0.0,0.0,0.0,0.0,0.0,0.0,0.0,0.0,0.0,0.0,0.0,0.0,0.0,0.0,0.0,0.0,0.0,0.0,0.0,0.0,0.0,0.0,0.0,0.0,0.0,0.0,0.0,0.0,0.0,0.0,0.0,0.0,0.0,0.0,0.0,0.0,0.0,0.0,0.0,0.0,0.0,0.0,0.0,0.0,0.0,0.0,0.0,0.0,0.0,0.0,0.0,0.0,0.0,0.0,0.0,0.0,0.0,0.0,-6.1752,-6.5132,0.0,-6.9392,-7.0509,-7.0606,-6.9522,-6.7856,-6.5414,0.0,0.0,0.0,0.0,0.0,0.0,0.0,0.0,0.0,0.0,0.0,0.0,0.0,0.0,0.0,0.0,0.0,0.0,0.0,0.0,0.0,0.0,0.0,0.0,0.0,0.0,0.0,0.0,0.0,0.0,0.0,0.0,0.0,0.0,0.0,0.0,0.0,0.0,0.0,0.0,0.0,0.0,0.0,0.0,0.0,0.0,0.0,0.0,0.0,0.0,0.0,0.0,0.0,0.0,0.0,0.0,0.0,0.0,0.0,0.0,0.0,0.0,0.0,0.0,0.0,0.0,0.0,0.0,0.0,0.0,0.0,0.0,0.0,0.0,0.0,0.0,0.0,0.0,0.0,0.0,0.0,0.0,0.0,0.0,0.0,0.0,0.0,0.0,0.0,0.0,0.0,0.0,0.0,0.0,0.0,0.0,0.0,0.0,0.0,0.0,0.0,0.0,-5.9516,-6.3293,-6.6616,0.0,-7.0815,-7.1746,-7.2149,-7.0647,-6.8728,-6.6462,0.0,0.0,0.0,0.0,0.0,0.0,0.0,0.0,0.0,0.0,0.0,0.0,0.0,0.0,0.0,0.0,0.0,0.0,0.0,0.0,0.0,0.0,0.0,0.0,0.0,0.0,0.0,0.0,0.0,0.0,0.0,0.0,0.0,0.0,0.0,0.0,0.0,0.0,0.0,0.0,0.0,0.0,0.0,0.0,0.0,0.0,0.0,0.0,0.0,0.0,0.0,0.0,0.0,0.0,0.0,0.0,0.0,0.0,0.0,0.0,0.0,0.0,0.0,0.0,0.0,0.0,0.0,0.0,0.0,0.0,0.0,0.0,0.0,0.0,0.0,0.0,0.0,0.0,0.0,0.0,0.0,0.0,0.0,0.0,0.0,0.0,0.0,0.0,0.0,0.0,0.0,0.0,0.0,0.0,0.0,0.0,0.0,0.0,0.0,0.0,0.0,0.0,-6.1553,-6.5241,-6.8566,-7.1598,-7.2792,-7.3525,-7.3905,-7.2405,-7.0464,0.0,0.0,0.0,0.0,0.0,0.0,0.0,0.0,0.0,0.0,0.0,0.0,0.0,0.0,0.0,0.0,0.0,0.0,0.0,0.0,0.0,0.0,0.0,0.0,0.0,0.0,0.0,0.0,0.0,0.0,0.0,0.0,0.0,0.0,0.0,0.0,0.0,0.0,0.0,0.0,0.0,0.0,0.0,0.0,0.0,0.0,0.0,0.0,0.0,0.0,0.0,0.0,0.0,0.0,0.0,0.0,0.0,0.0,0.0,0.0,0.0,0.0,0.0,0.0,0.0,0.0,0.0,0.0,0.0,0.0,0.0,0.0,0.0,0.0,0.0,0.0,0.0,0.0,0.0,0.0,0.0,0.0,0.0,0.0,0.0,0.0,0.0,0.0,0.0,0.0,0.0,0.0,0.0,0.0,0.0,0.0,0.0,0.0,0.0,0.0,0.0,0.0,0.0,-6.2961,-6.6613,-6.9851,-7.2352,-7.375,-7.4658,-7.5277,-7.3551,-7.1667,-6.9789,0.0,0.0,0.0,0.0,0.0,0.0,0.0,0.0,0.0,0.0,0.0,0.0,0.0,0.0,0.0,0.0,0.0,0.0,0.0,0.0,0.0,0.0,0.0,0.0,0.0,0.0,0.0,0.0,0.0,0.0,0.0,0.0,0.0,0.0,0.0,0.0,0.0,0.0,0.0,0.0,0.0,0.0,0.0,0.0,0.0,0.0,0.0,0.0,0.0,0.0,0.0,0.0,0.0,0.0,0.0,0.0,0.0,0.0,0.0,0.0,0.0,0.0,0.0,0.0,0.0,0.0,0.0,0.0,0.0,0.0,0.0,0.0,0.0,0.0,0.0,0.0,0.0,0.0,0.0,0.0,0.0,0.0,0.0,0.0,0.0,0.0,0.0,0.0,0.0,0.0,0.0,0.0,0.0,0.0,0.0,0.0,0.0,0.0,0.0,0.0,0.0,0.0,-6.4632,-6.8163,-7.1277,-7.3461,-7.512,-7.6115,-7.6266,-7.486,-7.318,-7.1213,0.0,0.0,0.0,0.0,0.0,0.0,0.0,0.0,0.0,0.0,0.0,0.0,0.0,0.0,0.0,0.0,0.0,0.0,0.0,0.0,0.0,0.0,0.0,0.0,0.0,0.0,0.0,0.0,0.0,0.0,0.0,0.0,0.0,0.0,0.0,0.0,0.0,0.0,0.0,0.0,0.0,0.0,0.0,0.0,0.0,0.0,0.0,0.0,0.0,0.0,0.0,0.0,0.0,0.0,0.0,0.0,0.0,0.0,0.0,0.0,0.0,0.0,0.0,0.0,0.0,0.0,0.0,0.0,0.0,0.0,0.0,0.0,0.0,0.0,0.0,0.0,0.0,0.0,0.0,0.0,0.0,0.0,0.0,0.0,0.0,0.0,0.0,0.0,0.0,0.0,0.0,0.0,0.0,0.0,0.0,0.0,0.0,0.0,0.0,0.0,0.0,0.0,-6.6353,-6.991,-7.2857,-7.486,-7.6733,-7.7659,-7.7091,-7.6289,-7.4861,-7.2631,0.0,0.0,0.0,0.0,0.0,0.0,0.0,0.0,0.0,0.0,0.0,0.0,0.0,0.0,0.0,0.0,0.0,0.0,0.0,0.0,0.0,0.0,0.0,0.0,0.0,0.0,0.0,0.0,0.0,0.0,0.0,0.0,0.0,0.0,0.0,0.0,0.0,0.0,0.0,0.0,0.0,0.0,0.0,0.0,0.0,0.0,0.0,0.0,0.0,0.0,0.0,0.0,0.0,0.0,0.0,0.0,0.0,0.0,0.0,0.0,-4.2165,0.0,0.0,0.0,0.0,0.0,0.0,0.0,0.0,0.0,0.0,0.0,0.0,0.0,0.0,0.0,0.0,0.0,0.0,0.0,0.0,0.0,0.0,0.0,0.0,0.0,0.0,0.0,0.0,0.0,0.0,0.0,0.0,0.0,0.0,0.0,0.0,0.0,0.0,0.0,0.0,0.0,-6.8371,-7.1385,-7.4089,-7.604,-7.7577,-7.8582,-7.8967,-7.8048,-7.6694,-7.4925,-7.236,0.0,0.0,0.0,0.0,0.0,0.0,0.0,0.0,0.0,0.0,0.0,0.0,0.0,0.0,0.0,0.0,0.0,0.0,0.0,0.0,0.0,0.0,0.0,0.0,0.0,0.0,0.0,0.0,0.0,0.0,0.0,0.0,0.0,0.0,0.0,0.0,0.0,0.0,0.0,0.0,0.0,0.0,0.0,0.0,0.0,0.0,0.0,0.0,0.0,0.0,0.0,0.0,0.0,0.0,0.0,0.0,0.0,0.0,0.0,0.0,-4.4491,0.0,0.0,0.0,0.0,0.0,0.0,0.0,0.0,0.0,0.0,0.0,0.0,0.0,0.0,0.0,0.0,0.0,0.0,0.0,0.0,0.0,0.0,0.0,0.0,0.0,0.0,0.0,0.0,0.0,0.0,0.0,0.0,0.0,0.0,0.0,0.0,0.0,0.0,0.0,0.0,-7.0584,-7.3169,-7.5624,-7.7563,-7.8943,-7.9853,-8.0206,-7.9346,-7.8156,-7.6653,-7.4028,0.0,0.0,0.0,0.0,0.0,0.0,0.0,0.0,0.0,0.0,0.0,0.0,0.0,0.0,0.0,0.0,0.0,0.0,0.0,0.0,0.0,0.0,0.0,0.0,0.0,0.0,0.0,0.0,0.0,0.0,0.0,0.0,0.0,0.0,0.0,0.0,0.0,0.0,0.0,0.0,0.0,0.0,0.0,0.0,0.0,0.0,0.0,0.0,0.0,0.0,0.0,0.0,0.0,0.0,-5.03,-5.0793,-5.2012,-5.2769,-5.2989,-5.0451,-4.883,-4.7963,0.0,0.0,0.0,0.0,0.0,0.0,0.0,0.0,0.0,0.0,0.0,0.0,0.0,0.0,0.0,0.0,0.0,0.0,0.0,0.0,0.0,0.0,0.0,0.0,0.0,-6.298,-6.3715,0.0,0.0,0.0,0.0,0.0,0.0,0.0,0.0,0.0,0.0,0.0,0.0,-7.2834,-7.5188,-7.7337,-7.9061,-8.0406,-8.1087,-8.1008,-8.0347,-7.935,-7.7928,-7.5646,-7.3727,0.0,0.0,0.0,0.0,0.0,0.0,0.0,0.0,0.0,0.0,0.0,0.0,0.0,0.0,0.0,0.0,0.0,0.0,0.0,0.0,0.0,0.0,0.0,0.0,0.0,0.0,0.0,0.0,0.0,0.0,0.0,0.0,-4.4972,-4.5039,0.0,0.0,0.0,0.0,0.0,0.0,0.0,0.0,0.0,0.0,0.0,0.0,0.0,0.0,-4.7769,-4.9716,-5.0857,-5.1258,-5.1959,-5.2952,-5.4259,-5.4734,-5.5594,-5.6708,-5.6512,0.0,-5.2322,-5.1552,0.0,0.0,0.0,0.0,0.0,0.0,0.0,0.0,0.0,0.0,0.0,0.0,0.0,0.0,0.0,0.0,0.0,0.0,0.0,0.0,0.0,0.0,-6.3666,-6.581,-6.7175,-6.8262,0.0,-6.7111,-6.4965,-6.5145,-6.5145,0.0,0.0,0.0,0.0,0.0,0.0,0.0,-7.4953,-7.7351,-7.9211,-8.0024,-8.1274,-8.1839,-8.1435,-8.1354,-8.0402,-7.8475,-7.7463,-7.5978,-7.381,-7.185,0.0,0.0,0.0,0.0,0.0,0.0,0.0,0.0,0.0,0.0,0.0,0.0,0.0,0.0,0.0,0.0,0.0,0.0,0.0,0.0,0.0,0.0,0.0,0.0,0.0,0.0,0.0,0.0,0.0,-4.6167,-4.6665,-4.7557,-4.7599,-4.7465,0.0,0.0,0.0,0.0,0.0,0.0,0.0,0.0,0.0,-4.7835,-4.9447,-5.0211,-4.9882,-5.1302,-5.2321,-5.2905,-5.3773,-5.4865,-5.6251,-5.6962,-5.8083,-5.9514,-5.9942,-5.9606,-5.8507,-5.6734,-5.6053,-5.6077,0.0,0.0,0.0,0.0,0.0,-5.5846,-5.6609,-5.7369,0.0,0.0,0.0,0.0,0.0,0.0,0.0,0.0,0.0,0.0,0.0,0.0,0.0,-6.9167,-7.0636,-7.2043,-7.3357,-7.272,-7.1422,0.0,-6.969,-6.969,-6.969,0.0,0.0,0.0,0.0,-7.6201,-7.7478,-7.922,-8.0759,-8.1804,-8.2413,-8.2715,-8.2569,-8.2005,-8.102,-7.9479,-7.8243,-7.6619,-7.4603,-7.3423,-7.2255,0.0,0.0,0.0,0.0,0.0,0.0,0.0,0.0,0.0,0.0,0.0,0.0,0.0,0.0,0.0,0.0,0.0,0.0,0.0,0.0,0.0,0.0,0.0,0.0,0.0,0.0,0.0,0.0,-4.7553,-4.8259,-4.9447,-4.9646,-4.9578,0.0,0.0,0.0,0.0,0.0,0.0,-4.951,-5.0222,-5.0448,-5.0061,-5.1152,-5.1842,-5.2045,-5.2947,-5.383,-5.47,-5.5625,-5.6764,-5.8078,-5.92,-6.0329,-6.1621,-6.2549,-6.3241,-6.3499,-6.1191,-6.0297,-6.0286,-5.9917,-5.9542,-5.9275,-5.9609,-5.989,-6.0242,-6.1148,-6.173,-6.2134,-6.2134,0.0,-6.2521,-6.2521,0.0,0.0,0.0,0.0,-6.5387,-6.7242,-6.8909,-7.0618,-7.2209,-7.3798,-7.5149,-7.6039,-7.6753,-7.6462,0.0,-7.3589,-7.3589,-7.3589,0.0,0.0,0.0,0.0,-7.8727,-7.9656,-8.0904,-8.2094,-8.3081,-8.3342,-8.3357,-8.3237,-8.2502,-8.1541,-8.0304,-7.8928,-7.7413,-7.5699,-7.4744,-7.3619,-7.2404,0.0,0.0,0.0,0.0,0.0,0.0,0.0,0.0,0.0,0.0,0.0,0.0,0.0,0.0,0.0,0.0,0.0,0.0,0.0,0.0,0.0,0.0,0.0,0.0,0.0,0.0,0.0,0.0,0.0,-4.9783,-5.033,0.0,0.0,0.0,0.0,-5.0427,-5.0704,-5.0992,-5.1257,-5.1933,-5.2294,-5.2341,-5.2901,-5.361,-5.439,-5.4805,-5.5833,-5.7428,-5.7873,-5.8753,-6.0075,-6.1522,-6.2417,-6.2942,-6.4712,-6.5628,-6.5697,-6.3858,-6.2862,-6.2536,-6.2783,-6.2653,-6.2329,-6.2723,-6.3499,-6.4345,-6.4791,-6.553,-6.6314,-6.6314,-6.6314,-6.6314,-6.6314,-6.6314,0.0,0.0,-6.7747,-6.8678,-7.0283,-7.1926,-7.3581,-7.5294,-7.6479,-7.7449,-7.8117,-7.8727,-7.8582,0.0,-7.6259,-7.6259,-7.6259,0.0,-7.8175,-7.8204,-7.9801,-8.102,-8.1107,-8.2268,-8.311,-8.3168,-8.3691,-8.3737,-8.2876,-8.2763,-8.2141,-8.0561,-7.983,-7.8902,-7.761,-7.584,-7.4939,-7.4973,-7.2604,0.0,0.0,0.0,0.0,0.0,0.0,0.0,0.0,0.0,0.0,0.0,0.0,0.0,0.0,0.0,0.0,0.0,0.0,0.0,0.0,0.0,0.0,0.0,0.0,0.0,0.0,0.0,0.0,-5.1529,-5.1743,0.0,0.0,-5.1871,-5.2104,-5.3007,-5.2738,-5.2751,-5.3155,-5.374,-5.397,-5.3764,-5.4585,-5.5131,-5.5335,-5.6269,-5.7148,-5.7961,-5.8984,-6.0255,-6.1607,-6.236,-6.3521,-6.4888,-6.5628,-6.6406,-6.7321,-6.7145,-6.655,-6.5828,-6.5975,-6.6009,-6.6067,-6.6438,-6.677,-6.7184,-6.7846,-6.8277,-6.8619,-6.8911,-6.8983,-6.8983,-6.8983,-6.8983,-6.9124,-6.9714,-7.036,-7.1222,-7.2508,-7.4079,-7.5469,-7.6481,-7.803,-7.9336,-7.9569,-8.0439,-8.0962,-8.0294,-7.9481,-7.893,-7.893,-7.9627,-8.0207,-8.0207,-8.1833,-8.3052,-8.3052,-8.4213,-8.5026,-8.5026,-8.4852,-8.4373,-8.3447,-8.302,-8.2169,-8.0617,-7.9914,-7.8987,-7.7722,-7.6924,-7.6079,-7.5201,-7.4562,-7.4166,0.0,0.0,0.0,0.0,0.0,0.0,0.0,0.0,0.0,0.0,0.0,0.0,0.0,0.0,0.0,0.0,0.0,0.0,0.0,0.0,0.0,0.0,0.0,0.0,0.0,0.0,-5.2283,-5.3052,-5.3487,-5.3754,-5.398,-5.3751,-5.3856,-5.4523,-5.425,-5.4303,-5.4837,-5.5118,-5.5378,-5.5637,-5.6045,-5.6506,-5.7051,-5.7619,-5.8332,-5.9219,-6.0373,-6.1465,-6.2586,-6.3521,-6.4637,-6.5846,-6.6679,-6.7515,-6.8304,-6.9157,-6.9149,-6.8574,-6.8536,-6.8547,-6.8593,-6.8952,-6.9105,-6.9209,-7.0269,-7.0628,-7.076,-7.1333,-7.1569,-7.1569,-7.1569,-7.1569,-7.1681,-7.2299,-7.2777,-7.3367,-7.4535,-7.5711,-7.6807,-7.775,-7.92,-8.0513,-8.0875,-8.1775,-8.253,-8.253,-8.1659,-8.0933,-8.0933,-8.1455,-8.1949,-8.2152,-8.3458,-8.4503,-8.4707,-8.549,-8.6042,-8.6042,-8.5665,-8.4951,-8.3791,-8.3306,-8.2482,-8.0926,-8.0223,-7.9408,-7.8369,-7.7933,-7.723,-7.6143,-7.6377,-7.6102,-7.5274,0.0,0.0,0.0,0.0,0.0,0.0,0.0,0.0,0.0,0.0,0.0,0.0,0.0,0.0,0.0,0.0,0.0,0.0,0.0,0.0,0.0,0.0,0.0,-5.0522,-5.2753,-5.4402,-5.431,-5.5448,-5.6098,-5.5818,-5.5783,-5.5535,-5.4992,-5.5208,-5.5626,-5.6112,-5.5979,-5.6599,-5.8133,-5.7304,-5.7698,-5.9476,-5.8988,-5.951,-6.1191,-6.201,-6.2614,-6.295,-6.5084,-6.5775,-6.5612,-6.8059,-6.8909,-6.8667,-6.9794,-7.0433,-7.0578,-7.0403,-7.0079,-6.9791,-7.0212,-7.0368,-7.0607,-7.2045,-7.2551,-7.274,-7.3717,-7.4069,-7.4069,-7.4069,-7.4069,-7.421,-7.48,-7.4969,-7.5216,-7.6204,-7.7014,-7.7798,-7.9277,-8.015,-8.0974,-8.2013,-8.2762,-8.3226,-8.3226,-8.2704,-8.2268,-8.2268,-8.282,-8.3458,-8.4039,-8.4707,0.0,-8.5984,-8.6071,-8.61,-8.61,-8.6071,-8.5443,-8.3848,-8.3677,-8.308,-8.1517,-8.0813,-8.0223,-7.9605,-7.8865,-7.8361,-7.8078,-7.8069,-7.7942,-7.7638,0.0,0.0,0.0,0.0,0.0,0.0,0.0,0.0,0.0,0.0,0.0,0.0,0.0,0.0,0.0,0.0,0.0,0.0,0.0,0.0,0.0,0.0,-5.3397,-5.3284,-5.4299,-5.5376,-5.6201,-5.647,-5.69,-5.7763,-5.7599,-5.7606,-5.7953,-5.7635,-5.7429,-5.738,-5.7829,-5.8051,-5.7887,-5.8987,-5.9701,-5.9842,-6.0437,-6.1338,-6.2503,-6.264,-6.351,-6.5098,-6.5442,-6.6357,-6.7694,-6.8353,-6.9165,-7.0058,-7.0527,-7.0934,-7.1338,-7.1229,-7.1337,-7.1691,-7.2315,-7.2695,-7.2938,-7.3346,-7.3885,-7.4473,-7.48,-7.5123,-7.539,-7.539,-7.539,-7.5418,-7.5587,-7.5952,-7.6345,-7.6675,-7.7735,-7.8962,-7.973,-8.0914,-8.2186,-8.2796,-8.34,-8.3836,-8.3836,-8.4097,-8.4126,-8.3662,-8.4126,-8.462,-8.4794,-8.5752,0.0,-8.671,-8.7116,-8.7406,-8.7406,-8.7,-8.6108,-8.4534,-8.3963,-8.308,-8.1517,-8.0813,-8.042,-8.0223,-8.0214,-8.0011,-7.9639,-7.9685,-7.9579,0.0,0.0,0.0,0.0,0.0,0.0,0.0,0.0,0.0,0.0,0.0,0.0,0.0,0.0,0.0,0.0,0.0,0.0,0.0,0.0,0.0,0.0,-5.4252,-5.5383,-5.5825,-5.6167,-5.6675,-5.7538,-5.7796,-5.8152,-5.8835,-5.8703,-5.8673,-5.8946,-5.8502,-5.8353,-5.8603,-5.8747,-5.8966,-5.9374,-6.026,-6.0765,-6.0862,-6.1876,-6.2668,-6.3272,-6.3897,-6.4777,-6.5949,-6.6258,-6.7012,0.0,-6.8794,-6.9664,-7.0449,-7.1064,-7.1436,0.0,0.0,0.0,0.0,0.0,-7.3457,-7.3705,-7.4115,-7.4774,-7.5515,-7.6202,-7.6727,-7.714,-7.7023,-7.702,-7.6992,-7.6711,-7.7104,-7.7554,-7.7554,-7.8449,-7.9652,-8.0567,-8.1525,-8.2573,-8.37,-8.4271,-8.4591,-8.4852,0.0,0.0,-8.4968,-8.5229,-8.5578,-8.5839,-8.6506,-8.7087,-8.7348,-8.7697,-8.7929,-8.7929,-8.7408,-8.6515,-8.5192,-8.4305,0.0,0.0,0.0,-8.0842,-8.073,-8.0889,0.0,0.0,0.0,-8.1142,0.0,0.0,0.0,0.0,-8.0704,-8.0582,0.0,0.0,0.0,0.0,0.0,0.0,0.0,0.0,0.0,0.0,0.0,0.0,0.0,0.0,0.0,0.0,-5.572,-5.7094,-5.8039,-5.8241,-5.8399,-5.8629,-5.9293,-5.9683,-5.9585,-5.9611,-5.9477,-5.9111,-5.879,-5.8968,-5.9855,0.0,0.0,0.0,0.0,-6.1455,-6.2292,-6.3096,-6.372,-6.4055,-6.5433,-6.6015,-6.6028,-6.7317,-6.7696,-6.7604,-6.932,-7.0169,-7.0355,-7.1473,-7.2005,-7.2196,-7.2483,-7.2651,-7.2815,-7.3313,-7.3507,0.0,0.0,0.0,0.0,-7.7481,-7.8345,-7.8848,-7.8708,-7.8706,-7.8593,-7.8031,-7.8284,-7.8706,-7.8706,-7.9183,-8.0053,-8.1427,-8.1906,-8.2585,-8.4656,-8.5142,-8.5374,-8.5926,-8.61,-8.6129,-8.6129,-8.6129,-8.6332,-8.6884,-8.7058,0.0,-8.7842,-8.7929,-8.7929,-8.7929,0.0,0.0,-8.5735,-8.4614,-8.3528,-8.2359,-8.174,-8.1321,-8.1264,-8.1143,-8.1296,-8.1619,-8.2112,-8.2575,-8.2948,-8.3036,-8.3226,-8.3596,-8.2291,-8.175,0.0,0.0,0.0,0.0,0.0,0.0,0.0,0.0,0.0,0.0,0.0,0.0,0.0,0.0,0.0,-5.6588,-5.7043,-5.7792,-5.9577,-6.0378,-6.0618,-6.0196,-6.0712,-6.1217,-6.1816,-6.208,-6.2154,-6.2068,-6.1469,-6.1245,-6.153,-6.1374,0.0,-6.2066,-6.2607,-6.3204,-6.3924,-6.431,-6.4964,-6.5922,0.0,0.0,-6.7403,-6.7831,-6.8596,-6.9586,-6.9958,-7.0621,-7.161,-7.1905,-7.258,-7.3407,-7.291,-7.3112,-7.3566,-7.4589,-7.4923,-7.503,-7.6028,-7.673,-7.7182,-7.7463,-7.8198,-7.8847,-7.882,-7.9129,0.0,-7.924,-7.9296,-7.938,-7.938,-7.983,-8.0589,-8.1541,-8.2563,-8.3645,-8.4859,-8.549,-8.5897,-8.6013,-8.6448,-8.6797,-8.6797,-8.6797,-8.6826,-8.6971,-8.7406,-8.7784,-8.79,-8.7929,-8.7929,-8.7929,-8.7467,-8.6773,-8.5735,-8.4614,-8.3528,-8.2359,-8.174,-8.1518,-8.1916,-8.2225,-8.2413,-8.231,-8.3212,-8.3802,-8.3884,-8.4437,-8.4698,-8.4723,-8.3533,-8.2998,0.0,0.0,0.0,0.0,0.0,0.0,0.0,0.0,0.0,0.0,0.0,-5.3848,0.0,0.0,-5.6233,-5.7185,-5.8179,-5.9225,-6.0488,-6.102,-6.1285,-6.1375,-6.1841,-6.2269,-6.2676,-6.2574,-6.2582,-6.2807,-6.2294,-6.206,-6.2436,-6.2492,-6.2606,-6.2759,-6.3676,-6.4359,-6.4874,-6.5345,-6.6187,-6.7324,-6.7236,-6.762,-6.8425,-6.8679,-6.9156,-6.9813,-7.0519,-7.1122,-7.1729,-7.234,-7.312,-7.3855,-7.3804,-7.4126,-7.4681,-7.541,-7.5692,-7.5833,-7.6564,-7.7123,-7.7716,-7.8121,-7.8859,-7.9482,-7.9688,-7.9858,-7.997,-7.9633,-7.9802,-8.0026,-8.0026,-8.0476,-8.1265,-8.2509,-8.322,-8.4104,-8.5728,-8.6274,-8.6594,-8.6913,-8.7232,-8.7464,-8.7464,-8.7464,-8.7464,-8.7464,-8.7726,-8.7929,-8.7929,-8.7929,-8.7843,-8.7554,-8.7119,-8.6567,-8.5814,-8.469,-8.3746,-8.2836,-8.2499,-8.2445,-8.2677,-8.3107,-8.3307,-8.3248,-8.4211,-8.472,-8.472,-8.5319,-8.5549,-8.5549,-8.4976,-8.4322,0.0,0.0,0.0,0.0,0.0,0.0,0.0,0.0,-5.4389,-5.4665,-5.5238,-5.5599,-5.5406,-5.6625,-5.7673,-5.7637,-5.9159,-6.058,-6.1069,-6.14,-6.1807,-6.2415,-6.2804,-6.2958,-6.2848,-6.2742,-6.2801,-6.306,-6.2652,-6.264,-6.3214,-6.3331,-6.3451,-6.3795,-6.4715,-6.5362,-6.5526,-6.648,-6.7369,-6.8186,-6.823,-6.8587,-6.9187,-6.9524,-6.9745,-6.9952,-7.1215,-7.1801,-7.1984,-7.3118,-7.3913,-7.4359,-7.5001,-7.541,-7.5766,-7.6162,-7.6257,-7.6371,-7.697,-7.7498,-7.7965,-7.884,-7.9518,-8.0083,-8.0472,-8.056,-8.056,-8.0054,-8.0279,-8.0645,-8.0645,-8.1123,-8.1887,-8.3364,-8.3848,-8.4533,-8.6568,-8.7087,-8.7319,-8.7842,-8.7929,-8.7929,-8.7929,-8.7929,-8.7929,-8.7929,-8.7929,-8.7929,-8.7929,-8.7843,-8.764,-8.7206,-8.6681,-8.6096,-8.5539,-8.4733,-8.3932,-8.3314,-8.3286,-8.3286,-8.3286,-8.3695,-8.3928,-8.3928,-8.4706,-8.5221,-8.5336,-8.5792,-8.5962,-8.6047,-8.6047,-8.5493,-5.4717,-5.4195,-5.3957,-5.4585,-5.4837,-5.5155,0.0,0.0,-5.6553,-5.7255,-5.7609,-5.7881,-5.831,-5.8734,-5.9145,-5.9569,-6.0225,-6.0891,-6.1617,-6.2651,-6.3371,-6.3448,-6.3436,-6.3191,-6.2613,-6.3826,-6.4513,-6.4094,-6.3874,-6.3996,-6.445,-6.4262,-6.4456,-6.5165,-6.6096,-6.6509,-6.6397,-6.7781,-6.8475,-6.8497,-6.9309,-6.9804,-6.9985,-7.0236,-7.0578,-7.126,-7.2402,-7.3212,-7.3761,-7.4864,-7.536,-7.5555,-7.6535,-7.6928,-7.7028,-7.6913,-7.6875,-7.7044,-7.8026,-7.8447,-7.859,-7.912,-7.9586,-8.0078,-8.0544,-8.0948,-8.1291,-8.1207,-8.1235,-8.1291,-8.1291,-8.1689,-8.2341,-8.3449,-8.4447,-8.5506,-8.674,-8.7435,-8.7842,-8.7929,-8.7929,-8.7929,-8.7929,-8.7929,-8.7929,-8.7929,-8.7929,-8.7929,-8.7929,-8.7554,-8.7293,-8.7206,-8.6417,-8.5483,-8.4414,-8.4241,-8.3932,-8.3314,-8.3286,-8.3286,-8.3286,-8.3695,-8.3928,-8.3928,-8.439,-8.502,-8.5564,-8.565,-8.5852,-8.6284,-8.6284,-8.608,-5.6605,-5.6393,0.0,0.0,-5.7066,-5.7291,-5.7621,-5.7846,-5.8071,-5.8369,-5.8515,-5.892,-5.996,-6.0273,-6.0746,0.0,-6.2151,-6.219,-6.2782,-6.3073,-6.3323,-6.3501,-6.37,-6.3815,-6.3973,-6.4192,-6.458,-6.5184,-6.4586,-6.4623,-6.566,-6.5413,-6.5447,-6.5882,-6.6557,-6.7195,-6.7764,-6.8318,-6.9081,-7.0091,-7.0312,-7.05,-7.0621,-7.1132,-7.1933,-7.2918,-7.3707,-7.4569,-7.5417,-7.5835,-7.6243,-7.6588,-7.7368,-7.7655,-7.7601,-7.7539,-7.752,-7.7636,-7.8351,-7.8788,-7.9053,-7.9554,-7.9991,-8.0513,-8.0973,-8.1232,-8.1489,-8.1745,-8.1831,-8.1831,-8.2171,-8.2369,-8.2765,-8.3873,-8.4416,-8.5216,-8.6682,-8.7203,-8.7493,-8.7842,-8.7929,-8.7929,-8.7929,-8.7929,-8.7929,-8.7929,-8.7929,-8.7843,-8.7554,-8.7293,-8.7031,-8.6417,-8.5798,-8.5179,-8.4747,-8.4719,-8.4635,-8.4354,-8.4354,-8.4354,-8.4354,-8.4503,-8.4592,-8.4592,-8.5033,-8.541,-8.5666,-8.5958,-8.6221,-8.6396,-8.6658,-8.6774,-5.7758,0.0,0.0,-5.8228,-5.8707,-5.9152,-5.935,-5.9754,-6.0092,-6.0092,-6.0092,-6.0423,-6.1516,-6.1715,-6.2113,-6.3481,-6.3386,-6.3209,-6.3432,-6.3473,-6.3523,-6.3773,-6.3966,-6.4397,-6.5092,-6.4816,-6.4882,-6.5598,-6.5263,-6.5334,-6.6221,-6.6339,-6.6374,-6.6279,-6.7295,-6.8153,-6.8669,-6.9005,-6.9904,-7.1328,-7.1096,-7.1279,-7.1724,-7.2473,-7.3328,-7.4306,-7.4862,-7.5712,-7.6538,-7.6717,-7.6984,-7.7475,-7.7897,-7.8165,-7.8254,-7.8254,-7.8254,-7.8343,-7.8699,-7.9114,-7.9554,-7.9991,-8.0426,-8.0773,-8.1403,-8.1575,-8.166,-8.2171,-8.2256,-8.2369,-8.2707,-8.2876,-8.3187,-8.4155,-8.4468,-8.4954,-8.6392,-8.671,-8.6913,-8.7552,-8.7668,-8.7726,-8.79,-8.7929,-8.7929,-8.7929,-8.7784,-8.7495,-8.7034,-8.6629,-8.5991,-8.52,-8.4925,-8.4859,-8.4859,-8.5,-8.5112,-8.5112,-8.5112,-8.5112,-8.5112,-8.5112,-8.5112,-8.5112,-8.5442,-8.562,-8.562,-8.5975,-8.6152,-8.6329,-8.6769,-8.7119,-5.7621,0.0,-5.7783,-5.8421,-5.9447,-6.0551,-6.1273,-6.2309,-6.3183,-6.3183,-6.3183,-6.3216,-6.3206,-6.3249,-6.3196,-6.2968,-6.3308,-6.3498,-6.3225,-6.3994,-6.4529,-6.4562,-6.4406,-6.4672,0.0,-6.6112,-6.5982,-6.4936,-6.6013,-6.6463,-6.5952,-6.7035,-6.7304,-6.6511,-6.8798,-6.9597,-6.8551,-7.0255,-7.1221,-7.1447,-7.1609,-7.2277,-7.346,-7.4213,-7.4833,-7.5419,-7.6005,-7.6618,-7.7178,-7.7691,-7.7897,-7.7897,-7.8432,-7.8876,-7.929,-7.929,-7.929,-7.929,-7.929,-7.9554,-8.0078,-8.0513,-8.0686,-8.0859,-8.1831,-8.2086,-8.2171,-8.2623,-8.2791,-8.2791,-8.2791,-8.3127,-8.3522,-8.424,-8.472,-8.5258,-8.5926,-8.6071,-8.6245,-8.6884,-8.7,-8.7203,-8.7813,-8.7929,-8.7929,-8.7929,-8.7406,-8.6829,-8.637,-8.499,-8.3867,-8.343,-8.3876,-8.4213,-8.4213,-8.4775,-8.5112,-8.5112,-8.5112,-8.5112,-8.5112,-8.5112,-8.5112,-8.5112,-8.5112,-8.5112,-8.5112,-8.5112,-8.5381,-8.5798,-8.6329,-8.6769,-5.9587,0.0,-5.9878,-6.0558,-6.117,-6.1697,-6.1926,-6.2508,-6.3056,-6.3056,-6.3186,-6.3438,-6.3935,-6.387,-6.3903,-6.4276,-6.4604,-6.4738,-6.4424,-6.4932,-6.5203,-6.4857,-6.4818,0.0,0.0,0.0,0.0,-6.6116,-6.6401,-6.6711,-6.7159,-6.7267,-6.7664,-6.8518,-6.8863,-6.9203,-6.9419,-7.0447,-7.0988,-7.117,-7.1994,-7.326,-7.4697,-7.5042,-7.5622,-7.6476,-7.7065,-7.7619,-7.8165,-7.8343,-7.8521,-7.8876,-7.9053,-7.9378,-7.9729,-7.9729,-7.9991,-8.0166,-7.9904,-8.0078,-8.0513,-8.06,-8.0859,-8.1317,-8.1916,-8.2086,-8.2256,-8.3015,-8.3211,-8.3266,-8.36,-8.3766,-8.3907,-8.4109,-8.4333,-8.4591,-8.5258,-8.5403,-8.5578,-8.6216,-8.6361,-8.6419,-8.6623,-8.6681,-8.6681,-8.6681,-8.6341,-8.5853,-8.525,-8.4243,-8.3461,-8.3286,-8.3454,-8.3735,-8.4157,-8.4382,-8.4663,-8.5084,-8.5112,-8.5112,-8.5112,-8.5112,-8.5112,-8.5112,-8.5112,-8.5112,-8.5112,-8.5112,-8.5202,-8.5381,-8.5798,-8.6329,-6.0954,-6.1084,-6.1271,-6.1692,-6.2198,-6.2606,-6.2606,-6.3117,-6.3549,-6.3549,-6.3682,-6.398,-6.4442,-6.4374,-6.4458,-6.5089,-6.5255,-6.5268,-6.5239,-6.5492,-6.5605,-6.5504,-6.5523,-6.5451,0.0,0.0,0.0,-6.6789,-6.7115,-6.7466,-6.7901,-6.8127,-6.8546,-6.9401,-6.9439,-6.9806,-7.0475,-7.0933,-7.1386,-7.1914,-7.3072,-7.4208,-7.5521,-7.5766,-7.6357,-7.7275,-7.7895,-7.8343,-7.861,-7.8788,-7.9053,-7.929,-7.9466,-7.9817,-8.0253,-8.0253,-8.0513,-8.0859,-8.0426,-8.0513,-8.0973,-8.0973,-8.1317,-8.1745,-8.2171,-8.2425,-8.2679,-8.3433,-8.3683,-8.3683,-8.4014,-8.4097,-8.4097,-8.4097,-8.4097,-8.4213,-8.4649,-8.4736,-8.491,-8.5578,-8.5694,-8.5781,-8.5984,-8.6042,-8.5955,-8.5723,-8.5249,-8.4763,-8.4334,-8.3331,-8.2611,-8.2611,-8.2808,-8.3173,-8.382,-8.4073,-8.4466,-8.5056,-8.5112,-8.5112,-8.5112,-8.5112,-8.5112,-8.5112,-8.5112,-8.5112,-8.5112,-8.5112,-8.5112,-8.5112,-8.562,-8.5975,-6.1598,-6.1658,-6.1808,-6.1873,-6.2607,-6.331,-6.331,-6.4028,-6.4702,-6.4702,-6.4702,-6.4702,0.0,0.0,-6.4872,-6.531,-6.5188,-6.5239,-6.5623,-6.5625,-6.5807,0.0,0.0,0.0,0.0,0.0,0.0,-6.6994,0.0,-6.8656,-6.8245,-6.9462,-6.9858,-6.9247,-7.0493,-7.1331,-7.1528,-7.1661,-7.2385,-7.3514,-7.453,-7.5381,-7.5978,-7.6602,-7.7199,-7.7796,-7.8366,-7.861,-7.8699,-7.9114,-7.9378,-7.9378,-7.9817,-8.034,-8.0686,-8.0686,-8.1059,-8.1317,-8.0973,-8.1059,-8.1403,-8.1403,-8.1745,-8.2171,-8.2707,-8.3127,-8.3516,-8.4014,-8.4097,-8.4097,-8.4097,-8.4097,-8.4097,-8.4097,-8.4097,-8.4097,-8.4097,-8.4097,-8.4271,-8.491,-8.5026,-8.5229,-8.5839,-8.5926,-8.5723,-8.5113,-8.4242,-8.362,-8.362,-8.2341,-8.1403,-8.1403,-8.1909,-8.2527,-8.323,-8.382,-8.441,-8.5056,-8.5112,-8.5112,-8.5112,-8.5112,-8.5112,-8.5112,-8.5112,-8.5112,-8.5112,-8.5112,-8.5112,-8.5112,-8.5531,-8.5798,-6.1818,-6.1994,-6.2169,-6.2715,-6.3194,-6.3512,-6.3512,-6.397,-6.4426,-6.4426,-6.4564,-6.4702,0.0,0.0,0.0,-6.5091,-6.561,0.0,-6.5587,-6.6406,0.0,-6.6394,0.0,-6.6813,-6.7093,-6.6731,0.0,0.0,-6.8669,-6.8594,-6.8315,-6.9185,-6.9992,-7.063,-7.1167,-7.1528,-7.1608,-7.2242,-7.3068,-7.4159,-7.4923,-7.5688,-7.6629,-7.7226,-7.7823,-7.8393,-7.8883,-7.9114,-7.9114,-7.9641,-7.9991,-8.034,-8.0426,-8.0773,-8.1232,-8.1232,-8.1317,-8.1403,-8.166,-8.1575,-8.1489,-8.1831,-8.2001,-8.2256,-8.3015,-8.335,-8.3516,-8.4014,-8.4097,-8.4097,-8.4097,-8.4097,-8.4097,-8.4097,-8.4097,-8.4097,-8.4097,-8.4097,-8.4126,-8.43,-8.4329,-8.4387,-8.4562,-8.4591,-8.4533,-8.4358,-8.3609,-8.302,-8.302,-8.2086,-8.1403,-8.1403,-8.1544,-8.2078,-8.3173,-8.3426,-8.396,-8.5028,-8.5112,-8.5112,-8.5112,-8.5112,-8.5112,-8.5112,-8.5112,-8.5112,-8.5112,-8.5112,-8.5112,-8.5112,-8.5202,-8.5442,-6.2349,-6.2492,-6.2684,-6.3132,-6.3325,-6.3389,-6.3389,-6.3628,-6.3817,-6.3817,-6.3959,0.0,-6.4053,0.0,0.0,0.0,0.0,0.0,-6.5817,-6.6368,-6.6689,0.0,-6.6617,0.0,-6.7205,-6.7103,-6.732,0.0,-6.8619,-6.9021,-6.9152,-7.0043,-7.0876,-7.1569,-7.1797,-7.2124,-7.2465,-7.338,-7.394,-7.4401,-7.5224,-7.5991,-7.6846,-7.7618,-7.8304,-7.8965,0.0,-7.9641,-7.9641,-8.0078,-8.0426,-8.0686,-8.0973,-8.1146,-8.1403,-8.1403,-8.1575,-8.1745,-8.2001,-8.2086,-8.2086,-8.2369,-8.251,-8.2763,-8.3266,-8.3516,-8.3766,-8.4014,-8.4097,-8.4097,-8.4097,-8.4097,-8.4097,-8.4097,-8.4097,-8.4097,-8.4097,-8.4097,-8.4097,-8.4097,-8.4097,-8.4097,-8.4097,-8.4097,-8.4014,-8.3849,-8.3211,-8.2707,-8.2538,-8.1831,-8.1403,-8.1403,-8.1403,-8.1909,-8.3173,-8.3286,-8.3792,-8.5028,-8.5112,-8.5112,-8.5112,-8.5112,-8.5112,-8.5112,-8.5112,-8.5112,-8.5112,-8.5112,-8.5112,-8.5112,-8.5112,-8.5291,-6.2808,-6.2905,-6.3083,-6.3083,-6.3131,-6.3131,-6.3099,-6.3148,-6.3228,-6.3228,0.0,-6.3228,-6.3228,-6.3738,-6.4374,-6.4811,0.0,-6.5628,-6.5969,-6.5978,-6.5985,-6.6199,-6.6643,-6.6954,-6.7064,-6.7588,-6.7695,-6.7125,-6.8755,-6.9845,-7.024,-7.1268,-7.1969,-7.2365,-7.2587,-7.2964,-7.3652,-7.4588,-7.4913,-7.4594,-7.5675,-7.6444,-7.7069,-7.8076,-7.8885,-7.9378,0.0,0.0,-8.0078,-8.06,-8.0773,-8.0859,-8.1232,-8.1403,-8.1403,-8.1489,-8.1745,-8.2086,-8.2256,-8.2538,-8.2876,-8.2876,-8.3127,-8.3433,-8.3433,-8.3766,-8.4097,-8.4097,-8.4097,-8.4097,-8.4097,-8.4097,-8.4097,-8.4097,-8.4097,-8.4097,-8.4097,-8.4097,-8.4097,-8.4097,-8.4097,-8.4097,-8.4097,-8.4097,-8.3932,-8.3433,-8.3044,-8.2623,-8.2171,-8.166,-8.1403,-8.1403,-8.1403,-8.1881,-8.3061,-8.323,-8.3764,-8.4916,-8.5056,-8.5112,-8.5112,-8.5112,-8.5112,-8.5112,-8.5112,-8.5112,-8.5112,-8.5112,-8.5112,-8.5112,-8.5112,-8.5112,-6.2464,-6.2513,-6.2545,-6.2545,-6.271,-6.2825,-6.2568,-6.2858,0.0,0.0,-6.3228,-6.3228,-6.3228,-6.3857,-6.4475,-6.4551,0.0,0.0,0.0,0.0,-6.6229,0.0,0.0,-6.7373,-6.764,0.0,0.0,0.0,0.0,0.0,-7.0692,-7.1548,-7.2611,-7.3838,-7.3891,-7.4187,-7.4696,-7.4889,-7.5188,-7.5675,-7.673,-7.7502,-7.819,-7.9229,-7.9821,-7.9904,0.0,0.0,-8.06,-8.1059,-8.1317,-8.1317,-8.1403,-8.1403,-8.1489,-8.1831,-8.2001,-8.2171,-8.2931,-8.3182,-8.3266,-8.3266,-8.335,-8.3433,-8.3849,-8.4014,-8.4097,-8.4097,-8.4097,-8.4097,-8.4097,-8.4097,-8.4097,-8.4097,-8.4097,-8.4097,-8.4097,-8.4097,-8.4097,-8.4097,-8.4097,-8.4097,-8.4097,-8.4097,-8.3932,-8.3433,-8.3044,-8.2623,-8.2171,-8.166,-8.1403,-8.1403,-8.1403,-8.1684,-8.2415,-8.2977,-8.3595,-8.4297,-8.4831,-8.5112,-8.5112,-8.5112,-8.5112,-8.5112,-8.5112,-8.5112,-8.5112,-8.5112,-8.5112,-8.5112,-8.5112,-8.5112,-6.2396,-6.2266,-6.2247,-6.2392,-6.2279,-6.2184,-6.2135,0.0,0.0,0.0,-6.2365,-6.2459,-6.2838,0.0,0.0,0.0,0.0,0.0,0.0,0.0,0.0,0.0,0.0,0.0,0.0,0.0,0.0,0.0,0.0,0.0,-7.2061,-7.2984,-7.376,-7.416,-7.4459,-7.4893,-7.5463,-7.549,-7.5874,-7.673,-7.7589,-7.8227,-7.8761,-7.9889,-8.034,-8.034,0.0,0.0,-8.1059,-8.1317,-8.1403,-8.1403,-8.166,-8.1745,-8.1831,-8.2256,-8.2594,-8.2847,-8.3266,-8.3516,-8.3766,-8.3766,-8.3766,-8.3849,-8.4014,-8.4097,-8.4097,-8.4097,-8.4097,-8.4097,-8.4097,-8.4097,-8.4097,-8.4097,-8.4097,-8.4097,-8.4097,-8.4097,-8.4097,-8.4097,-8.4097,-8.4097,-8.4097,-8.3932,-8.36,-8.3127,-8.2707,-8.2256,-8.1831,-8.1575,-8.1403,-8.1403,-8.1403,-8.1628,-8.2274,-8.2892,-8.3539,-8.4157,-8.4775,-8.5112,-8.5112,-8.5112,-8.5112,-8.5112,-8.5112,-8.5112,-8.5112,-8.5112,-8.5112,-8.5112,-8.5112,-8.5112,-6.2315,-6.2116,-6.1916,-6.2142,-6.1878,-6.1613,-6.1726,-6.182,0.0,0.0,-6.1925,-6.2206,-6.2736,0.0,-6.376,0.0,0.0,0.0,0.0,0.0,0.0,0.0,0.0,0.0,0.0,0.0,0.0,0.0,0.0,0.0,0.0,-7.4497,-7.4937,-7.4876,-7.5228,-7.5745,-7.6344,-7.6344,-7.6928,-7.7875,-7.8455,-7.899,-7.9474,-8.0405,-8.0859,-8.0859,0.0,0.0,0.0,-8.1489,-8.1575,-8.1575,-8.2086,-8.2256,-8.2284,-8.2791,-8.3127,-8.3433,-8.3516,-8.3766,-8.4097,-8.4097,-8.4097,-8.4097,-8.4097,-8.4097,-8.4097,-8.4097,-8.4097,-8.4097,-8.4097,-8.3981,-8.3865,-8.372,-8.3691,-8.3691,-8.3691,-8.3691,-8.372,-8.3865,-8.3894,-8.3952,-8.4068,-8.3683,-8.3266,-8.2876,-8.2369,-8.1916,-8.1489,-8.1403,-8.1403,-8.1403,-8.1403,-8.16,-8.2078,-8.2696,-8.3286,-8.3764,-8.4494,-8.4916,-8.4916,-8.5028,-8.5112,-8.5112,-8.5112,-8.5112,-8.5112,-8.5112,-8.5112,-8.5112,-8.5112,-8.5112,-6.2016,-6.1866,-6.1633,-6.1457,-6.152,-6.1551,-6.1407,0.0,0.0,-6.2518,-6.3017,-6.3402,-6.3495,-6.3632,-6.3803,0.0,0.0,-6.4654,0.0,0.0,0.0,0.0,0.0,0.0,0.0,0.0,0.0,0.0,0.0,0.0,0.0,-7.5406,-7.5903,-7.7007,-7.709,-7.7421,-7.8028,-7.8028,-7.8331,-7.8938,-7.9424,-7.9987,-8.0544,-8.1118,-8.1317,-8.1317,0.0,0.0,0.0,-8.1831,-8.2001,-8.2086,-8.2538,-8.2707,-8.2791,-8.3182,-8.335,-8.3433,-8.3932,-8.4097,-8.4097,-8.4097,-8.4097,-8.4097,-8.4097,-8.4097,-8.4097,-8.4097,-8.4097,-8.4097,-8.4097,-8.3691,-8.311,-8.25,-8.2355,-8.2355,-8.2355,-8.2355,-8.2559,-8.3168,-8.3284,-8.3458,-8.401,-8.3683,-8.3266,-8.2876,-8.2369,-8.1916,-8.1489,-8.1403,-8.1403,-8.1403,-8.1403,-8.1403,-8.1488,-8.205,-8.2415,-8.2471,-8.3623,-8.4269,-8.4269,-8.4803,-8.5112,-8.5112,-8.5112,-8.5112,-8.5112,-8.5112,-8.5112,-8.5112,-8.5112,-8.5112,-6.1765,-6.1563,-6.1359,-6.1328,-6.1485,-6.1722,-6.1805,0.0,0.0,-6.2712,-6.28,-6.3002,-6.3402,-6.3353,-6.336,-6.3619,0.0,0.0,0.0,0.0,0.0,0.0,0.0,0.0,0.0,0.0,0.0,0.0,0.0,0.0,0.0,0.0,-7.665,-7.7257,-7.7312,-7.7754,-7.8721,-7.8748,-7.9224,-8.0065,-8.0496,-8.1065,-8.1575,-8.2001,-8.2256,-8.2256,0.0,0.0,0.0,-8.2454,-8.2538,-8.2538,-8.3015,-8.3211,-8.3182,-8.3683,-8.3849,-8.3849,-8.4014,-8.4097,-8.4097,-8.4097,-8.4097,-8.4097,-8.4097,-8.4097,-8.4097,-8.4097,-8.3836,-8.3546,-8.3546,-8.3081,-8.253,-8.2268,-8.2181,-8.2181,-8.2181,-8.2181,-8.2268,-8.253,-8.2588,-8.2709,-8.3101,-8.2774,-8.2418,-8.2368,-8.2001,-8.1575,-8.1403,-8.1403,-8.1403,-8.1403,-8.1403,-8.1403,-8.1403,-8.1965,-8.2302,-8.2302,-8.3145,-8.3651,-8.3651,-8.3876,-8.4016,-8.4016,-8.4354,-8.455,-8.455,-8.4916,-8.5112,-8.5112,-8.4747,-8.455,-6.1512,-6.1463,-6.1361,-6.1444,-6.1782,-6.2148,0.0,0.0,0.0,-6.2995,-6.2908,-6.2994,-6.3507,-6.329,-6.3196,-6.3604,0.0,-6.4308,0.0,0.0,0.0,0.0,0.0,0.0,0.0,0.0,0.0,0.0,0.0,0.0,0.0,0.0,-7.7677,-7.7955,-7.8177,-7.876,-7.9788,-7.9788,-8.0182,-8.1146,-8.1489,-8.1831,-8.2369,-8.2623,-8.2791,0.0,0.0,0.0,0.0,-8.296,-8.296,-8.3044,-8.3433,-8.36,-8.3683,-8.4014,-8.4097,-8.4097,-8.4097,-8.4097,-8.4097,-8.4097,-8.4097,-8.4068,-8.3865,-8.3952,-8.4039,-8.3865,-8.3371,-8.2849,-8.2646,-8.2239,-8.1862,-8.1659,-8.163,-8.163,-8.163,-8.163,-8.1688,-8.1862,-8.181,-8.1881,-8.219,-8.1872,-8.1629,-8.1831,-8.1633,-8.1403,-8.1403,-8.1403,-8.1403,-8.1403,-8.1403,-8.1403,-8.1403,-8.1797,-8.205,-8.205,-8.264,-8.2977,-8.2977,-8.3173,-8.3286,-8.3286,-8.3855,-8.4081,-8.4081,-8.4708,-8.4906,-8.4906,-8.4366,-8.3908,-6.1206,-6.1495,-6.1809,-6.1809,-6.2302,-6.2794,0.0,0.0,0.0,-6.3373,-6.3701,-6.3963,-6.3963,-6.3736,-6.3604,-6.3917,-6.4279,0.0,0.0,0.0,0.0,0.0,0.0,0.0,0.0,0.0,0.0,0.0,0.0,0.0,0.0,0.0,-7.8874,-7.9549,-8.0139,-8.0757,-8.1375,-8.1403,-8.166,-8.2086,-8.2086,-8.2369,-8.2791,-8.2791,0.0,0.0,0.0,0.0,0.0,-8.3182,-8.335,-8.3433,-8.3932,-8.4097,-8.4097,-8.4097,-8.4097,-8.4097,-8.4097,-8.4097,-8.4097,-8.4097,-8.4097,-8.3981,-8.3371,-8.3633,-8.3981,-8.3371,-8.2733,-8.2065,-8.1397,-8.1223,-8.1049,-8.0468,-8.0323,-8.0323,-8.0323,-8.0323,-8.0497,-8.1078,-8.0903,-8.0784,-8.1446,-8.142,-8.1179,-8.1179,-8.135,-8.1403,-8.1403,-8.1403,-8.1403,-8.1403,-8.1403,-8.1403,-8.1403,-8.1403,-8.1403,-8.1403,-8.1993,-8.233,-8.233,-8.2949,-8.3286,-8.3286,-8.3695,-8.3869,-8.3869,-8.4418,-8.4591,-8.4591,-8.413,-8.3356,-6.1483,-6.155,-6.1645,-6.2105,-6.2524,-6.2903,-6.2903,0.0,0.0,-6.3827,-6.3728,-6.3652,-6.3652,-6.3582,-6.3533,-6.3624,-6.4508,0.0,0.0,0.0,0.0,0.0,0.0,0.0,0.0,0.0,0.0,0.0,0.0,0.0,0.0,0.0,0.0,-7.9549,-8.0167,-8.0785,-8.1375,-8.1745,-8.1916,-8.2086,-8.2679,-8.3099,-8.3182,-8.3878,0.0,0.0,0.0,0.0,0.0,-8.4291,-8.4374,-8.4374,-8.4807,-8.497,-8.497,-8.4673,-8.462,-8.4538,-8.418,-8.4097,-8.401,-8.3604,-8.3458,-8.3342,-8.2704,-8.2965,-8.3255,-8.2123,-8.1659,-8.1368,-8.0759,-8.0585,-8.0527,-8.0352,-8.0294,-8.0294,-8.0294,-8.0057,-7.9848,-8.005,-7.976,-7.9587,-8.0,-8.0268,-8.0558,-8.0673,-8.1095,-8.1403,-8.1403,-8.1403,-8.1403,-8.1403,-8.1403,-8.1403,-8.1403,-8.1403,-8.1403,-8.1403,-8.1572,-8.1684,-8.1684,-8.2225,-8.251,-8.251,-8.3278,-8.3763,-8.3763,-8.4362,-8.4248,-8.3477,-8.3305,-8.2706,0.0,-6.1546,-6.1805,-6.2421,-6.295,0.0,0.0,0.0,0.0,-6.3823,-6.3595,-6.3369,-6.3494,-6.3503,-6.3565,-6.3829,-6.4787,0.0,0.0,0.0,0.0,0.0,0.0,0.0,0.0,0.0,0.0,0.0,0.0,0.0,0.0,0.0,0.0,-7.98,-8.0476,-8.1095,-8.166,-8.1916,-8.2256,-8.2594,-8.3099,-8.36,-8.3932,0.0,0.0,0.0,0.0,0.0,0.0,-8.5,-8.5,-8.5081,-8.5295,-8.5376,-8.5376,-8.5081,-8.4772,-8.4404,-8.4048,-8.3739,-8.3313,-8.2936,-8.2646,-8.2355,-8.1949,-8.2094,-8.2268,-8.1426,-8.102,-8.0759,-8.041,-8.0294,-8.0294,-8.0294,-8.0294,-8.0215,-8.0057,-7.9791,-7.9552,-7.9392,-7.902,-7.884,-7.8913,-7.9484,-8.0024,-8.0167,-8.0869,-8.1403,-8.1403,-8.1403,-8.1403,-8.1403,-8.1403,-8.1403,-8.1403,-8.1403,-8.1403,-8.1403,-8.1403,-8.1403,-8.1403,-8.166,-8.1916,-8.2086,-8.2908,-8.3447,-8.3617,-8.4159,-8.3904,-8.2937,-8.2937,-8.2369,0.0,-6.1449,0.0,0.0,0.0,0.0,0.0,0.0,0.0,0.0,-6.3339,-6.326,-6.3476,-6.3565,-6.386,-6.4455,-6.5119,0.0,0.0,0.0,0.0,0.0,0.0,0.0,0.0,0.0,0.0,0.0,0.0,0.0,0.0,0.0,0.0,0.0,-8.104,-8.1689,-8.2171,-8.2171,-8.2594,-8.3433,-8.3433,-8.3932,-8.4784,0.0,0.0,0.0,0.0,0.0,0.0,-8.5457,-8.5457,-8.5457,-8.5457,-8.5457,-8.5457,-8.5428,-8.4773,-8.387,-8.3811,-8.3079,-8.2262,-8.2123,-8.1659,-8.1136,-8.1136,-8.1136,-8.1136,-8.1136,-8.073,-8.0294,-8.0294,-8.0294,-8.0294,-8.0294,-8.0215,-8.0136,-7.9632,-7.9552,-7.9392,-7.902,-7.8617,-7.8321,-7.8378,-7.9039,-7.9577,-7.9633,-8.0645,-8.1403,-8.1403,-8.1403,-8.1403,-8.1403,-8.1403,-8.1403,-8.1403,-8.1403,-8.1403,-8.1403,-8.1403,-8.1403,-8.1403,-8.1403,-8.166,-8.2086,-8.2538,-8.3044,-8.3433,-8.3849,-8.36,-8.2791,-8.2791,-8.2256,-6.0756,0.0,-6.1901,-6.3052,-6.3361,-6.3309,0.0,0.0,0.0,0.0,0.0,-6.371,-6.3565,-6.4097,-6.4737,-6.5216,-6.5979,0.0,0.0,0.0,0.0,0.0,0.0,0.0,0.0,0.0,0.0,0.0,0.0,0.0,0.0,0.0,0.0,0.0,-8.1371,-8.2026,-8.2623,-8.2931,-8.3182,-8.3433,-8.4126,-8.462,-8.4784,0.0,0.0,0.0,0.0,0.0,0.0,-8.592,-8.592,-8.6,-8.629,-8.642,-8.6281,-8.5486,-8.498,-8.4614,-8.3474,-8.2861,-8.2496,-8.1681,-8.102,-8.0497,-8.0497,-8.0497,-8.0497,-8.0497,-8.041,-8.0294,-8.0294,-8.0294,-8.0215,-7.987,-7.9791,-7.9632,-7.9232,-7.8859,-7.8617,-7.8565,-7.8212,-7.7998,-7.8477,-7.9126,-7.9717,-8.0195,-8.0897,-8.1403,-8.1403,-8.1403,-8.1403,-8.1403,-8.1403,-8.1403,-8.1403,-8.1403,-8.1403,-8.1403,-8.1403,-8.1403,-8.1403,-8.1745,-8.2001,-8.2086,-8.2538,-8.3044,-8.3433,-8.3182,-8.3044,-8.2791,-8.2454,-8.1916,-6.08,-6.1216,-6.1627,-6.2979,-6.3194,-6.3079,-6.3079,0.0,0.0,0.0,0.0,0.0,-6.4128,-6.4769,-6.5308,-6.5635,-6.6869,0.0,0.0,0.0,0.0,0.0,0.0,0.0,0.0,0.0,0.0,0.0,0.0,0.0,0.0,0.0,0.0,0.0,0.0,-8.1865,-8.3015,-8.3266,-8.3516,-8.3766,-8.4456,-8.4866,-8.5081,0.0,0.0,0.0,0.0,0.0,-8.637,-8.653,-8.6609,-8.6689,-8.7054,-8.7031,-8.6729,-8.5929,-8.5156,-8.4276,-8.3293,-8.2497,-8.1809,-8.1063,-8.0556,-8.0294,-8.0057,-7.9978,-8.0057,-8.0215,-8.0294,-8.0215,-8.0057,-7.9978,-7.9899,-7.9392,-7.9312,-7.9232,-7.8779,-7.8565,-7.8321,-7.813,-7.8083,-7.82,-7.8537,-7.938,-8.0083,-8.042,-8.101,-8.1403,-8.1403,-8.1403,-8.1403,-8.1403,-8.1403,-8.1317,-8.1146,-8.1059,-8.1146,-8.1403,-8.1403,-8.1403,-8.1403,-8.166,-8.1916,-8.2086,-8.2538,-8.2876,-8.3099,-8.2876,-8.2707,-8.2454,-8.2171,-8.1831,-6.0715,-6.1104,-6.1433,-6.275,-6.3079,-6.3109,-6.3286,0.0,0.0,0.0,0.0,0.0,0.0,-6.54,0.0,0.0,0.0,0.0,0.0,0.0,0.0,0.0,0.0,0.0,0.0,0.0,0.0,0.0,0.0,0.0,0.0,0.0,0.0,0.0,0.0,0.0,-8.3228,-8.3228,-8.3394,-8.3807,-8.4328,-8.4846,-8.5229,-8.5822,0.0,0.0,0.0,0.0,-8.6847,-8.7241,-8.7398,-8.7447,-8.7638,-8.7398,-8.6805,-8.6239,-8.507,-8.3666,-8.3068,-8.1986,-8.0844,-8.0452,-8.0294,-8.0215,-7.9711,-7.9632,-7.9632,-7.9978,-8.0136,-7.9978,-7.9632,-7.9472,-7.9392,-7.902,-7.894,-7.8779,-7.8374,-7.8293,-7.8159,-7.7888,-7.8256,-7.865,-7.8846,-7.9773,-8.0504,-8.0616,-8.1066,-8.1403,-8.1403,-8.1403,-8.1403,-8.1317,-8.1317,-8.1146,-8.06,-8.06,-8.0773,-8.1146,-8.1232,-8.1232,-8.1317,-8.1317,-8.1489,-8.2001,-8.2369,-8.2623,-8.2707,-8.2623,-8.2454,-8.2086,-8.2001,-8.1745,-6.0756,-6.1096,-6.1433,-6.275,-6.3079,-6.3316,-6.4034,0.0,0.0,0.0,0.0,0.0,0.0,0.0,0.0,0.0,0.0,0.0,0.0,0.0,0.0,0.0,0.0,0.0,0.0,0.0,0.0,0.0,0.0,0.0,0.0,0.0,0.0,0.0,0.0,0.0,0.0,-8.239,-8.239,-8.2471,-8.3306,-8.3999,-8.4551,-8.5377,-8.6071,0.0,0.0,0.0,-8.7241,-8.7603,-8.7837,-8.7776,-8.7277,-8.7004,-8.6684,-8.5182,-8.4411,-8.3988,-8.2302,-8.137,-8.0844,-8.0452,-8.0294,-8.0215,-7.9711,-7.9632,-7.9552,-7.9261,-7.9181,-7.9181,-7.9101,-7.9101,-7.902,-7.8565,-7.8484,-7.8403,-7.7939,-7.7776,-7.7917,-7.8369,-7.8537,-7.8931,-7.9998,-8.0364,-8.0645,-8.1178,-8.1347,-8.1403,-8.1403,-8.1403,-8.1232,-8.0859,-8.0773,-8.06,-8.0166,-8.0078,-8.0166,-8.0166,-8.0166,-8.034,-8.0773,-8.0773,-8.1059,-8.1489,-8.1575,-8.1831,-8.2171,-8.1831,-8.1745,-8.2086,-8.166,-8.1489,-6.0927,-6.1181,-6.1433,-6.275,-6.3079,-6.3316,-6.4005,0.0,0.0,0.0,0.0,0.0,0.0,0.0,0.0,0.0,0.0,0.0,0.0,0.0,0.0,0.0,0.0,0.0,0.0,0.0,0.0,0.0,0.0,0.0,0.0,0.0,0.0,0.0,0.0,0.0,-8.1659,-8.1339,-8.1514,-8.2181,-8.2853,-8.3399,-8.3932,-8.4536,-8.5286,0.0,0.0,-8.6988,-8.732,-8.8022,-8.8041,-8.7706,-8.76,-8.7096,-8.6256,-8.4652,-8.3869,-8.331,-8.1941,-8.136,-8.1127,-8.053,-8.0294,-8.0136,-7.9472,-7.9261,-7.9152,-7.8508,-7.8589,-7.894,-7.8698,-7.8726,-7.8536,-7.813,-7.8049,-7.7939,-7.7776,-7.7947,-7.8256,-7.8537,-7.9155,-7.9802,-8.0392,-8.0757,-8.1066,-8.1347,-8.1403,-8.1403,-8.1403,-8.1232,-8.0973,-8.0686,-8.0426,-8.0078,-7.9641,-7.9641,-7.9729,-7.9991,-7.9991,-8.0078,-8.034,-8.06,-8.0773,-8.1059,-8.1317,-8.1489,-8.1745,-8.1489,-8.1489,-8.1745,-8.1489,-8.1235,-6.1132,-6.1271,-6.1433,-6.275,-6.3199,-6.3468,-6.4096,-6.4366,-6.4814,-6.6011,0.0,0.0,0.0,0.0,0.0,0.0,0.0,0.0,0.0,0.0,0.0,0.0,0.0,0.0,0.0,0.0,0.0,0.0,0.0,0.0,0.0,0.0,0.0,0.0,0.0,0.0,-8.0991,-8.0527,-8.0788,-8.1746,-8.2305,-8.279,-8.3254,-8.3804,-8.4522,-8.5462,-8.6007,-8.6541,-8.6994,-8.7951,-8.7951,-8.7491,-8.7639,-8.681,-8.5452,-8.4342,-8.3416,-8.2693,-8.19,-8.1592,-8.136,-8.0687,-8.0373,-8.0136,-7.9261,-7.902,-7.8859,-7.7939,-7.8184,-7.8617,-7.8293,-7.8212,-7.813,-7.7776,-7.7694,-7.7722,-7.7863,-7.8256,-7.8678,-7.8987,-7.983,-8.0532,-8.0673,-8.1094,-8.1403,-8.1403,-8.1403,-8.1403,-8.1232,-8.0834,-8.0405,-8.0232,-7.9747,-7.9284,-7.8983,-7.9032,-7.929,-7.9641,-7.9641,-7.9729,-7.9817,-8.0114,-8.0405,-8.0491,-8.0781,-8.0982,-8.0982,-8.0982,-8.0982,-8.0982,-8.0982,-8.0729,-6.1112,-6.1276,-6.1433,-6.275,-6.3498,-6.4126,-6.4814,-6.5413,-6.6221,-6.7537,-6.7011,0.0,0.0,0.0,0.0,0.0,0.0,0.0,0.0,0.0,0.0,0.0,0.0,0.0,0.0,0.0,0.0,0.0,0.0,0.0,0.0,0.0,0.0,0.0,0.0,0.0,-8.0381,-8.0323,-8.0352,-8.0439,-8.1195,-8.1908,-8.2576,-8.3431,-8.4098,-8.4773,-8.5621,-8.5956,-8.6063,-8.6923,-8.7297,-8.7204,-8.6527,-8.5378,-8.4073,-8.3938,-8.3416,-8.2769,-8.2206,-8.1823,-8.1437,-8.1,-8.0609,-8.0136,-7.9261,-7.902,-7.8859,-7.7939,-7.7776,-7.7776,-7.7776,-7.7776,-7.7776,-7.7694,-7.7694,-7.7835,-7.8397,-7.8565,-7.8931,-8.0111,-8.042,-8.0673,-8.1235,-8.1375,-8.1403,-8.1403,-8.1403,-8.1232,-8.0773,-8.0213,-7.9507,-7.8643,-7.8062,-7.7693,-7.783,-7.8285,-7.8699,-7.8699,-7.8699,-7.8876,-7.929,-7.9293,-7.9421,-7.985,-7.9801,-7.9689,-7.9689,-7.9689,-7.9689,-7.9689,-7.9689,-7.9689,-6.1494,-6.1721,-6.2032,-6.3318,-6.4156,-6.4695,-6.4964,-6.5862,-6.6909,-6.7929,-6.8728,-6.9784,0.0,0.0,0.0,0.0,0.0,0.0,0.0,0.0,0.0,0.0,0.0,0.0,0.0,0.0,0.0,0.0,0.0,0.0,0.0,0.0,0.0,0.0,0.0,0.0,0.0,-8.1078,-8.1078,-8.1078,-8.1078,-8.1429,-8.1898,-8.2439,-8.318,-8.4115,-8.4956,-8.5547,-8.5987,-8.6875,-8.6927,-8.6435,-8.5434,-8.4594,-8.3863,-8.364,-8.3266,-8.2769,-8.2282,-8.1823,-8.1437,-8.1078,-8.0609,-8.0136,-7.9261,-7.902,-7.8859,-7.7939,-7.7694,-7.7694,-7.7694,-7.7694,-7.7694,-7.7694,-7.7694,-7.7863,-7.8453,-7.8902,-7.9464,-8.0307,-8.0785,-8.1122,-8.1347,-8.1403,-8.1403,-8.1403,-8.1146,-8.0747,-8.0185,-7.9418,-7.8596,-7.7894,-7.7388,-7.7101,-7.7145,-7.7389,-7.7498,-7.7498,-7.785,-7.8128,-7.8304,-7.8428,-7.8613,-7.8784,-7.9353,-7.9577,-7.9577,-7.9577,-7.9577,-7.9577,-7.9577,-7.9352,-6.1745,-6.1984,-6.2421,-6.3677,0.0,0.0,-6.5562,-6.652,-6.7629,-6.865,-7.0295,-7.1894,-7.3236,0.0,0.0,0.0,0.0,0.0,0.0,0.0,0.0,0.0,0.0,0.0,0.0,0.0,0.0,0.0,0.0,0.0,0.0,0.0,0.0,0.0,0.0,0.0,0.0,-8.1514,-8.1514,-8.1514,-8.1389,-8.1437,-8.1669,-8.213,-8.2703,-8.3427,-8.4261,-8.4909,-8.5379,-8.6231,-8.625,-8.5684,-8.4827,-8.4277,-8.3863,-8.3521,-8.3146,-8.2769,-8.2282,-8.1823,-8.1437,-8.1078,-8.0609,-8.0136,-7.9421,-7.9101,-7.8859,-7.8102,-7.7776,-7.7694,-7.7694,-7.7694,-7.7694,-7.7694,-7.7835,-7.8144,-7.8762,-7.9408,-8.0026,-8.0645,-8.1122,-8.1403,-8.1403,-8.1403,-8.1403,-8.1403,-8.0973,-8.0405,-7.9707,-7.8769,-7.7725,-7.6847,-7.6585,-7.6548,-7.6548,-7.6711,-7.6846,-7.6846,-7.7036,-7.7226,-7.7443,-7.7737,-7.792,-7.792,-7.8653,-7.8959,-7.8959,-7.8959,-7.8959,-7.8959,-7.8959,-7.8734,-6.1692,-6.2031,-6.2421,0.0,0.0,0.0,-6.67,-6.7508,-6.8375,-6.9722,-7.1547,-7.3096,-7.3729,-7.4031,0.0,0.0,0.0,0.0,0.0,0.0,0.0,0.0,0.0,0.0,0.0,0.0,0.0,0.0,0.0,0.0,0.0,0.0,0.0,0.0,0.0,0.0,0.0,-8.1514,-8.1514,-8.1514,-8.19,-8.2053,-8.213,-8.2617,-8.2844,-8.2844,-8.3566,-8.3938,-8.3938,-8.4747,-8.5111,-8.5039,-8.4643,-8.4277,-8.3863,-8.3521,-8.3146,-8.2769,-8.2282,-8.1823,-8.1437,-8.1078,-8.0609,-8.0215,-7.9711,-7.9312,-7.894,-7.8484,-7.8049,-7.7694,-7.7694,-7.7694,-7.7694,-7.7694,-7.8172,-7.879,-7.9436,-8.0054,-8.0673,-8.1263,-8.1403,-8.1403,-8.1403,-8.1403,-8.1403,-8.1403,-8.0945,-8.0291,-7.9249,-7.8125,-7.6874,-7.5137,-7.5544,-7.5897,-7.5897,-7.6467,-7.6819,-7.6819,-7.6222,-7.6168,-7.6792,-7.7106,-7.7284,-7.7284,-7.7591,-7.7694,-7.7694,-7.7694,-7.7694,-7.7694,-7.7694,-7.7694,-6.1838,-6.2668,0.0,-6.4456,0.0,0.0,0.0,-6.8555,0.0,0.0,-7.2737,-7.3814,-7.5069,0.0,0.0,0.0,0.0,0.0,0.0,0.0,0.0,0.0,0.0,0.0,0.0,0.0,0.0,0.0,0.0,0.0,0.0,0.0,0.0,0.0,0.0,0.0,0.0,0.0,-8.2435,-8.2465,-8.2541,-8.2435,-8.213,-8.2617,-8.2844,-8.2844,-8.3566,-8.3938,-8.3938,-8.4747,-8.5111,-8.5039,-8.4643,-8.4277,-8.3863,-8.3521,-8.3146,-8.2769,-8.2282,-8.1823,-8.1437,-8.1078,-8.0609,-8.0215,-7.9711,-7.9312,-7.894,-7.8484,-7.8049,-7.7694,-7.7694,-7.8003,-7.8312,-7.8312,-7.8453,-7.8902,-7.997,-8.0335,-8.0673,-8.1263,-8.1403,-8.1403,-8.1403,-8.1403,-8.1403,-8.1403,-8.0324,-7.8911,-7.7092,-7.6181,-7.5578,-7.5055,-7.5164,-7.5273,-7.5273,-7.5463,-7.5544,-7.5544,-7.5381,-7.5544,-7.6141,-7.6194,-7.6314,-7.6677,-7.7037,-7.7338,-7.7694,-7.7694,-7.7694,-7.7694,-7.7338,-7.7174,-6.2092,0.0,0.0,0.0,0.0,-6.7478,-6.9333,0.0,0.0,0.0,0.0,-7.4172,-7.5707,0.0,0.0,0.0,0.0,0.0,0.0,0.0,0.0,0.0,0.0,0.0,0.0,0.0,0.0,0.0,0.0,0.0,0.0,0.0,0.0,0.0,0.0,0.0,0.0,0.0,0.0,-8.2844,-8.2844,-8.2693,-8.2388,-8.2693,-8.2844,-8.2844,-8.3566,-8.4086,-8.4454,-8.4893,-8.5111,-8.5039,-8.4643,-8.4277,-8.3863,-8.3521,-8.3146,-8.2693,-8.2053,-8.1669,-8.1389,-8.0844,-8.053,-8.0215,-7.9978,-7.9552,-7.9181,-7.8779,-7.8293,-7.7939,-7.7776,-7.8144,-7.8593,-7.8593,-7.8987,-7.9549,-8.0307,-8.0673,-8.0954,-8.1319,-8.1403,-8.1403,-8.1403,-8.1207,-8.1038,-8.1038,-7.9514,-7.7771,-7.6091,-7.5381,-7.5028,-7.5028,-7.5028,-7.5028,-7.5028,-7.5028,-7.5028,-7.5028,-7.5028,-7.5164,-7.5544,-7.5615,-7.5871,-7.6123,-7.6705,-7.7091,-7.742,-7.742,-7.742,-7.742,-7.6954,-7.6788,0.0,0.0,0.0,0.0,0.0,0.0,0.0,0.0,-7.2176,-7.2864,0.0,0.0,0.0,0.0,0.0,0.0,0.0,0.0,0.0,0.0,0.0,0.0,0.0,0.0,0.0,0.0,0.0,0.0,0.0,0.0,0.0,0.0,0.0,0.0,0.0,0.0,0.0,0.0,0.0,0.0,-8.2784,-8.2679,-8.2679,-8.2739,-8.2844,-8.292,-8.3566,-8.4381,-8.5039,-8.5111,-8.5111,-8.5039,-8.4717,-8.4277,-8.3863,-8.3596,-8.3146,-8.2693,-8.1823,-8.1514,-8.136,-8.0609,-8.0294,-8.0294,-8.0294,-7.9978,-7.9552,-7.9101,-7.8698,-7.8321,-7.7914,-7.8228,-7.8706,-7.8762,-7.9633,-8.0504,-8.056,-8.101,-8.1403,-8.1403,-8.1403,-8.1375,-8.1319,-8.0841,-8.0448,-8.0251,-7.8511,-7.6919,-7.5928,-7.5354,-7.5028,-7.5028,-7.5028,-7.5028,-7.5028,-7.5028,-7.5028,-7.5028,-7.5028,-7.5028,-7.5028,-7.5424,-7.5676,-7.5676,-7.6512,-7.6926,-7.6926,-7.6926,-7.6926,-7.6926,-7.6539,-7.6317,0.0,0.0,0.0,0.0,0.0,0.0,0.0,0.0,0.0,0.0,0.0,0.0,0.0,0.0,0.0,0.0,0.0,0.0,0.0,0.0,0.0,0.0,0.0,0.0,0.0,0.0,0.0,0.0,0.0,0.0,0.0,0.0,0.0,0.0,0.0,0.0,-8.2844,-8.2844,-8.2844,0.0,-8.223,-8.1991,-8.202,-8.2529,-8.2995,-8.3296,-8.3715,-8.4129,-8.4643,-8.4966,-8.5111,-8.5111,-8.5039,-8.4497,-8.3863,-8.3789,-8.3341,-8.2693,-8.213,-8.1746,-8.1437,-8.0922,-8.053,-8.0294,-8.0294,-7.9978,-7.9552,-7.9101,-7.8698,-7.8406,-7.8367,-7.8874,-7.9492,-7.997,-8.0279,-8.0616,-8.1094,-8.1291,-8.1403,-8.1403,-8.1403,-8.1235,-8.0757,-8.056,-7.9885,-7.826,-7.7647,-7.6781,-7.5358,-7.5083,-7.5028,-7.5028,-7.5028,-7.5028,-7.5028,-7.5028,-7.5028,-7.5028,-7.5028,-7.5028,-7.5028,-7.5113,-7.5339,-7.5676,-7.5844,-7.6206,-7.6567,-7.6567,-7.6567,-7.6567,-7.6039,-7.5619,0.0,0.0,0.0,0.0,0.0,0.0,0.0,0.0,0.0,0.0,0.0,0.0,0.0,0.0,0.0,0.0,0.0,0.0,0.0,0.0,0.0,0.0,0.0,0.0,0.0,0.0,0.0,0.0,0.0,0.0,0.0,0.0,0.0,0.0,0.0,0.0,-8.1811,-8.1811,-8.1811,-8.1811,-8.1482,-8.1302,-8.1332,-8.1661,-8.2215,-8.2964,-8.3335,-8.3855,-8.457,-8.4935,-8.5111,-8.5111,-8.5111,-8.4747,-8.4129,-8.4012,-8.3566,-8.2995,-8.2282,-8.1976,-8.1669,-8.1049,-8.0766,-8.053,-8.0373,-8.0136,-7.987,-7.9392,-7.922,-7.9076,-7.895,-7.9491,-8.0083,-8.042,-8.0701,-8.101,-8.1319,-8.1403,-8.1403,-8.1403,-8.115,-8.0869,-8.0532,-7.997,-7.8933,-7.7176,-7.687,-7.6396,-7.514,-7.5028,-7.5028,-7.5028,-7.5028,-7.5028,-7.5028,-7.5028,-7.5028,-7.5028,-7.5028,-7.5028,-7.5028,-7.5028,-7.5113,-7.5339,-7.5592,-7.5871,-7.6039,-7.6039,-7.5955,-7.5704,-7.5282,-7.4859,0.0,0.0,0.0,0.0,0.0,0.0,0.0,0.0,0.0,0.0,0.0,0.0,0.0,0.0,0.0,0.0,0.0,0.0,0.0,0.0,0.0,0.0,0.0,0.0,0.0,0.0,0.0,0.0,0.0,0.0,0.0,0.0,0.0,0.0,0.0,-8.0794,-8.0794,-8.0794,-8.0794,-8.0794,-8.0674,-8.0584,-8.0464,-8.0464,-8.1105,-8.2152,-8.2521,-8.3325,-8.4271,-8.4709,-8.4916,-8.5111,-8.5111,-8.4862,-8.4424,-8.4055,-8.3715,-8.3296,-8.2541,-8.213,-8.1976,-8.1204,-8.1,-8.0844,-8.0452,-8.0294,-8.0215,-7.9711,-7.9771,-7.98,-7.9533,-7.9968,-8.0504,-8.0616,-8.1038,-8.1403,-8.1403,-8.1403,-8.1375,-8.1263,-8.0645,-8.0167,-8.0167,-7.9211,-7.8036,-7.6706,-7.6484,-7.6123,-7.5282,-7.5113,-7.5113,-7.5028,-7.5028,-7.5028,-7.5028,-7.5028,-7.5028,-7.5028,-7.5028,-7.5028,-7.5028,-7.5028,-7.4944,-7.4859,-7.5367,-7.5508,-7.5451,-7.5451,-7.5198,-7.4774,-7.446,-7.4032,0.0,0.0,0.0,0.0,0.0,0.0,0.0,0.0,0.0,0.0,0.0,0.0,0.0,0.0,0.0,0.0,0.0,0.0,0.0,0.0,0.0,0.0,0.0,0.0,0.0,0.0,0.0,0.0,0.0,0.0,0.0,0.0,-8.0794,-8.0794,-8.0794,0.0,-8.0794,-8.0794,-8.0794,-8.0794,-8.0225,-7.9627,-7.9058,-7.9058,-7.9746,-8.1017,-8.1459,-8.2219,-8.3265,-8.3599,-8.4299,-8.5111,-8.5111,-8.4862,-8.4424,-8.4055,-8.3715,-8.3296,-8.2844,-8.2435,-8.1976,-8.1592,-8.1204,-8.0844,-8.0452,-8.0294,-8.0215,-7.9711,-7.9771,-7.9914,-8.0015,-8.0278,-8.0616,-8.115,-8.1347,-8.1403,-8.1403,-8.1403,-8.1235,-8.0701,-7.9661,-7.8846,-7.8846,-7.8256,-7.7614,-7.7036,-7.6926,-7.6595,-7.5676,-7.5592,-7.5424,-7.5028,-7.5028,-7.5028,-7.5028,-7.5028,-7.5028,-7.5028,-7.5028,-7.5028,-7.5028,-7.5028,-7.4859,-7.4487,-7.4859,-7.4944,-7.4545,-7.4545,-7.4289,-7.386,-7.386,-7.3515,0.0,0.0,0.0,0.0,0.0,0.0,0.0,0.0,0.0,0.0,0.0,0.0,0.0,0.0,0.0,0.0,0.0,0.0,0.0,0.0,0.0,0.0,0.0,0.0,0.0,0.0,0.0,0.0,0.0,0.0,0.0,-8.005,-7.9905,-7.9686,-7.9686,0.0,-7.9686,-7.9686,-7.9686,-7.9656,-7.9387,-7.9088,-7.8789,-7.8789,-7.9327,-8.0255,-8.0694,-8.142,-8.2389,-8.2824,-8.3337,-8.3972,-8.3972,-8.3901,-8.3685,-8.3252,-8.3131,-8.3096,-8.265,-8.2515,-8.2465,-8.1976,-8.1514,-8.1156,-8.0766,-8.0452,-8.0294,-8.0057,-8.0352,-8.078,-8.0545,-8.0924,-8.1407,-8.1405,-8.1122,-8.0897,-8.0897,-8.0897,-8.0588,-7.9605,-7.8987,-7.8481,-7.8144,-7.7863,-7.753,-7.7091,-7.7009,-7.6678,-7.5844,-7.5676,-7.5508,-7.5028,-7.5028,-7.5028,-7.5028,-7.5028,-7.5028,-7.5028,-7.5028,-7.5028,-7.5028,-7.4774,-7.4545,-7.4401,-7.4545,-7.446,-7.4032,-7.4032,-7.3774,-7.3316,-7.3316,-7.3056,0.0,0.0,0.0,0.0,0.0,0.0,0.0,0.0,0.0,0.0,0.0,0.0,0.0,0.0,0.0,0.0,0.0,0.0,0.0,0.0,0.0,0.0,0.0,0.0,0.0,0.0,0.0,0.0,0.0,0.0,-7.9576,-7.9505,-7.9363,-7.9076,-7.9005,-7.8933,-7.8933,-7.8861,-7.8789,-7.8789,-7.8789,-7.8789,-7.8789,-7.8789,-7.9058,-7.9567,-7.9827,-8.0622,-8.1691,-8.1979,-8.25,-8.308,-8.308,-8.308,-8.3009,-8.2684,-8.268,-8.2863,-8.2421,-8.247,-8.2693,-8.2206,-8.1823,-8.1437,-8.1,-8.0609,-8.0294,-8.0294,-8.0759,-8.111,-8.0731,-8.1116,-8.152,-8.1011,-8.0588,-8.0251,-8.0251,-8.0111,-7.9717,-7.879,-7.8481,-7.8228,-7.775,-7.7694,-7.7612,-7.7256,-7.7174,-7.6926,-7.6095,-7.5928,-7.5704,-7.5255,-7.5113,-7.5028,-7.5028,-7.5028,-7.5028,-7.5028,-7.4944,-7.4859,-7.4859,-7.446,-7.4144,-7.4032,-7.4032,-7.386,-7.3515,-7.3515,-7.3229,-7.2795,-7.2795,-7.2647,0.0,0.0,0.0,0.0,0.0,0.0,0.0,0.0,0.0,0.0,0.0,0.0,0.0,0.0,0.0,0.0,0.0,0.0,0.0,0.0,0.0,0.0,0.0,0.0,0.0,0.0,0.0,0.0,0.0,0.0,-7.99,-7.99,-7.983,-7.983,-7.9505,-7.9363,-7.9363,-7.9005,-7.8789,-7.8789,-7.8789,-7.8789,-7.8789,-7.8789,-7.8819,-7.8849,-7.8849,-7.9713,-8.1064,-8.1064,-8.1889,-8.308,-8.308,-8.308,-8.3009,-8.2684,-8.268,-8.2863,-8.2421,-8.247,-8.2693,-8.2206,-8.1823,-8.1437,-8.1,-8.0609,-8.0294,-8.0294,-8.047,-8.0507,-8.0073,-8.0149,-8.0218,-7.9829,-7.9633,-7.9605,-7.9605,-7.9127,-7.8678,-7.8621,-7.8144,-7.7722,-7.7694,-7.7694,-7.7694,-7.7694,-7.7694,-7.7502,-7.7009,-7.6622,-7.6206,-7.5676,-7.5255,-7.5028,-7.5028,-7.5028,-7.5028,-7.5028,-7.463,-7.4401,-7.4401,-7.3946,-7.3515,-7.3056,-7.3056,-7.3056,-7.3056,-7.3056,-7.2795,-7.2297,-7.2297,-7.2297,0.0,0.0,0.0,0.0,0.0,0.0,0.0,0.0,0.0,0.0,0.0,0.0,0.0,0.0,0.0,0.0,0.0,0.0,0.0,0.0,0.0,0.0,0.0,0.0,0.0,0.0,0.0,0.0,0.0,0.0,-7.9002,-7.9002,-7.8864,-7.8655,-7.8516,-7.8518,-7.873,-7.8374,-7.837,-7.8789,-7.8789,-7.8789,-7.8789,-7.8789,-7.8789,-7.8789,-7.8789,-7.934,-8.0264,-8.0264,-8.0942,-8.1787,-8.1787,-8.1787,-8.1787,-8.1367,-8.1644,-8.2226,-8.186,-8.2214,-8.2769,-8.2587,-8.2053,-8.1437,-8.1282,-8.0844,-8.0294,-8.0294,-8.065,-8.0823,-8.0097,-8.0228,-8.0351,-7.9209,-7.8931,-7.8846,-7.8453,-7.8481,-7.8481,-7.8088,-7.7835,-7.7694,-7.7694,-7.7385,-7.7132,-7.7132,-7.6795,-7.6381,-7.5948,-7.5819,-7.5655,-7.5156,-7.5037,-7.5028,-7.5028,-7.5028,-7.4859,-7.463,-7.4487,-7.423,-7.3946,-7.3515,-7.3142,-7.2969,-7.2708,-7.256,-7.256,-7.256,-7.2472,-7.2297,-7.2297,-7.2297,-6.727,0.0,0.0,0.0,0.0,0.0,0.0,0.0,0.0,0.0,0.0,0.0,0.0,0.0,0.0,0.0,0.0,0.0,0.0,0.0,0.0,0.0,0.0,0.0,0.0,0.0,0.0,0.0,0.0,0.0,-7.874,-7.8672,-7.8536,-7.8095,-7.7957,-7.7932,-7.8036,-7.7924,-7.8041,-7.846,-7.8669,-7.8789,-7.8789,-7.8789,-7.8789,-7.8789,-7.8789,-7.922,-7.99,-7.9759,-8.0212,-8.091,-8.0771,-8.0701,-8.0632,-8.0422,-8.0923,-8.1674,-8.1455,-8.2034,-8.2844,-8.2844,-8.2282,-8.1669,-8.1514,-8.1078,-8.0452,-8.0294,-8.0585,-8.0745,-8.0024,-7.9934,-7.9726,-7.8562,-7.8284,-7.8172,-7.7778,-7.8003,-7.8172,-7.775,-7.7526,-7.7385,-7.7385,-7.6907,-7.6514,-7.6514,-7.6177,-7.5816,-7.5467,-7.5263,-7.5131,-7.4801,-7.4712,-7.473,-7.473,-7.492,-7.4859,-7.463,-7.446,-7.423,-7.3688,-7.3229,-7.2969,-7.2795,-7.2472,-7.2297,-7.2297,-7.2297,-7.2297,-7.2297,-7.2297,-7.2297,0.0,0.0,0.0,0.0,0.0,0.0,0.0,0.0,0.0,0.0,0.0,0.0,0.0,0.0,0.0,0.0,0.0,0.0,0.0,0.0,0.0,0.0,0.0,0.0,0.0,0.0,0.0,0.0,0.0,-7.9047,-7.9047,-7.9047,-7.8814,-7.8475,-7.8072,-7.7659,-7.7373,-7.7654,-7.7771,-7.7801,-7.846,-7.8759,-7.8759,-7.8789,-7.8789,-7.8789,-7.8789,-7.922,-7.983,-7.9505,-7.986,-8.0422,-8.0041,-7.99,-7.99,-7.99,-8.0494,-8.1382,-8.1382,-8.2034,-8.2739,-8.2814,-8.2435,-8.2053,-8.1592,-8.1234,-8.0844,-8.0452,-8.0294,-8.0215,-7.9711,-7.902,-7.8321,-7.7858,-7.7694,-7.7694,-7.7666,-7.7666,-7.7666,-7.7666,-7.7216,-7.6795,-7.6795,-7.6289,-7.5868,-7.5868,-7.5868,-7.584,-7.584,-7.5117,-7.4577,-7.4577,-7.4279,-7.416,-7.4187,-7.4676,-7.5001,-7.5028,-7.463,-7.423,-7.3688,-7.3229,-7.2795,-7.2385,-7.2297,-7.2297,-7.2297,-7.2297,-7.2297,-7.2297,-7.2297,-7.2297,-6.8121,0.0,0.0,0.0,0.0,0.0,0.0,0.0,0.0,0.0,0.0,0.0,0.0,0.0,0.0,0.0,0.0,0.0,0.0,0.0,0.0,0.0,0.0,0.0,0.0,0.0,0.0,0.0,0.0,-7.76,-7.76,-7.76,-7.7402,-7.7038,-7.6702,-7.6607,-7.668,-7.6544,-7.6664,-7.7113,-7.7771,-7.8071,-7.81,-7.8579,-7.8789,-7.8789,-7.8789,-7.9076,-7.9505,-7.9434,-7.9647,-8.0041,-7.9971,-7.99,-7.99,-7.9647,-7.9977,-8.0676,-8.0938,-8.1437,-8.214,-8.2589,-8.2435,-8.2053,-8.1976,-8.1669,-8.1204,-8.0844,-8.0766,-8.0609,-7.9791,-7.902,-7.8403,-7.8212,-7.7939,-7.7554,-7.716,-7.7048,-7.7048,-7.7048,-7.6935,-7.6683,-7.6233,-7.5615,-7.5193,-7.5193,-7.4828,-7.4547,-7.4547,-7.4119,-7.3915,-7.3915,-7.365,-7.3726,-7.4133,-7.4323,-7.4425,-7.4518,-7.4487,-7.423,-7.3688,-7.3601,-7.3429,-7.3342,-7.3342,-7.3342,-7.3342,-7.2647,-7.2297,-7.2297,-7.2297,-7.2297,-6.8546,-6.885,-6.9364,-6.9433,0.0,0.0,0.0,0.0,0.0,0.0,0.0,0.0,0.0,0.0,0.0,0.0,0.0,0.0,0.0,0.0,0.0,0.0,0.0,0.0,0.0,0.0,0.0,0.0,-7.7016,-7.695,-7.6818,-7.6818,-7.662,-7.6258,-7.5887,-7.5798,-7.5987,-7.5974,-7.6096,-7.6455,-7.7083,-7.7412,-7.7412,-7.7801,-7.813,-7.837,-7.837,-7.8693,-7.9148,-7.9148,-7.9363,-7.9688,-7.9475,-7.9404,-7.9404,-7.922,-7.9599,-8.0158,-8.0328,-8.1003,-8.1841,-8.223,-8.2378,-8.2388,-8.213,-8.19,-8.1669,-8.1282,-8.1078,-8.0687,-7.9791,-7.9232,-7.8859,-7.8698,-7.8095,-7.746,-7.7122,-7.6679,-7.643,-7.643,-7.6205,-7.5924,-7.5559,-7.4969,-7.4547,-7.4547,-7.4266,-7.4013,-7.4013,-7.3535,-7.3252,-7.3252,-7.3022,-7.3048,-7.34,-7.3889,-7.4239,-7.4337,-7.4496,-7.446,-7.4032,-7.3946,-7.386,-7.3688,-7.3688,-7.3554,-7.3315,-7.3037,-7.2821,-7.256,-7.256,-7.2472,-6.9276,-6.9548,-7.0092,-7.0067,-7.0085,0.0,-7.0769,-7.0889,0.0,0.0,0.0,0.0,0.0,0.0,0.0,0.0,0.0,0.0,0.0,0.0,0.0,0.0,0.0,0.0,0.0,0.0,0.0,-7.6735,-7.6669,-7.6568,-7.6365,-7.6299,-7.6197,-7.5856,-7.555,-7.5346,-7.5346,-7.5635,-7.5796,-7.5796,-7.6425,-7.6724,-7.6724,-7.6784,-7.7143,-7.7711,-7.7771,-7.813,-7.8699,-7.8759,-7.9005,-7.9291,-7.8933,-7.8789,-7.8789,-7.8717,-7.9105,-7.9643,-7.966,-8.0436,-8.1497,-8.1482,-8.1975,-8.2454,-8.1998,-8.1922,-8.1845,-8.1385,-8.0999,-8.0454,-7.9668,-7.943,-7.9271,-7.8952,-7.8044,-7.7298,-7.7213,-7.6497,-7.5863,-7.5699,-7.5278,-7.4912,-7.4856,-7.4378,-7.4013,-7.4013,-7.4013,-7.4013,-7.4013,-7.328,-7.2779,-7.2699,-7.2502,-7.2369,-7.2451,-7.3427,-7.4106,-7.4187,-7.4703,-7.4832,-7.4379,-7.4379,-7.4181,-7.3673,-7.3673,-7.3406,-7.2899,-7.34,-7.3382,-7.2871,-7.2924,-7.2716,-7.0251,-7.0432,-7.0668,-7.0441,-7.0543,0.0,-7.0889,-7.0889,0.0,0.0,0.0,0.0,0.0,0.0,0.0,0.0,0.0,0.0,0.0,0.0,0.0,0.0,0.0,0.0,0.0,0.0,0.0,-7.4997,-7.4737,-7.4785,-7.5267,-7.5297,-7.5341,-7.5452,-7.5414,-7.5278,-7.5006,-7.5087,-7.5078,-7.5078,-7.5766,-7.6096,-7.6096,-7.6604,-7.6904,-7.7053,-7.7592,-7.7891,-7.8041,-7.8579,-7.8861,-7.8933,-7.8861,-7.8789,-7.8789,-7.8427,-7.8371,-7.8549,-7.8789,-7.8996,-7.9292,-7.987,-8.0316,-8.066,-8.0585,-8.081,-8.0885,-8.0208,-7.9677,-7.9218,-7.8756,-7.8368,-7.8027,-7.7978,-7.7549,-7.6899,-7.6073,-7.5717,-7.5334,-7.4569,-7.4688,-7.4772,-7.4294,-7.4097,-7.4013,-7.4013,-7.4013,-7.4013,-7.4013,-7.3544,-7.3122,-7.2699,-7.2359,-7.2231,-7.2396,-7.3048,-7.3672,-7.416,-7.4703,-7.4727,-7.4293,-7.4266,-7.3965,-7.3395,-7.3395,-7.334,-7.3205,-7.3041,-7.2643,-7.2164,-7.2585,-7.254,-7.1047,-7.1195,-7.1334,-7.1017,-7.0938,0.0,0.0,-7.0889,0.0,0.0,0.0,0.0,0.0,0.0,0.0,0.0,0.0,0.0,0.0,0.0,0.0,0.0,0.0,0.0,0.0,0.0,-7.4405,-7.4276,-7.4081,-7.4102,-7.4172,-7.4202,-7.4372,-7.4632,-7.4662,-7.4744,-7.4869,-7.4869,-7.4869,-7.4869,-7.5228,-7.5377,-7.5407,-7.5707,-7.6036,-7.6395,-7.6724,-7.7233,-7.7831,-7.816,-7.8489,-7.8789,-7.8789,-7.8717,-7.8499,-7.8282,-7.8063,-7.7873,-7.808,-7.833,-7.8729,-7.9278,-7.9753,-8.0199,-8.0423,-8.0645,-8.0645,-7.9824,-7.9447,-7.9144,-7.8561,-7.8253,-7.807,-7.807,-7.75,-7.6719,-7.5988,-7.5441,-7.4819,-7.4147,-7.4266,-7.4378,-7.4069,-7.4013,-7.4013,-7.4013,-7.4013,-7.4013,-7.4013,-7.3622,-7.3308,-7.3044,-7.2488,-7.2146,-7.2205,-7.2641,-7.2966,-7.3265,-7.3834,-7.4024,-7.3753,-7.3753,-7.359,-7.3319,-7.3292,-7.3156,-7.283,-7.2715,-7.2516,-7.2265,-7.256,-7.244,-7.1782,-7.1867,0.0,0.0,0.0,-7.0889,0.0,0.0,0.0,0.0,0.0,0.0,0.0,0.0,0.0,0.0,0.0,0.0,0.0,0.0,0.0,0.0,0.0,0.0,0.0,0.0,0.0,-7.3308,-7.3365,-7.3355,-7.3148,-7.3148,-7.325,-7.3672,-7.3821,-7.4151,-7.4689,-7.4809,-7.4869,-7.4869,-7.4869,-7.4869,-7.4869,-7.4869,-7.5198,-7.5707,-7.5856,-7.6485,-7.7472,-7.7711,-7.813,-7.8609,-7.8729,-7.8572,-7.8282,-7.8136,-7.7917,-7.7549,-7.7402,-7.7829,-7.8344,-7.8716,-7.9219,-7.9887,-8.0257,-8.0405,-8.0257,-7.9515,-7.929,-7.9064,-7.8336,-7.8107,-7.803,-7.803,-7.7394,-7.6636,-7.6146,-7.5361,-7.4528,-7.4091,-7.4013,-7.4013,-7.4013,-7.4013,-7.4013,-7.4013,-7.4013,-7.4013,-7.4013,-7.3701,-7.3465,-7.3387,-7.2754,-7.2277,-7.2117,-7.2341,-7.2451,-7.2369,-7.2966,-7.3237,-7.3129,-7.302,-7.2939,-7.2939,-7.2939,-7.2695,-7.2206,-7.2206,-7.2287,-7.2416,-7.2551,-7.2328,0.0,0.0,0.0,0.0,-7.1371,0.0,0.0,0.0,0.0,0.0,0.0,0.0,0.0,0.0,0.0,0.0,0.0,0.0,0.0,0.0,0.0,0.0,0.0,0.0,0.0,0.0,0.0,0.0,-7.1152,-7.1498,-7.2032,-7.2062,-7.2391,-7.3013,-7.3582,-7.3941,-7.4001,-7.4569,-7.4869,-7.4869,-7.4869,-7.4869,-7.4869,-7.4869,-7.4929,-7.5018,-7.5647,-7.5976,-7.6215,-7.7352,-7.7861,-7.7981,-7.8549,-7.8789,-7.8644,-7.7917,-7.7623,-7.7475,-7.6808,-7.6895,-7.7281,-7.7355,-7.78,-7.8519,-7.8883,-7.9028,-7.8956,-7.8519,-7.805,-7.7711,-7.7369,-7.6995,-7.677,-7.677,-7.6608,-7.6324,-7.5488,-7.5201,-7.4942,-7.4169,-7.4013,-7.4013,-7.4013,-7.4013,-7.4013,-7.4013,-7.4013,-7.4013,-7.4013,-7.3935,-7.3779,-7.3465,-7.3308,-7.2913,-7.2197,-7.2584,-7.2777,-7.2451,-7.2966,-7.3048,-7.2505,-7.1962,-7.1691,-7.1691,-7.1691,-7.1664,-7.1582,-7.1582,-7.1609,-7.161,-7.2125,-7.2149,0.0,0.0,0.0,0.0,0.0,0.0,-7.0889,0.0,-7.0889,0.0,0.0,0.0,0.0,0.0,0.0,0.0,0.0,0.0,0.0,0.0,0.0,0.0,0.0,0.0,0.0,0.0,0.0,0.0,0.0,-7.0081,-7.0739,-7.0769,-7.1248,-7.2295,-7.2595,-7.3103,-7.3881,-7.418,-7.451,-7.4869,-7.4869,-7.4869,-7.4869,-7.4869,-7.4869,-7.4899,-7.5198,-7.5527,-7.5946,-7.6485,-7.7143,-7.7831,-7.81,-7.8316,-7.8427,-7.8063,-7.777,-7.7549,-7.7254,-7.7283,-7.7431,-7.7652,-7.8063,-7.8572,-7.8717,-7.8789,-7.8717,-7.8282,-7.7917,-7.7549,-7.7164,-7.6762,-7.6538,-7.6538,-7.6312,-7.5906,-7.5326,-7.4991,-7.4683,-7.4091,-7.4013,-7.4013,-7.4013,-7.4013,-7.4013,-7.4013,-7.4013,-7.4013,-7.4013,-7.4013,-7.4075,-7.4283,-7.4074,-7.3678,-7.3119,-7.3018,-7.2694,-7.1962,-7.2098,-7.2125,-7.1854,-7.1609,-7.1474,-7.1474,-7.1474,-7.1474,-7.1474,-7.1474,-7.1474,-7.1501,-7.1745,-7.1962,-7.0617,0.0,0.0,0.0,0.0,0.0,0.0,0.0,0.0,0.0,0.0,0.0,0.0,0.0,-6.8425,-6.7324,0.0,0.0,0.0,0.0,0.0,0.0,0.0,0.0,0.0,0.0,0.0,0.0,-6.8758,0.0,-6.9692,-6.9871,-7.041,-7.1338,-7.1697,-7.2355,-7.3343,-7.3702,-7.4121,-7.4599,-7.4779,-7.4869,-7.4869,-7.4869,-7.4869,-7.4869,-7.4869,-7.5168,-7.5647,-7.5826,-7.6544,-7.7562,-7.7741,-7.8005,-7.8354,-7.8209,-7.799,-7.777,-7.7623,-7.7696,-7.7843,-7.8209,-7.8572,-7.8789,-7.8789,-7.8789,-7.8717,-7.8427,-7.799,-7.7549,-7.7283,-7.6837,-7.6538,-7.6538,-7.6132,-7.5678,-7.5326,-7.4837,-7.4451,-7.4091,-7.4013,-7.4013,-7.4013,-7.4013,-7.4013,-7.4013,-7.4013,-7.4013,-7.4013,-7.4013,-7.4266,-7.4884,-7.4456,-7.4111,-7.3719,-7.3259,-7.2474,-7.1582,-7.1474,-7.1474,-7.1474,-7.1474,-7.1474,-7.1474,-7.1474,-7.1474,-7.1474,-7.1474,-7.1474,-7.1474,-7.1474,-7.1799,0.0,0.0,0.0,-6.9539,0.0,0.0,0.0,0.0,-7.0739,0.0,0.0,0.0,0.0,-6.8402,-6.8003,-6.6622,-6.698,0.0,0.0,0.0,0.0,0.0,0.0,0.0,0.0,0.0,0.0,0.0,-6.8143,0.0,-6.9034,-6.9632,-6.9991,-7.0051,-7.1248,-7.1906,-7.1936,-7.3253,-7.3911,-7.3941,-7.4569,-7.4869,-7.4869,-7.4869,-7.4869,-7.4869,-7.4869,-7.4899,-7.4958,-7.5617,-7.6275,-7.6933,-7.7562,-7.822,-7.8717,-7.8354,-7.8209,-7.8136,-7.777,-7.7843,-7.8282,-7.8644,-7.8789,-7.8789,-7.8789,-7.8789,-7.8789,-7.8789,-7.8209,-7.7623,-7.7623,-7.7031,-7.6538,-7.6538,-7.6132,-7.5678,-7.5326,-7.4837,-7.4451,-7.4091,-7.4013,-7.4013,-7.4013,-7.4013,-7.4013,-7.4013,-7.4013,-7.4013,-7.4013,-7.4013,-7.4266,-7.4884,-7.4407,-7.3902,-7.3691,-7.3086,-7.2329,-7.1554,-7.1474,-7.1474,-7.1474,-7.1474,-7.1474,-7.1474,-7.1474,-7.1474,-7.1474,-7.1474,-7.1474,-7.1474,-7.1474,-7.1799,0.0,0.0,-6.8875,-6.8875,0.0,0.0,0.0,0.0,0.0,0.0,0.0,0.0,0.0,-6.7909,-6.7512,-6.6609,-6.6457,-6.6431,0.0,0.0,0.0,0.0,0.0,0.0,0.0,0.0,0.0,-6.5811,-6.6233,-6.6924,0.0,-6.8399,-6.9064,-6.9961,-7.041,-7.1038,-7.1876,-7.2325,-7.2804,-7.3253,-7.3911,-7.424,-7.424,-7.4689,-7.4869,-7.4869,-7.4869,-7.4869,-7.4899,-7.5138,-7.5617,-7.6275,-7.6904,-7.7562,-7.819,-7.8495,-7.8572,-7.8572,-7.8427,-7.8499,-7.8644,-7.8789,-7.8789,-7.8789,-7.8789,-7.8789,-7.8789,-7.8789,-7.8209,-7.7623,-7.7623,-7.7031,-7.6538,-7.6538,-7.5935,-7.5374,-7.5249,-7.4711,-7.4169,-7.4013,-7.4013,-7.4013,-7.4013,-7.4013,-7.4013,-7.4013,-7.4013,-7.4013,-7.4013,-7.4013,-7.4266,-7.4884,-7.4744,-7.4372,-7.3719,-7.2606,-7.1796,-7.1554,-7.1474,-7.1474,-7.1474,-7.1474,-7.1474,-7.1474,-7.1474,-7.1474,-7.1474,-7.1474,-7.1474,-7.1501,-7.1881,-7.2396,-6.7669,-6.7788,0.0,-6.7997,-6.8323,0.0,-6.8645,0.0,0.0,0.0,0.0,0.0,0.0,-6.7441,-6.7106,-6.6565,-6.6444,-6.6293,0.0,-6.534,0.0,0.0,0.0,0.0,0.0,0.0,-6.3965,-6.4438,-6.4919,-6.5606,0.0,0.0,-6.834,-6.9602,-6.9871,-7.047,-7.1517,-7.1757,-7.2116,-7.2565,-7.3462,-7.3881,-7.3911,-7.4569,-7.4869,-7.4869,-7.4869,-7.4869,-7.4869,-7.4869,-7.5288,-7.5976,-7.6574,-7.7233,-7.7891,-7.8549,-7.8789,-7.8789,-7.8789,-7.8789,-7.8789,-7.8789,-7.8789,-7.8789,-7.8789,-7.8789,-7.8789,-7.8644,-7.8136,-7.7549,-7.7431,-7.6986,-7.6538,-7.6538,-7.5859,-7.5249,-7.5249,-7.4557,-7.4013,-7.4013,-7.4013,-7.4013,-7.4013,-7.4013,-7.4013,-7.4013,-7.4013,-7.4013,-7.4013,-7.4013,-7.4266,-7.4884,-7.4744,-7.4209,-7.3387,-7.2256,-7.1474,-7.1474,-7.1474,-7.1474,-7.1474,-7.1474,-7.1474,-7.1474,-7.1474,-7.1474,-7.1474,-7.1474,-7.1474,-7.1501,-7.2315,-7.2912]}]]